Wetterdaten: Montag, 16.01.2023
Datum Zeit Temp. 2m Temp +5 cm Feuchte A. Luftdruck Regen Wind Richtung Richtung Sonnenschein UV Solar Taupunkt Windchill Windben
16.01.2023 00:00 2,0 C 1,7 C 91 % 1002,1 hPa 0,0 l/m 19,3 km/h (3 Bft) S 180 0 min 0,0 UV-I 0 W/m 0,7 C -6,7 C 29,0 km/h (5 Bft)
16.01.2023 00:01 2,1 C 1,7 C 91 % 1002,2 hPa 0,0 l/m 17,7 km/h (3 Bft) S 180 0 min 0,0 UV-I 0 W/m 0,8 C -5,9 C 25,7 km/h (4 Bft)
16.01.2023 00:02 2,1 C 1,7 C 91 % 1002,2 hPa 0,0 l/m 17,7 km/h (3 Bft) S 180 0 min 0,0 UV-I 0 W/m 0,8 C -5,9 C 24,1 km/h (4 Bft)
16.01.2023 00:03 2,1 C 1,7 C 91 % 1002,1 hPa 0,0 l/m 19,3 km/h (3 Bft) S 180 0 min 0,0 UV-I 0 W/m 0,8 C -6,6 C 29,0 km/h (5 Bft)
16.01.2023 00:04 2,1 C 1,7 C 91 % 1002,0 hPa 0,0 l/m 17,7 km/h (3 Bft) S-SW 202 0 min 0,0 UV-I 0 W/m 0,8 C -5,9 C 29,0 km/h (5 Bft)
16.01.2023 00:05 2,1 C 1,7 C 91 % 1002,1 hPa 0,0 l/m 19,3 km/h (3 Bft) S 180 0 min 0,0 UV-I 0 W/m 0,8 C -6,6 C 30,6 km/h (5 Bft)
16.01.2023 00:06 2,1 C 1,7 C 91 % 1002,1 hPa 0,0 l/m 19,3 km/h (3 Bft) S 180 0 min 0,0 UV-I 0 W/m 0,8 C -6,6 C 30,6 km/h (5 Bft)
16.01.2023 00:07 2,1 C 1,7 C 91 % 1002,0 hPa 0,0 l/m 16,1 km/h (3 Bft) S 180 0 min 0,0 UV-I 0 W/m 0,8 C -5,0 C 25,7 km/h (4 Bft)
16.01.2023 00:08 2,1 C 1,7 C 91 % 1002,0 hPa 0,0 l/m 12,9 km/h (3 Bft) S 180 0 min 0,0 UV-I 0 W/m 0,8 C -3,2 C 17,7 km/h (3 Bft)
16.01.2023 00:09 2,1 C 1,7 C 91 % 1001,9 hPa 0,0 l/m 19,3 km/h (3 Bft) S-SO 157 0 min 0,0 UV-I 0 W/m 0,8 C -6,6 C 29,0 km/h (5 Bft)
16.01.2023 00:10 2,1 C 1,7 C 91 % 1002,0 hPa 0,0 l/m 16,1 km/h (3 Bft) S-SO 157 0 min 0,0 UV-I 0 W/m 0,8 C -5,0 C 20,9 km/h (4 Bft)
16.01.2023 00:11 2,1 C 1,7 C 91 % 1002,0 hPa 0,0 l/m 24,1 km/h (4 Bft) S-SO 157 0 min 0,0 UV-I 0 W/m 0,8 C -8,6 C 40,2 km/h (6 Bft)
16.01.2023 00:12 2,1 C 1,7 C 91 % 1002,0 hPa 0,0 l/m 22,5 km/h (4 Bft) S 180 0 min 0,0 UV-I 0 W/m 0,8 C -8,0 C 33,8 km/h (5 Bft)
16.01.2023 00:13 2,1 C 1,1 C 91 % 1002,0 hPa 0,0 l/m 20,9 km/h (4 Bft) S-SO 157 0 min 0,0 UV-I 0 W/m 0,8 C -7,3 C 32,2 km/h (5 Bft)
16.01.2023 00:14 2,1 C 1,1 C 91 % 1002,0 hPa 0,0 l/m 24,1 km/h (4 Bft) S 180 0 min 0,0 UV-I 0 W/m 0,8 C -8,6 C 35,4 km/h (5 Bft)
16.01.2023 00:15 2,1 C 1,1 C 91 % 1002,1 hPa 0,2 l/m 20,9 km/h (4 Bft) S-SW 202 0 min 0,0 UV-I 0 W/m 0,8 C -7,3 C 27,4 km/h (4 Bft)
16.01.2023 00:16 2,0 C 1,1 C 91 % 1002,0 hPa 0,0 l/m 19,3 km/h (3 Bft) S 180 0 min 0,0 UV-I 0 W/m 0,7 C -6,7 C 29,0 km/h (5 Bft)
16.01.2023 00:17 1,9 C 1,1 C 91 % 1002,0 hPa 0,0 l/m 14,5 km/h (3 Bft) S 180 0 min 0,0 UV-I 0 W/m 0,6 C -4,4 C 24,1 km/h (4 Bft)
16.01.2023 00:18 1,9 C 1,1 C 90 % 1001,8 hPa 0,0 l/m 16,1 km/h (3 Bft) S 180 0 min 0,0 UV-I 0 W/m 0,4 C -5,3 C 24,1 km/h (4 Bft)
16.01.2023 00:19 1,9 C 1,1 C 90 % 1001,8 hPa 0,0 l/m 19,3 km/h (3 Bft) S 180 0 min 0,0 UV-I 0 W/m 0,4 C -6,9 C 25,7 km/h (4 Bft)
16.01.2023 00:20 1,9 C 1,1 C 90 % 1001,8 hPa 0,0 l/m 17,7 km/h (3 Bft) S 180 0 min 0,0 UV-I 0 W/m 0,4 C -6,1 C 22,5 km/h (4 Bft)
16.01.2023 00:21 1,9 C 1,1 C 91 % 1001,8 hPa 0,0 l/m 20,9 km/h (4 Bft) S 180 0 min 0,0 UV-I 0 W/m 0,6 C -7,6 C 25,7 km/h (4 Bft)
16.01.2023 00:22 1,9 C 1,1 C 91 % 1001,7 hPa 0,0 l/m 14,5 km/h (3 Bft) S 180 0 min 0,0 UV-I 0 W/m 0,6 C -4,4 C 24,1 km/h (4 Bft)
16.01.2023 00:23 1,9 C 1,1 C 91 % 1001,8 hPa 0,0 l/m 12,9 km/h (3 Bft) S-SO 157 0 min 0,0 UV-I 0 W/m 0,6 C -3,4 C 19,3 km/h (3 Bft)
16.01.2023 00:24 1,9 C 1,1 C 91 % 1001,7 hPa 0,0 l/m 17,7 km/h (3 Bft) S 180 0 min 0,0 UV-I 0 W/m 0,6 C -6,1 C 29,0 km/h (5 Bft)
16.01.2023 00:25 1,9 C 1,1 C 91 % 1001,6 hPa 0,0 l/m 16,1 km/h (3 Bft) S 180 0 min 0,0 UV-I 0 W/m 0,6 C -5,3 C 24,1 km/h (4 Bft)
16.01.2023 00:26 1,9 C 1,1 C 91 % 1001,6 hPa 0,0 l/m 12,9 km/h (3 Bft) S 180 0 min 0,0 UV-I 0 W/m 0,6 C -3,4 C 19,3 km/h (3 Bft)
16.01.2023 00:27 1,9 C 1,1 C 91 % 1001,6 hPa 0,0 l/m 12,9 km/h (3 Bft) S 180 0 min 0,0 UV-I 0 W/m 0,6 C -3,4 C 19,3 km/h (3 Bft)
16.01.2023 00:28 1,9 C 1,1 C 91 % 1001,6 hPa 0,0 l/m 14,5 km/h (3 Bft) S 180 0 min 0,0 UV-I 0 W/m 0,6 C -4,4 C 20,9 km/h (4 Bft)
16.01.2023 00:29 1,9 C 1,1 C 91 % 1001,6 hPa 0,0 l/m 11,3 km/h (2 Bft) S 180 0 min 0,0 UV-I 0 W/m 0,6 C -2,3 C 14,5 km/h (3 Bft)
16.01.2023 00:30 2,0 C 1,7 C 91 % 1001,5 hPa 0,0 l/m 11,3 km/h (2 Bft) S 180 0 min 0,0 UV-I 0 W/m 0,7 C -2,2 C 16,1 km/h (3 Bft)
16.01.2023 00:31 2,0 C 1,7 C 91 % 1001,5 hPa 0,0 l/m 11,3 km/h (2 Bft) S 180 0 min 0,0 UV-I 0 W/m 0,7 C -2,2 C 19,3 km/h (3 Bft)
16.01.2023 00:32 2,1 C 1,7 C 91 % 1001,5 hPa 0,0 l/m 11,3 km/h (2 Bft) S 180 0 min 0,0 UV-I 0 W/m 0,8 C -2,1 C 14,5 km/h (3 Bft)
16.01.2023 00:33 2,1 C 1,7 C 91 % 1001,5 hPa 0,0 l/m 12,9 km/h (3 Bft) S 180 0 min 0,0 UV-I 0 W/m 0,8 C -3,2 C 19,3 km/h (3 Bft)
16.01.2023 00:34 2,1 C 1,7 C 91 % 1001,5 hPa 0,0 l/m 16,1 km/h (3 Bft) S-SW 202 0 min 0,0 UV-I 0 W/m 0,8 C -5,0 C 25,7 km/h (4 Bft)
16.01.2023 00:35 2,1 C 1,7 C 91 % 1001,5 hPa 0,0 l/m 11,3 km/h (2 Bft) S 180 0 min 0,0 UV-I 0 W/m 0,8 C -2,1 C 17,7 km/h (3 Bft)
16.01.2023 00:36 2,1 C 1,7 C 91 % 1001,4 hPa 0,0 l/m 14,5 km/h (3 Bft) S-SW 202 0 min 0,0 UV-I 0 W/m 0,8 C -4,2 C 27,4 km/h (4 Bft)
16.01.2023 00:37 2,1 C 1,7 C 91 % 1001,4 hPa 0,0 l/m 12,9 km/h (3 Bft) S 180 0 min 0,0 UV-I 0 W/m 0,8 C -3,2 C 20,9 km/h (4 Bft)
16.01.2023 00:38 2,1 C 1,7 C 91 % 1001,3 hPa 0,0 l/m 16,1 km/h (3 Bft) S 180 0 min 0,0 UV-I 0 W/m 0,8 C -5,0 C 27,4 km/h (4 Bft)
16.01.2023 00:39 2,1 C 1,1 C 91 % 1001,4 hPa 0,0 l/m 16,1 km/h (3 Bft) S 180 0 min 0,0 UV-I 0 W/m 0,8 C -5,0 C 22,5 km/h (4 Bft)
16.01.2023 00:40 2,1 C 1,1 C 91 % 1001,3 hPa 0,0 l/m 14,5 km/h (3 Bft) S 180 0 min 0,0 UV-I 0 W/m 0,8 C -4,2 C 17,7 km/h (3 Bft)
16.01.2023 00:41 2,0 C 1,1 C 91 % 1001,3 hPa 0,0 l/m 14,5 km/h (3 Bft) S 180 0 min 0,0 UV-I 0 W/m 0,7 C -4,3 C 20,9 km/h (4 Bft)
16.01.2023 00:42 2,0 C 1,1 C 91 % 1001,3 hPa 0,0 l/m 12,9 km/h (3 Bft) S 180 0 min 0,0 UV-I 0 W/m 0,7 C -3,3 C 22,5 km/h (4 Bft)
16.01.2023 00:43 2,0 C 1,1 C 91 % 1001,4 hPa 0,2 l/m 12,9 km/h (3 Bft) SW 225 0 min 0,0 UV-I 0 W/m 0,7 C -3,3 C 19,3 km/h (3 Bft)
16.01.2023 00:44 1,9 C 1,1 C 91 % 1001,3 hPa 0,0 l/m 16,1 km/h (3 Bft) S 180 0 min 0,0 UV-I 0 W/m 0,6 C -5,3 C 22,5 km/h (4 Bft)
16.01.2023 00:45 1,9 C 1,1 C 91 % 1001,3 hPa 0,0 l/m 14,5 km/h (3 Bft) S 180 0 min 0,0 UV-I 0 W/m 0,6 C -4,4 C 20,9 km/h (4 Bft)
16.01.2023 00:46 1,9 C 1,1 C 91 % 1001,3 hPa 0,0 l/m 11,3 km/h (2 Bft) S 180 0 min 0,0 UV-I 0 W/m 0,6 C -2,3 C 14,5 km/h (3 Bft)
16.01.2023 00:47 1,8 C 1,1 C 90 % 1001,2 hPa 0,0 l/m 12,9 km/h (3 Bft) S-SW 202 0 min 0,0 UV-I 0 W/m 0,3 C -3,5 C 20,9 km/h (4 Bft)
16.01.2023 00:48 1,8 C 1,1 C 90 % 1001,2 hPa 0,0 l/m 14,5 km/h (3 Bft) S 180 0 min 0,0 UV-I 0 W/m 0,3 C -4,5 C 19,3 km/h (3 Bft)
16.01.2023 00:49 1,8 C 1,1 C 90 % 1001,2 hPa 0,0 l/m 11,3 km/h (2 Bft) S 180 0 min 0,0 UV-I 0 W/m 0,3 C -2,4 C 20,9 km/h (4 Bft)
16.01.2023 00:50 1,8 C 1,1 C 91 % 1001,1 hPa 0,0 l/m 12,9 km/h (3 Bft) S 180 0 min 0,0 UV-I 0 W/m 0,5 C -3,5 C 20,9 km/h (4 Bft)
16.01.2023 00:51 1,7 C 1,1 C 91 % 1001,2 hPa 0,0 l/m 9,7 km/h (2 Bft) S-SW 202 0 min 0,0 UV-I 0 W/m 0,4 C -1,3 C 16,1 km/h (3 Bft)
16.01.2023 00:52 1,7 C 1,1 C 91 % 1001,1 hPa 0,0 l/m 14,5 km/h (3 Bft) S-SW 202 0 min 0,0 UV-I 0 W/m 0,4 C -4,6 C 17,7 km/h (3 Bft)
16.01.2023 00:53 1,7 C 1,1 C 91 % 1001,2 hPa 0,0 l/m 12,9 km/h (3 Bft) S-SW 202 0 min 0,0 UV-I 0 W/m 0,4 C -3,6 C 17,7 km/h (3 Bft)
16.01.2023 00:54 1,7 C 0,6 C 91 % 1001,0 hPa 0,0 l/m 11,3 km/h (2 Bft) S-SW 202 0 min 0,0 UV-I 0 W/m 0,4 C -2,6 C 14,5 km/h (3 Bft)
16.01.2023 00:55 1,7 C 0,6 C 91 % 1001,0 hPa 0,0 l/m 8,0 km/h (2 Bft) S-SW 202 0 min 0,0 UV-I 0 W/m 0,4 C 0,1 C 11,3 km/h (2 Bft)
16.01.2023 00:56 1,7 C 0,6 C 91 % 1001,0 hPa 0,0 l/m 8,0 km/h (2 Bft) S 180 0 min 0,0 UV-I 0 W/m 0,4 C 0,1 C 11,3 km/h (2 Bft)
16.01.2023 00:57 1,7 C 0,6 C 91 % 1001,0 hPa 0,0 l/m 11,3 km/h (2 Bft) S-SW 202 0 min 0,0 UV-I 0 W/m 0,4 C -2,6 C 16,1 km/h (3 Bft)
16.01.2023 00:58 1,6 C 1,1 C 91 % 1001,0 hPa 0,2 l/m 11,3 km/h (2 Bft) SW 225 0 min 0,0 UV-I 0 W/m 0,3 C -2,7 C 14,5 km/h (3 Bft)
16.01.2023 00:59 1,6 C 1,1 C 91 % 1001,0 hPa 0,0 l/m 9,7 km/h (2 Bft) S-SW 202 0 min 0,0 UV-I 0 W/m 0,3 C -1,4 C 14,5 km/h (3 Bft)
16.01.2023 01:00 1,6 C 0,6 C 91 % 1000,9 hPa 0,0 l/m 11,3 km/h (2 Bft) S-SW 202 0 min 0,0 UV-I 0 W/m 0,3 C -2,7 C 12,9 km/h (3 Bft)
16.01.2023 01:01 1,6 C 0,6 C 91 % 1000,9 hPa 0,0 l/m 8,0 km/h (2 Bft) S-SW 202 0 min 0,0 UV-I 0 W/m 0,3 C 0,0 C 11,3 km/h (2 Bft)
16.01.2023 01:02 1,6 C 0,6 C 91 % 1000,9 hPa 0,0 l/m 8,0 km/h (2 Bft) S-SW 202 0 min 0,0 UV-I 0 W/m 0,3 C 0,0 C 16,1 km/h (3 Bft)
16.01.2023 01:03 1,6 C 0,6 C 91 % 1000,9 hPa 0,0 l/m 14,5 km/h (3 Bft) S-SW 202 0 min 0,0 UV-I 0 W/m 0,3 C -4,8 C 17,7 km/h (3 Bft)
16.01.2023 01:04 1,6 C 0,6 C 91 % 1000,8 hPa 0,0 l/m 11,3 km/h (2 Bft) S-SW 202 0 min 0,0 UV-I 0 W/m 0,3 C -2,7 C 14,5 km/h (3 Bft)
16.01.2023 01:05 1,6 C 0,6 C 91 % 1000,8 hPa 0,0 l/m 9,7 km/h (2 Bft) S 180 0 min 0,0 UV-I 0 W/m 0,3 C -1,4 C 16,1 km/h (3 Bft)
16.01.2023 01:06 1,6 C 0,6 C 91 % 1000,8 hPa 0,0 l/m 9,7 km/h (2 Bft) S-SO 157 0 min 0,0 UV-I 0 W/m 0,3 C -1,4 C 12,9 km/h (3 Bft)
16.01.2023 01:07 1,5 C 0,6 C 91 % 1000,8 hPa 0,0 l/m 6,4 km/h (2 Bft) S 180 0 min 0,0 UV-I 0 W/m 0,2 C 1,5 C 8,0 km/h (2 Bft)
16.01.2023 01:08 1,5 C 0,6 C 91 % 1000,9 hPa 0,0 l/m 8,0 km/h (2 Bft) S 180 0 min 0,0 UV-I 0 W/m 0,2 C -0,1 C 14,5 km/h (3 Bft)
16.01.2023 01:09 1,4 C 0,6 C 91 % 1000,7 hPa 0,0 l/m 9,7 km/h (2 Bft) S 180 0 min 0,0 UV-I 0 W/m 0,1 C -1,7 C 12,9 km/h (3 Bft)
16.01.2023 01:10 1,4 C 0,6 C 91 % 1000,7 hPa 0,0 l/m 9,7 km/h (2 Bft) S-SO 157 0 min 0,0 UV-I 0 W/m 0,1 C -1,7 C 19,3 km/h (3 Bft)
16.01.2023 01:11 1,4 C 0,0 C 91 % 1000,7 hPa 0,0 l/m 9,7 km/h (2 Bft) S 180 0 min 0,0 UV-I 0 W/m 0,1 C -1,7 C 16,1 km/h (3 Bft)
16.01.2023 01:12 1,3 C 0,0 C 91 % 1000,7 hPa 0,0 l/m 11,3 km/h (2 Bft) S 180 0 min 0,0 UV-I 0 W/m -0,0 C -3,0 C 19,3 km/h (3 Bft)
16.01.2023 01:13 1,3 C 0,6 C 91 % 1000,7 hPa 0,0 l/m 9,7 km/h (2 Bft) S 180 0 min 0,0 UV-I 0 W/m -0,0 C -1,8 C 12,9 km/h (3 Bft)
16.01.2023 01:14 1,3 C 0,0 C 91 % 1000,6 hPa 0,0 l/m 9,7 km/h (2 Bft) S 180 0 min 0,0 UV-I 0 W/m -0,0 C -1,8 C 14,5 km/h (3 Bft)
16.01.2023 01:15 1,3 C 0,6 C 91 % 1000,7 hPa 0,2 l/m 8,0 km/h (2 Bft) S 180 0 min 0,0 UV-I 0 W/m -0,0 C -0,3 C 11,3 km/h (2 Bft)
16.01.2023 01:16 1,2 C 0,6 C 91 % 1000,6 hPa 0,0 l/m 8,0 km/h (2 Bft) S 180 0 min 0,0 UV-I 0 W/m -0,1 C -0,4 C 9,7 km/h (2 Bft)
16.01.2023 01:17 1,3 C 0,6 C 91 % 1000,6 hPa 0,0 l/m 11,3 km/h (2 Bft) S 180 0 min 0,0 UV-I 0 W/m -0,0 C -3,0 C 14,5 km/h (3 Bft)
16.01.2023 01:18 1,3 C 0,6 C 91 % 1000,5 hPa 0,0 l/m 12,9 km/h (3 Bft) S-SW 202 0 min 0,0 UV-I 0 W/m -0,0 C -4,1 C 16,1 km/h (3 Bft)
16.01.2023 01:19 1,3 C 0,6 C 91 % 1000,6 hPa 0,0 l/m 14,5 km/h (3 Bft) S 180 0 min 0,0 UV-I 0 W/m -0,0 C -5,1 C 17,7 km/h (3 Bft)
16.01.2023 01:20 1,3 C 0,6 C 91 % 1000,5 hPa 0,0 l/m 9,7 km/h (2 Bft) S 180 0 min 0,0 UV-I 0 W/m -0,0 C -1,8 C 16,1 km/h (3 Bft)
16.01.2023 01:21 1,3 C 0,6 C 91 % 1000,5 hPa 0,0 l/m 11,3 km/h (2 Bft) S 180 0 min 0,0 UV-I 0 W/m -0,0 C -3,0 C 16,1 km/h (3 Bft)
16.01.2023 01:22 1,3 C 0,6 C 91 % 1000,4 hPa 0,0 l/m 12,9 km/h (3 Bft) S-SW 202 0 min 0,0 UV-I 0 W/m -0,0 C -4,1 C 17,7 km/h (3 Bft)
16.01.2023 01:23 1,3 C 0,6 C 91 % 1000,4 hPa 0,0 l/m 12,9 km/h (3 Bft) S 180 0 min 0,0 UV-I 0 W/m -0,0 C -4,1 C 22,5 km/h (4 Bft)
16.01.2023 01:24 1,3 C 0,6 C 91 % 1000,3 hPa 0,0 l/m 14,5 km/h (3 Bft) S 180 0 min 0,0 UV-I 0 W/m -0,0 C -5,1 C 19,3 km/h (3 Bft)
16.01.2023 01:25 1,3 C 0,6 C 91 % 1000,3 hPa 0,0 l/m 12,9 km/h (3 Bft) S-SW 202 0 min 0,0 UV-I 0 W/m -0,0 C -4,1 C 20,9 km/h (4 Bft)
16.01.2023 01:26 1,3 C 0,6 C 91 % 1000,3 hPa 0,0 l/m 14,5 km/h (3 Bft) S 180 0 min 0,0 UV-I 0 W/m -0,0 C -5,1 C 17,7 km/h (3 Bft)
16.01.2023 01:27 1,3 C 0,6 C 91 % 1000,3 hPa 0,0 l/m 11,3 km/h (2 Bft) S 180 0 min 0,0 UV-I 0 W/m -0,0 C -3,0 C 17,7 km/h (3 Bft)
16.01.2023 01:28 1,3 C 0,6 C 91 % 1000,2 hPa 0,2 l/m 6,4 km/h (2 Bft) S 180 0 min 0,0 UV-I 0 W/m -0,0 C 1,3 C 9,7 km/h (2 Bft)
16.01.2023 01:29 1,3 C 0,6 C 91 % 1000,3 hPa 0,0 l/m 11,3 km/h (2 Bft) S 180 0 min 0,0 UV-I 0 W/m -0,0 C -3,0 C 16,1 km/h (3 Bft)
16.01.2023 01:30 1,3 C 0,6 C 91 % 1000,2 hPa 0,0 l/m 12,9 km/h (3 Bft) S 180 0 min 0,0 UV-I 0 W/m -0,0 C -4,1 C 17,7 km/h (3 Bft)
16.01.2023 01:31 1,4 C 0,6 C 91 % 1000,2 hPa 0,0 l/m 12,9 km/h (3 Bft) S-SW 202 0 min 0,0 UV-I 0 W/m 0,1 C -4,0 C 17,7 km/h (3 Bft)
16.01.2023 01:32 1,4 C 0,6 C 91 % 1000,2 hPa 0,0 l/m 12,9 km/h (3 Bft) S-SO 157 0 min 0,0 UV-I 0 W/m 0,1 C -4,0 C 16,1 km/h (3 Bft)
16.01.2023 01:33 1,4 C 0,6 C 91 % 1000,1 hPa 0,0 l/m 11,3 km/h (2 Bft) S 180 0 min 0,0 UV-I 0 W/m 0,1 C -2,9 C 19,3 km/h (3 Bft)
16.01.2023 01:34 1,4 C 0,6 C 91 % 1000,1 hPa 0,0 l/m 14,5 km/h (3 Bft) S-SO 157 0 min 0,0 UV-I 0 W/m 0,1 C -5,0 C 27,4 km/h (4 Bft)
16.01.2023 01:35 1,4 C 1,1 C 91 % 1000,0 hPa 0,0 l/m 16,1 km/h (3 Bft) S 180 0 min 0,0 UV-I 0 W/m 0,1 C -5,9 C 25,7 km/h (4 Bft)
16.01.2023 01:36 1,4 C 1,1 C 91 % 1000,0 hPa 0,0 l/m 12,9 km/h (3 Bft) S 180 0 min 0,0 UV-I 0 W/m 0,1 C -4,0 C 17,7 km/h (3 Bft)
16.01.2023 01:37 1,4 C 1,1 C 91 % 1000,0 hPa 0,0 l/m 16,1 km/h (3 Bft) S 180 0 min 0,0 UV-I 0 W/m 0,1 C -5,9 C 22,5 km/h (4 Bft)
16.01.2023 01:38 1,5 C 1,1 C 91 % 1000,0 hPa 0,0 l/m 12,9 km/h (3 Bft) S-SO 157 0 min 0,0 UV-I 0 W/m 0,2 C -3,9 C 19,3 km/h (3 Bft)
16.01.2023 01:39 1,5 C 1,1 C 91 % 1000,0 hPa 0,0 l/m 20,9 km/h (4 Bft) S 180 0 min 0,0 UV-I 0 W/m 0,2 C -8,1 C 30,6 km/h (5 Bft)
16.01.2023 01:40 1,6 C 1,1 C 91 % 1000,0 hPa 0,2 l/m 17,7 km/h (3 Bft) S-SO 157 0 min 0,0 UV-I 0 W/m 0,3 C -6,5 C 25,7 km/h (4 Bft)
16.01.2023 01:41 1,6 C 1,1 C 92 % 1000,0 hPa 0,0 l/m 14,5 km/h (3 Bft) S 180 0 min 0,0 UV-I 0 W/m 0,4 C -4,8 C 19,3 km/h (3 Bft)
16.01.2023 01:42 1,6 C 1,1 C 92 % 1000,0 hPa 0,0 l/m 12,9 km/h (3 Bft) S 180 0 min 0,0 UV-I 0 W/m 0,4 C -3,8 C 17,7 km/h (3 Bft)
16.01.2023 01:43 1,6 C 1,1 C 92 % 1000,0 hPa 0,0 l/m 16,1 km/h (3 Bft) S 180 0 min 0,0 UV-I 0 W/m 0,4 C -5,7 C 24,1 km/h (4 Bft)
16.01.2023 01:44 1,7 C 1,1 C 92 % 999,9 hPa 0,0 l/m 20,9 km/h (4 Bft) S 180 0 min 0,0 UV-I 0 W/m 0,5 C -7,8 C 29,0 km/h (5 Bft)
16.01.2023 01:45 1,7 C 1,1 C 92 % 999,9 hPa 0,0 l/m 20,9 km/h (4 Bft) S 180 0 min 0,0 UV-I 0 W/m 0,5 C -7,8 C 30,6 km/h (5 Bft)
16.01.2023 01:46 1,7 C 1,1 C 92 % 999,9 hPa 0,0 l/m 16,1 km/h (3 Bft) S 180 0 min 0,0 UV-I 0 W/m 0,5 C -5,5 C 29,0 km/h (5 Bft)
16.01.2023 01:47 1,7 C 1,1 C 92 % 999,8 hPa 0,0 l/m 12,9 km/h (3 Bft) S 180 0 min 0,0 UV-I 0 W/m 0,5 C -3,6 C 24,1 km/h (4 Bft)
16.01.2023 01:48 1,8 C 1,1 C 91 % 999,9 hPa 0,0 l/m 19,3 km/h (3 Bft) S 180 0 min 0,0 UV-I 0 W/m 0,5 C -7,0 C 24,1 km/h (4 Bft)
16.01.2023 01:49 1,8 C 1,1 C 91 % 999,7 hPa 0,0 l/m 16,1 km/h (3 Bft) S-SW 202 0 min 0,0 UV-I 0 W/m 0,5 C -5,4 C 20,9 km/h (4 Bft)
16.01.2023 01:50 1,8 C 1,1 C 91 % 999,9 hPa 0,0 l/m 16,1 km/h (3 Bft) S-SO 157 0 min 0,0 UV-I 0 W/m 0,5 C -5,4 C 24,1 km/h (4 Bft)
16.01.2023 01:51 1,8 C 1,1 C 91 % 999,7 hPa 0,0 l/m 14,5 km/h (3 Bft) S 180 0 min 0,0 UV-I 0 W/m 0,5 C -4,5 C 20,9 km/h (4 Bft)
16.01.2023 01:52 1,8 C 1,1 C 91 % 999,8 hPa 0,0 l/m 17,7 km/h (3 Bft) S 180 0 min 0,0 UV-I 0 W/m 0,5 C -6,2 C 24,1 km/h (4 Bft)
16.01.2023 01:53 1,9 C 1,1 C 91 % 999,7 hPa 0,0 l/m 14,5 km/h (3 Bft) S 180 0 min 0,0 UV-I 0 W/m 0,6 C -4,4 C 19,3 km/h (3 Bft)
16.01.2023 01:54 1,9 C 1,1 C 91 % 999,6 hPa 0,2 l/m 14,5 km/h (3 Bft) S-SO 157 0 min 0,0 UV-I 0 W/m 0,6 C -4,4 C 24,1 km/h (4 Bft)
16.01.2023 01:55 1,9 C 1,1 C 91 % 999,7 hPa 0,0 l/m 17,7 km/h (3 Bft) S 180 0 min 0,0 UV-I 0 W/m 0,6 C -6,1 C 24,1 km/h (4 Bft)
16.01.2023 01:56 1,9 C 1,1 C 91 % 999,7 hPa 0,0 l/m 20,9 km/h (4 Bft) S 180 0 min 0,0 UV-I 0 W/m 0,6 C -7,6 C 30,6 km/h (5 Bft)
16.01.2023 01:57 1,9 C 1,1 C 92 % 999,7 hPa 0,0 l/m 19,3 km/h (3 Bft) S 180 0 min 0,0 UV-I 0 W/m 0,7 C -6,9 C 35,4 km/h (5 Bft)
16.01.2023 01:58 1,9 C 1,1 C 92 % 999,7 hPa 0,0 l/m 14,5 km/h (3 Bft) S 180 0 min 0,0 UV-I 0 W/m 0,7 C -4,4 C 17,7 km/h (3 Bft)
16.01.2023 01:59 2,1 C 1,1 C 92 % 999,6 hPa 0,0 l/m 16,1 km/h (3 Bft) S 180 0 min 0,0 UV-I 0 W/m 0,9 C -5,0 C 27,4 km/h (4 Bft)
16.01.2023 02:00 2,0 C 1,1 C 91 % 999,5 hPa 0,0 l/m 17,7 km/h (3 Bft) S 180 0 min 0,0 UV-I 0 W/m 0,7 C -6,0 C 24,1 km/h (4 Bft)
16.01.2023 02:01 2,0 C 1,1 C 91 % 999,5 hPa 0,0 l/m 12,9 km/h (3 Bft) S 180 0 min 0,0 UV-I 0 W/m 0,7 C -3,3 C 17,7 km/h (3 Bft)
16.01.2023 02:02 2,0 C 1,1 C 91 % 999,6 hPa 0,0 l/m 17,7 km/h (3 Bft) S 180 0 min 0,0 UV-I 0 W/m 0,7 C -6,0 C 30,6 km/h (5 Bft)
16.01.2023 02:03 2,1 C 1,1 C 91 % 999,5 hPa 0,0 l/m 20,9 km/h (4 Bft) S 180 0 min 0,0 UV-I 0 W/m 0,8 C -7,3 C 30,6 km/h (5 Bft)
16.01.2023 02:04 2,1 C 1,7 C 91 % 999,5 hPa 0,0 l/m 20,9 km/h (4 Bft) S 180 0 min 0,0 UV-I 0 W/m 0,8 C -7,3 C 30,6 km/h (5 Bft)
16.01.2023 02:05 2,1 C 1,7 C 91 % 999,6 hPa 0,0 l/m 20,9 km/h (4 Bft) S 180 0 min 0,0 UV-I 0 W/m 0,8 C -7,3 C 30,6 km/h (5 Bft)
16.01.2023 02:06 2,1 C 1,7 C 91 % 999,5 hPa 0,0 l/m 17,7 km/h (3 Bft) S-SO 157 0 min 0,0 UV-I 0 W/m 0,8 C -5,9 C 27,4 km/h (4 Bft)
16.01.2023 02:07 2,1 C 1,7 C 91 % 999,5 hPa 0,0 l/m 19,3 km/h (3 Bft) S 180 0 min 0,0 UV-I 0 W/m 0,8 C -6,6 C 30,6 km/h (5 Bft)
16.01.2023 02:08 2,1 C 1,7 C 91 % 999,4 hPa 0,0 l/m 19,3 km/h (3 Bft) S 180 0 min 0,0 UV-I 0 W/m 0,8 C -6,6 C 27,4 km/h (4 Bft)
16.01.2023 02:09 2,1 C 1,7 C 91 % 999,5 hPa 0,0 l/m 16,1 km/h (3 Bft) S 180 0 min 0,0 UV-I 0 W/m 0,8 C -5,0 C 22,5 km/h (4 Bft)
16.01.2023 02:10 2,1 C 1,7 C 91 % 999,4 hPa 0,0 l/m 14,5 km/h (3 Bft) S-SW 202 0 min 0,0 UV-I 0 W/m 0,8 C -4,2 C 22,5 km/h (4 Bft)
16.01.2023 02:11 2,2 C 1,7 C 91 % 999,4 hPa 0,0 l/m 17,7 km/h (3 Bft) S 180 0 min 0,0 UV-I 0 W/m 0,9 C -5,7 C 24,1 km/h (4 Bft)
16.01.2023 02:12 2,1 C 1,7 C 91 % 999,5 hPa 0,0 l/m 16,1 km/h (3 Bft) S 180 0 min 0,0 UV-I 0 W/m 0,8 C -5,0 C 25,7 km/h (4 Bft)
16.01.2023 02:13 2,2 C 1,7 C 91 % 999,4 hPa 0,0 l/m 22,5 km/h (4 Bft) S 180 0 min 0,0 UV-I 0 W/m 0,9 C -7,8 C 32,2 km/h (5 Bft)
16.01.2023 02:14 2,2 C 1,7 C 91 % 999,4 hPa 0,0 l/m 20,9 km/h (4 Bft) S 180 0 min 0,0 UV-I 0 W/m 0,9 C -7,2 C 27,4 km/h (4 Bft)
16.01.2023 02:15 2,2 C 1,7 C 91 % 999,4 hPa 0,0 l/m 27,4 km/h (4 Bft) S 180 0 min 0,0 UV-I 0 W/m 0,9 C -9,5 C 41,8 km/h (6 Bft)
16.01.2023 02:16 2,2 C 1,7 C 91 % 999,3 hPa 0,0 l/m 24,1 km/h (4 Bft) S 180 0 min 0,0 UV-I 0 W/m 0,9 C -8,4 C 35,4 km/h (5 Bft)
16.01.2023 02:17 2,2 C 1,7 C 91 % 999,2 hPa 0,0 l/m 19,3 km/h (3 Bft) S 180 0 min 0,0 UV-I 0 W/m 0,9 C -6,5 C 38,6 km/h (5 Bft)
16.01.2023 02:18 2,3 C 1,7 C 91 % 999,3 hPa 0,0 l/m 19,3 km/h (3 Bft) S 180 0 min 0,0 UV-I 0 W/m 1,0 C -6,4 C 27,4 km/h (4 Bft)
16.01.2023 02:19 2,3 C 1,7 C 91 % 999,3 hPa 0,0 l/m 22,5 km/h (4 Bft) S 180 0 min 0,0 UV-I 0 W/m 1,0 C -7,7 C 33,8 km/h (5 Bft)
16.01.2023 02:20 2,3 C 1,7 C 91 % 999,2 hPa 0,0 l/m 22,5 km/h (4 Bft) S 180 0 min 0,0 UV-I 0 W/m 1,0 C -7,7 C 30,6 km/h (5 Bft)
16.01.2023 02:21 2,3 C 1,7 C 91 % 999,2 hPa 0,0 l/m 19,3 km/h (3 Bft) S-SW 202 0 min 0,0 UV-I 0 W/m 1,0 C -6,4 C 33,8 km/h (5 Bft)
16.01.2023 02:22 2,3 C 1,7 C 91 % 999,2 hPa 0,0 l/m 17,7 km/h (3 Bft) S 180 0 min 0,0 UV-I 0 W/m 1,0 C -5,6 C 27,4 km/h (4 Bft)
16.01.2023 02:23 2,3 C 1,7 C 91 % 999,1 hPa 0,0 l/m 20,9 km/h (4 Bft) S 180 0 min 0,0 UV-I 0 W/m 1,0 C -7,0 C 29,0 km/h (5 Bft)
16.01.2023 02:24 2,3 C 1,7 C 91 % 999,2 hPa 0,0 l/m 19,3 km/h (3 Bft) S 180 0 min 0,0 UV-I 0 W/m 1,0 C -6,4 C 32,2 km/h (5 Bft)
16.01.2023 02:25 2,3 C 1,7 C 91 % 999,1 hPa 0,0 l/m 19,3 km/h (3 Bft) S 180 0 min 0,0 UV-I 0 W/m 1,0 C -6,4 C 27,4 km/h (4 Bft)
16.01.2023 02:26 2,3 C 1,7 C 91 % 999,1 hPa 0,0 l/m 27,4 km/h (4 Bft) S-SW 202 0 min 0,0 UV-I 0 W/m 1,0 C -9,4 C 35,4 km/h (5 Bft)
16.01.2023 02:27 2,4 C 1,7 C 91 % 999,1 hPa 0,0 l/m 30,6 km/h (5 Bft) S 180 0 min 0,0 UV-I 0 W/m 1,1 C -10,2 C 46,7 km/h (6 Bft)
16.01.2023 02:28 2,4 C 1,7 C 91 % 999,0 hPa 0,0 l/m 22,5 km/h (4 Bft) S-SW 202 0 min 0,0 UV-I 0 W/m 1,1 C -7,6 C 40,2 km/h (6 Bft)
16.01.2023 02:29 2,4 C 1,7 C 91 % 999,0 hPa 0,0 l/m 20,9 km/h (4 Bft) S 180 0 min 0,0 UV-I 0 W/m 1,1 C -6,9 C 35,4 km/h (5 Bft)
16.01.2023 02:30 2,4 C 1,7 C 91 % 999,0 hPa 0,0 l/m 27,4 km/h (4 Bft) S 180 0 min 0,0 UV-I 0 W/m 1,1 C -9,3 C 38,6 km/h (5 Bft)
16.01.2023 02:31 2,4 C 1,7 C 91 % 999,0 hPa 0,0 l/m 22,5 km/h (4 Bft) SW 225 0 min 0,0 UV-I 0 W/m 1,1 C -7,6 C 29,0 km/h (5 Bft)
16.01.2023 02:32 2,4 C 1,7 C 90 % 999,0 hPa 0,0 l/m 17,7 km/h (3 Bft) S 180 0 min 0,0 UV-I 0 W/m 0,9 C -5,5 C 25,7 km/h (4 Bft)
16.01.2023 02:33 2,4 C 1,7 C 90 % 998,9 hPa 0,0 l/m 19,3 km/h (3 Bft) S 180 0 min 0,0 UV-I 0 W/m 0,9 C -6,2 C 25,7 km/h (4 Bft)
16.01.2023 02:34 2,4 C 1,7 C 90 % 999,0 hPa 0,0 l/m 16,1 km/h (3 Bft) S 180 0 min 0,0 UV-I 0 W/m 0,9 C -4,7 C 22,5 km/h (4 Bft)
16.01.2023 02:35 2,4 C 1,7 C 90 % 998,8 hPa 0,0 l/m 19,3 km/h (3 Bft) S 180 0 min 0,0 UV-I 0 W/m 0,9 C -6,2 C 30,6 km/h (5 Bft)
16.01.2023 02:36 2,4 C 1,7 C 90 % 998,9 hPa 0,0 l/m 20,9 km/h (4 Bft) S 180 0 min 0,0 UV-I 0 W/m 0,9 C -6,9 C 30,6 km/h (5 Bft)
16.01.2023 02:37 2,3 C 1,7 C 90 % 998,9 hPa 0,0 l/m 19,3 km/h (3 Bft) S 180 0 min 0,0 UV-I 0 W/m 0,8 C -6,4 C 27,4 km/h (4 Bft)
16.01.2023 02:38 2,3 C 1,7 C 90 % 998,8 hPa 0,0 l/m 20,9 km/h (4 Bft) S 180 0 min 0,0 UV-I 0 W/m 0,8 C -7,0 C 32,2 km/h (5 Bft)
16.01.2023 02:39 2,3 C 1,7 C 90 % 998,8 hPa 0,0 l/m 16,1 km/h (3 Bft) S 180 0 min 0,0 UV-I 0 W/m 0,8 C -4,8 C 24,1 km/h (4 Bft)
16.01.2023 02:40 2,3 C 1,7 C 90 % 998,8 hPa 0,0 l/m 19,3 km/h (3 Bft) S 180 0 min 0,0 UV-I 0 W/m 0,8 C -6,4 C 29,0 km/h (5 Bft)
16.01.2023 02:41 2,3 C 1,7 C 90 % 998,8 hPa 0,0 l/m 19,3 km/h (3 Bft) S-SO 157 0 min 0,0 UV-I 0 W/m 0,8 C -6,4 C 30,6 km/h (5 Bft)
16.01.2023 02:42 2,3 C 1,7 C 90 % 998,8 hPa 0,0 l/m 16,1 km/h (3 Bft) SO 135 0 min 0,0 UV-I 0 W/m 0,8 C -4,8 C 22,5 km/h (4 Bft)
16.01.2023 02:43 2,3 C 1,1 C 90 % 998,6 hPa 0,0 l/m 16,1 km/h (3 Bft) S 180 0 min 0,0 UV-I 0 W/m 0,8 C -4,8 C 27,4 km/h (4 Bft)
16.01.2023 02:44 2,2 C 1,1 C 90 % 998,8 hPa 0,0 l/m 17,7 km/h (3 Bft) S 180 0 min 0,0 UV-I 0 W/m 0,7 C -5,7 C 24,1 km/h (4 Bft)
16.01.2023 02:45 2,2 C 1,1 C 90 % 998,7 hPa 0,0 l/m 16,1 km/h (3 Bft) S 180 0 min 0,0 UV-I 0 W/m 0,7 C -4,9 C 32,2 km/h (5 Bft)
16.01.2023 02:46 2,2 C 1,1 C 90 % 998,8 hPa 0,0 l/m 20,9 km/h (4 Bft) S 180 0 min 0,0 UV-I 0 W/m 0,7 C -7,2 C 33,8 km/h (5 Bft)
16.01.2023 02:47 2,2 C 1,1 C 90 % 998,7 hPa 0,0 l/m 20,9 km/h (4 Bft) S 180 0 min 0,0 UV-I 0 W/m 0,7 C -7,2 C 29,0 km/h (5 Bft)
16.01.2023 02:48 2,2 C 1,1 C 90 % 998,7 hPa 0,0 l/m 20,9 km/h (4 Bft) S 180 0 min 0,0 UV-I 0 W/m 0,7 C -7,2 C 33,8 km/h (5 Bft)
16.01.2023 02:49 2,1 C 1,1 C 90 % 998,7 hPa 0,0 l/m 22,5 km/h (4 Bft) S 180 0 min 0,0 UV-I 0 W/m 0,6 C -8,0 C 32,2 km/h (5 Bft)
16.01.2023 02:50 2,1 C 1,1 C 90 % 998,6 hPa 0,2 l/m 22,5 km/h (4 Bft) S 180 0 min 0,0 UV-I 0 W/m 0,6 C -8,0 C 37,0 km/h (5 Bft)
16.01.2023 02:51 2,1 C 1,1 C 90 % 998,6 hPa 0,0 l/m 20,9 km/h (4 Bft) S 180 0 min 0,0 UV-I 0 W/m 0,6 C -7,3 C 37,0 km/h (5 Bft)
16.01.2023 02:52 2,1 C 1,1 C 90 % 998,5 hPa 0,0 l/m 17,7 km/h (3 Bft) S 180 0 min 0,0 UV-I 0 W/m 0,6 C -5,9 C 27,4 km/h (4 Bft)
16.01.2023 02:53 2,1 C 1,1 C 90 % 998,4 hPa 0,0 l/m 14,5 km/h (3 Bft) S 180 0 min 0,0 UV-I 0 W/m 0,6 C -4,2 C 22,5 km/h (4 Bft)
16.01.2023 02:54 2,1 C 1,1 C 90 % 998,5 hPa 0,0 l/m 16,1 km/h (3 Bft) S 180 0 min 0,0 UV-I 0 W/m 0,6 C -5,0 C 29,0 km/h (5 Bft)
16.01.2023 02:55 2,1 C 1,1 C 90 % 998,4 hPa 0,0 l/m 14,5 km/h (3 Bft) S 180 0 min 0,0 UV-I 0 W/m 0,6 C -4,2 C 27,4 km/h (4 Bft)
16.01.2023 02:56 2,1 C 1,1 C 90 % 998,4 hPa 0,0 l/m 17,7 km/h (3 Bft) S 180 0 min 0,0 UV-I 0 W/m 0,6 C -5,9 C 25,7 km/h (4 Bft)
16.01.2023 02:57 2,1 C 1,7 C 90 % 998,4 hPa 0,0 l/m 19,3 km/h (3 Bft) S 180 0 min 0,0 UV-I 0 W/m 0,6 C -6,6 C 32,2 km/h (5 Bft)
16.01.2023 02:58 2,2 C 1,7 C 90 % 998,4 hPa 0,0 l/m 22,5 km/h (4 Bft) S 180 0 min 0,0 UV-I 0 W/m 0,7 C -7,8 C 33,8 km/h (5 Bft)
16.01.2023 02:59 2,2 C 1,7 C 90 % 998,4 hPa 0,0 l/m 20,9 km/h (4 Bft) S 180 0 min 0,0 UV-I 0 W/m 0,7 C -7,2 C 30,6 km/h (5 Bft)
16.01.2023 03:00 2,2 C 1,7 C 90 % 998,4 hPa 0,0 l/m 20,9 km/h (4 Bft) S-SW 202 0 min 0,0 UV-I 0 W/m 0,7 C -7,2 C 30,6 km/h (5 Bft)
16.01.2023 03:01 2,2 C 1,7 C 90 % 998,3 hPa 0,0 l/m 16,1 km/h (3 Bft) S 180 0 min 0,0 UV-I 0 W/m 0,7 C -4,9 C 24,1 km/h (4 Bft)
16.01.2023 03:02 2,2 C 1,7 C 90 % 998,3 hPa 0,0 l/m 20,9 km/h (4 Bft) S 180 0 min 0,0 UV-I 0 W/m 0,7 C -7,2 C 30,6 km/h (5 Bft)
16.01.2023 03:03 2,2 C 1,7 C 90 % 998,3 hPa 0,0 l/m 22,5 km/h (4 Bft) S 180 0 min 0,0 UV-I 0 W/m 0,7 C -7,8 C 33,8 km/h (5 Bft)
16.01.2023 03:04 2,2 C 1,7 C 90 % 998,2 hPa 0,0 l/m 20,9 km/h (4 Bft) S 180 0 min 0,0 UV-I 0 W/m 0,7 C -7,2 C 29,0 km/h (5 Bft)
16.01.2023 03:05 2,2 C 1,7 C 90 % 998,3 hPa 0,0 l/m 25,7 km/h (4 Bft) S 180 0 min 0,0 UV-I 0 W/m 0,7 C -9,0 C 37,0 km/h (5 Bft)
16.01.2023 03:06 2,2 C 1,1 C 90 % 998,3 hPa 0,0 l/m 20,9 km/h (4 Bft) S 180 0 min 0,0 UV-I 0 W/m 0,7 C -7,2 C 29,0 km/h (5 Bft)
16.01.2023 03:07 2,2 C 1,1 C 90 % 998,1 hPa 0,0 l/m 17,7 km/h (3 Bft) S-SO 157 0 min 0,0 UV-I 0 W/m 0,7 C -5,7 C 27,4 km/h (4 Bft)
16.01.2023 03:08 2,2 C 1,1 C 90 % 998,2 hPa 0,0 l/m 20,9 km/h (4 Bft) S 180 0 min 0,0 UV-I 0 W/m 0,7 C -7,2 C 29,0 km/h (5 Bft)
16.01.2023 03:09 2,2 C 1,1 C 90 % 998,1 hPa 0,0 l/m 19,3 km/h (3 Bft) S 180 0 min 0,0 UV-I 0 W/m 0,7 C -6,5 C 27,4 km/h (4 Bft)
16.01.2023 03:10 2,1 C 1,1 C 90 % 998,1 hPa 0,0 l/m 14,5 km/h (3 Bft) S-SW 202 0 min 0,0 UV-I 0 W/m 0,6 C -4,2 C 19,3 km/h (3 Bft)
16.01.2023 03:11 2,1 C 1,1 C 90 % 998,1 hPa 0,0 l/m 17,7 km/h (3 Bft) S-SW 202 0 min 0,0 UV-I 0 W/m 0,6 C -5,9 C 27,4 km/h (4 Bft)
16.01.2023 03:12 2,1 C 1,1 C 90 % 998,0 hPa 0,0 l/m 16,1 km/h (3 Bft) S 180 0 min 0,0 UV-I 0 W/m 0,6 C -5,0 C 20,9 km/h (4 Bft)
16.01.2023 03:13 2,1 C 1,1 C 90 % 998,1 hPa 0,0 l/m 16,1 km/h (3 Bft) S 180 0 min 0,0 UV-I 0 W/m 0,6 C -5,0 C 25,7 km/h (4 Bft)
16.01.2023 03:14 2,1 C 1,1 C 90 % 998,0 hPa 0,0 l/m 14,5 km/h (3 Bft) S 180 0 min 0,0 UV-I 0 W/m 0,6 C -4,2 C 19,3 km/h (3 Bft)
16.01.2023 03:15 2,1 C 1,1 C 90 % 998,0 hPa 0,0 l/m 16,1 km/h (3 Bft) S 180 0 min 0,0 UV-I 0 W/m 0,6 C -5,0 C 25,7 km/h (4 Bft)
16.01.2023 03:16 2,1 C 1,1 C 90 % 997,9 hPa 0,0 l/m 14,5 km/h (3 Bft) S 180 0 min 0,0 UV-I 0 W/m 0,6 C -4,2 C 19,3 km/h (3 Bft)
16.01.2023 03:17 2,1 C 1,1 C 90 % 997,9 hPa 0,0 l/m 16,1 km/h (3 Bft) S 180 0 min 0,0 UV-I 0 W/m 0,6 C -5,0 C 20,9 km/h (4 Bft)
16.01.2023 03:18 2,1 C 1,1 C 90 % 998,0 hPa 0,0 l/m 11,3 km/h (2 Bft) S-SO 157 0 min 0,0 UV-I 0 W/m 0,6 C -2,1 C 22,5 km/h (4 Bft)
16.01.2023 03:19 2,1 C 1,1 C 90 % 998,0 hPa 0,0 l/m 12,9 km/h (3 Bft) S 180 0 min 0,0 UV-I 0 W/m 0,6 C -3,2 C 16,1 km/h (3 Bft)
16.01.2023 03:20 2,1 C 1,1 C 90 % 997,9 hPa 0,0 l/m 17,7 km/h (3 Bft) S 180 0 min 0,0 UV-I 0 W/m 0,6 C -5,9 C 24,1 km/h (4 Bft)
16.01.2023 03:21 2,1 C 1,1 C 90 % 997,9 hPa 0,0 l/m 16,1 km/h (3 Bft) S 180 0 min 0,0 UV-I 0 W/m 0,6 C -5,0 C 22,5 km/h (4 Bft)
16.01.2023 03:22 2,1 C 1,1 C 90 % 997,9 hPa 0,0 l/m 17,7 km/h (3 Bft) S 180 0 min 0,0 UV-I 0 W/m 0,6 C -5,9 C 27,4 km/h (4 Bft)
16.01.2023 03:23 2,1 C 1,7 C 90 % 997,9 hPa 0,0 l/m 19,3 km/h (3 Bft) S 180 0 min 0,0 UV-I 0 W/m 0,6 C -6,6 C 25,7 km/h (4 Bft)
16.01.2023 03:24 2,2 C 1,7 C 90 % 997,8 hPa 0,0 l/m 17,7 km/h (3 Bft) S-SO 157 0 min 0,0 UV-I 0 W/m 0,7 C -5,7 C 27,4 km/h (4 Bft)
16.01.2023 03:25 2,2 C 1,7 C 90 % 997,7 hPa 0,0 l/m 16,1 km/h (3 Bft) S 180 0 min 0,0 UV-I 0 W/m 0,7 C -4,9 C 22,5 km/h (4 Bft)
16.01.2023 03:26 2,2 C 1,7 C 90 % 997,7 hPa 0,0 l/m 14,5 km/h (3 Bft) S-SO 157 0 min 0,0 UV-I 0 W/m 0,7 C -4,0 C 19,3 km/h (3 Bft)
16.01.2023 03:27 2,2 C 1,7 C 90 % 997,7 hPa 0,0 l/m 12,9 km/h (3 Bft) S 180 0 min 0,0 UV-I 0 W/m 0,7 C -3,1 C 17,7 km/h (3 Bft)
16.01.2023 03:28 2,2 C 1,7 C 90 % 997,7 hPa 0,0 l/m 16,1 km/h (3 Bft) S-SO 157 0 min 0,0 UV-I 0 W/m 0,7 C -4,9 C 24,1 km/h (4 Bft)
16.01.2023 03:29 2,2 C 1,7 C 90 % 997,7 hPa 0,0 l/m 22,5 km/h (4 Bft) S-SO 157 0 min 0,0 UV-I 0 W/m 0,7 C -7,8 C 32,2 km/h (5 Bft)
16.01.2023 03:30 2,2 C 1,7 C 90 % 997,5 hPa 0,0 l/m 14,5 km/h (3 Bft) S-SO 157 0 min 0,0 UV-I 0 W/m 0,7 C -4,0 C 24,1 km/h (4 Bft)
16.01.2023 03:31 2,2 C 1,7 C 90 % 997,6 hPa 0,0 l/m 14,5 km/h (3 Bft) S 180 0 min 0,0 UV-I 0 W/m 0,7 C -4,0 C 22,5 km/h (4 Bft)
16.01.2023 03:32 2,2 C 1,7 C 90 % 997,5 hPa 0,2 l/m 16,1 km/h (3 Bft) S 180 0 min 0,0 UV-I 0 W/m 0,7 C -4,9 C 29,0 km/h (5 Bft)
16.01.2023 03:33 2,2 C 1,7 C 90 % 997,5 hPa 0,0 l/m 9,7 km/h (2 Bft) S-SO 157 0 min 0,0 UV-I 0 W/m 0,7 C -0,8 C 14,5 km/h (3 Bft)
16.01.2023 03:34 2,2 C 1,7 C 90 % 997,4 hPa 0,0 l/m 12,9 km/h (3 Bft) S 180 0 min 0,0 UV-I 0 W/m 0,7 C -3,1 C 19,3 km/h (3 Bft)
16.01.2023 03:35 2,2 C 1,7 C 90 % 997,4 hPa 0,0 l/m 16,1 km/h (3 Bft) S 180 0 min 0,0 UV-I 0 W/m 0,7 C -4,9 C 24,1 km/h (4 Bft)
16.01.2023 03:36 2,2 C 1,1 C 90 % 997,4 hPa 0,0 l/m 16,1 km/h (3 Bft) S-SO 157 0 min 0,0 UV-I 0 W/m 0,7 C -4,9 C 24,1 km/h (4 Bft)
16.01.2023 03:37 2,2 C 1,1 C 90 % 997,3 hPa 0,0 l/m 16,1 km/h (3 Bft) S 180 0 min 0,0 UV-I 0 W/m 0,7 C -4,9 C 20,9 km/h (4 Bft)
16.01.2023 03:38 2,2 C 1,1 C 90 % 997,3 hPa 0,0 l/m 12,9 km/h (3 Bft) S 180 0 min 0,0 UV-I 0 W/m 0,7 C -3,1 C 16,1 km/h (3 Bft)
16.01.2023 03:39 2,1 C 1,1 C 90 % 997,3 hPa 0,0 l/m 14,5 km/h (3 Bft) S 180 0 min 0,0 UV-I 0 W/m 0,6 C -4,2 C 22,5 km/h (4 Bft)
16.01.2023 03:40 2,1 C 1,1 C 90 % 997,3 hPa 0,0 l/m 14,5 km/h (3 Bft) S 180 0 min 0,0 UV-I 0 W/m 0,6 C -4,2 C 17,7 km/h (3 Bft)
16.01.2023 03:41 2,1 C 1,1 C 90 % 997,3 hPa 0,0 l/m 17,7 km/h (3 Bft) S 180 0 min 0,0 UV-I 0 W/m 0,6 C -5,9 C 22,5 km/h (4 Bft)
16.01.2023 03:42 2,2 C 1,1 C 90 % 997,2 hPa 0,0 l/m 16,1 km/h (3 Bft) S 180 0 min 0,0 UV-I 0 W/m 0,7 C -4,9 C 24,1 km/h (4 Bft)
16.01.2023 03:43 2,2 C 1,1 C 90 % 997,2 hPa 0,0 l/m 16,1 km/h (3 Bft) S 180 0 min 0,0 UV-I 0 W/m 0,7 C -4,9 C 20,9 km/h (4 Bft)
16.01.2023 03:44 2,1 C 1,1 C 90 % 997,1 hPa 0,0 l/m 11,3 km/h (2 Bft) S-SO 157 0 min 0,0 UV-I 0 W/m 0,6 C -2,1 C 17,7 km/h (3 Bft)
16.01.2023 03:45 2,1 C 1,1 C 90 % 997,1 hPa 0,0 l/m 20,9 km/h (4 Bft) S-SO 157 0 min 0,0 UV-I 0 W/m 0,6 C -7,3 C 29,0 km/h (5 Bft)
16.01.2023 03:46 2,1 C 1,1 C 90 % 997,0 hPa 0,0 l/m 14,5 km/h (3 Bft) S 180 0 min 0,0 UV-I 0 W/m 0,6 C -4,2 C 32,2 km/h (5 Bft)
16.01.2023 03:47 2,1 C 1,1 C 90 % 997,0 hPa 0,0 l/m 24,1 km/h (4 Bft) S 180 0 min 0,0 UV-I 0 W/m 0,6 C -8,6 C 33,8 km/h (5 Bft)
16.01.2023 03:48 2,1 C 1,7 C 90 % 997,0 hPa 0,0 l/m 16,1 km/h (3 Bft) S 180 0 min 0,0 UV-I 0 W/m 0,6 C -5,0 C 22,5 km/h (4 Bft)
16.01.2023 03:49 2,1 C 1,7 C 90 % 996,9 hPa 0,0 l/m 17,7 km/h (3 Bft) S 180 0 min 0,0 UV-I 0 W/m 0,6 C -5,9 C 24,1 km/h (4 Bft)
16.01.2023 03:50 2,1 C 1,7 C 90 % 997,0 hPa 0,0 l/m 17,7 km/h (3 Bft) S-SO 157 0 min 0,0 UV-I 0 W/m 0,6 C -5,9 C 25,7 km/h (4 Bft)
16.01.2023 03:51 2,1 C 1,7 C 90 % 996,9 hPa 0,0 l/m 20,9 km/h (4 Bft) S 180 0 min 0,0 UV-I 0 W/m 0,6 C -7,3 C 27,4 km/h (4 Bft)
16.01.2023 03:52 2,1 C 1,7 C 90 % 996,9 hPa 0,0 l/m 19,3 km/h (3 Bft) S 180 0 min 0,0 UV-I 0 W/m 0,6 C -6,6 C 27,4 km/h (4 Bft)
16.01.2023 03:53 2,2 C 1,1 C 90 % 996,9 hPa 0,0 l/m 16,1 km/h (3 Bft) SO 135 0 min 0,0 UV-I 0 W/m 0,7 C -4,9 C 20,9 km/h (4 Bft)
16.01.2023 03:54 2,2 C 1,1 C 90 % 996,7 hPa 0,0 l/m 22,5 km/h (4 Bft) S-SW 202 0 min 0,0 UV-I 0 W/m 0,7 C -7,8 C 29,0 km/h (5 Bft)
16.01.2023 03:55 2,1 C 1,1 C 90 % 996,8 hPa 0,0 l/m 16,1 km/h (3 Bft) S-SW 202 0 min 0,0 UV-I 0 W/m 0,6 C -5,0 C 22,5 km/h (4 Bft)
16.01.2023 03:56 2,2 C 1,1 C 90 % 996,8 hPa 0,0 l/m 19,3 km/h (3 Bft) S 180 0 min 0,0 UV-I 0 W/m 0,7 C -6,5 C 32,2 km/h (5 Bft)
16.01.2023 03:57 2,1 C 1,1 C 90 % 996,8 hPa 0,0 l/m 22,5 km/h (4 Bft) S 180 0 min 0,0 UV-I 0 W/m 0,6 C -8,0 C 33,8 km/h (5 Bft)
16.01.2023 03:58 2,1 C 1,7 C 90 % 996,7 hPa 0,0 l/m 20,9 km/h (4 Bft) S-SO 157 0 min 0,0 UV-I 0 W/m 0,6 C -7,3 C 29,0 km/h (5 Bft)
16.01.2023 03:59 2,2 C 1,7 C 90 % 996,8 hPa 0,0 l/m 20,9 km/h (4 Bft) S-SO 157 0 min 0,0 UV-I 0 W/m 0,7 C -7,2 C 25,7 km/h (4 Bft)
16.01.2023 04:00 2,2 C 1,7 C 90 % 996,7 hPa 0,0 l/m 17,7 km/h (3 Bft) S 180 0 min 0,0 UV-I 0 W/m 0,7 C -5,7 C 30,6 km/h (5 Bft)
16.01.2023 04:01 2,2 C 1,7 C 90 % 996,7 hPa 0,0 l/m 17,7 km/h (3 Bft) S 180 0 min 0,0 UV-I 0 W/m 0,7 C -5,7 C 24,1 km/h (4 Bft)
16.01.2023 04:02 2,2 C 1,7 C 90 % 996,7 hPa 0,0 l/m 14,5 km/h (3 Bft) S 180 0 min 0,0 UV-I 0 W/m 0,7 C -4,0 C 24,1 km/h (4 Bft)
16.01.2023 04:03 2,2 C 1,7 C 90 % 996,7 hPa 0,0 l/m 11,3 km/h (2 Bft) S 180 0 min 0,0 UV-I 0 W/m 0,7 C -2,0 C 16,1 km/h (3 Bft)
16.01.2023 04:04 2,2 C 1,7 C 90 % 996,6 hPa 0,0 l/m 14,5 km/h (3 Bft) S-SO 157 0 min 0,0 UV-I 0 W/m 0,7 C -4,0 C 22,5 km/h (4 Bft)
16.01.2023 04:05 2,2 C 1,7 C 90 % 996,5 hPa 0,0 l/m 16,1 km/h (3 Bft) S 180 0 min 0,0 UV-I 0 W/m 0,7 C -4,9 C 25,7 km/h (4 Bft)
16.01.2023 04:06 2,2 C 1,7 C 90 % 996,5 hPa 0,0 l/m 17,7 km/h (3 Bft) S 180 0 min 0,0 UV-I 0 W/m 0,7 C -5,7 C 27,4 km/h (4 Bft)
16.01.2023 04:07 2,2 C 1,7 C 90 % 996,6 hPa 0,0 l/m 17,7 km/h (3 Bft) S 180 0 min 0,0 UV-I 0 W/m 0,7 C -5,7 C 24,1 km/h (4 Bft)
16.01.2023 04:08 2,2 C 1,7 C 90 % 996,5 hPa 0,0 l/m 12,9 km/h (3 Bft) S-SO 157 0 min 0,0 UV-I 0 W/m 0,7 C -3,1 C 24,1 km/h (4 Bft)
16.01.2023 04:09 2,2 C 1,7 C 90 % 996,4 hPa 0,0 l/m 17,7 km/h (3 Bft) SO 135 0 min 0,0 UV-I 0 W/m 0,7 C -5,7 C 24,1 km/h (4 Bft)
16.01.2023 04:10 2,2 C 1,1 C 90 % 996,2 hPa 0,0 l/m 19,3 km/h (3 Bft) SO 135 0 min 0,0 UV-I 0 W/m 0,7 C -6,5 C 24,1 km/h (4 Bft)
16.01.2023 04:11 2,2 C 1,1 C 90 % 996,2 hPa 0,0 l/m 17,7 km/h (3 Bft) SO 135 0 min 0,0 UV-I 0 W/m 0,7 C -5,7 C 22,5 km/h (4 Bft)
16.01.2023 04:12 2,2 C 1,1 C 90 % 996,2 hPa 0,0 l/m 17,7 km/h (3 Bft) SO 135 0 min 0,0 UV-I 0 W/m 0,7 C -5,7 C 25,7 km/h (4 Bft)
16.01.2023 04:13 2,2 C 1,1 C 90 % 996,2 hPa 0,0 l/m 19,3 km/h (3 Bft) S-SO 157 0 min 0,0 UV-I 0 W/m 0,7 C -6,5 C 30,6 km/h (5 Bft)
16.01.2023 04:14 2,2 C 1,1 C 90 % 996,2 hPa 0,0 l/m 19,3 km/h (3 Bft) S 180 0 min 0,0 UV-I 0 W/m 0,7 C -6,5 C 27,4 km/h (4 Bft)
16.01.2023 04:15 2,2 C 1,1 C 90 % 996,1 hPa 0,0 l/m 14,5 km/h (3 Bft) S 180 0 min 0,0 UV-I 0 W/m 0,7 C -4,0 C 17,7 km/h (3 Bft)
16.01.2023 04:16 2,1 C 1,1 C 90 % 996,0 hPa 0,0 l/m 11,3 km/h (2 Bft) S-SO 157 0 min 0,0 UV-I 0 W/m 0,6 C -2,1 C 22,5 km/h (4 Bft)
16.01.2023 04:17 2,2 C 1,1 C 90 % 996,2 hPa 0,0 l/m 16,1 km/h (3 Bft) S 180 0 min 0,0 UV-I 0 W/m 0,7 C -4,9 C 22,5 km/h (4 Bft)
16.01.2023 04:18 2,1 C 1,1 C 90 % 996,0 hPa 0,0 l/m 12,9 km/h (3 Bft) S-SO 157 0 min 0,0 UV-I 0 W/m 0,6 C -3,2 C 19,3 km/h (3 Bft)
16.01.2023 04:19 2,2 C 1,1 C 90 % 996,1 hPa 0,0 l/m 17,7 km/h (3 Bft) S-SO 157 0 min 0,0 UV-I 0 W/m 0,7 C -5,7 C 25,7 km/h (4 Bft)
16.01.2023 04:20 2,2 C 1,1 C 90 % 996,0 hPa 0,0 l/m 14,5 km/h (3 Bft) S-SO 157 0 min 0,0 UV-I 0 W/m 0,7 C -4,0 C 19,3 km/h (3 Bft)
16.01.2023 04:21 2,2 C 1,1 C 90 % 995,9 hPa 0,0 l/m 17,7 km/h (3 Bft) S-SO 157 0 min 0,0 UV-I 0 W/m 0,7 C -5,7 C 24,1 km/h (4 Bft)
16.01.2023 04:22 2,2 C 1,7 C 90 % 995,8 hPa 0,0 l/m 11,3 km/h (2 Bft) S-SO 157 0 min 0,0 UV-I 0 W/m 0,7 C -2,0 C 14,5 km/h (3 Bft)
16.01.2023 04:23 2,2 C 1,7 C 90 % 996,0 hPa 0,0 l/m 12,9 km/h (3 Bft) S 180 0 min 0,0 UV-I 0 W/m 0,7 C -3,1 C 33,8 km/h (5 Bft)
16.01.2023 04:24 2,2 C 1,7 C 90 % 995,9 hPa 0,0 l/m 19,3 km/h (3 Bft) S 180 0 min 0,0 UV-I 0 W/m 0,7 C -6,5 C 25,7 km/h (4 Bft)
16.01.2023 04:25 2,1 C 1,7 C 90 % 995,9 hPa 0,0 l/m 17,7 km/h (3 Bft) SO 135 0 min 0,0 UV-I 0 W/m 0,6 C -5,9 C 24,1 km/h (4 Bft)
16.01.2023 04:26 2,2 C 1,7 C 90 % 995,8 hPa 0,0 l/m 14,5 km/h (3 Bft) S-SO 157 0 min 0,0 UV-I 0 W/m 0,7 C -4,0 C 19,3 km/h (3 Bft)
16.01.2023 04:27 2,2 C 1,7 C 90 % 995,8 hPa 0,0 l/m 17,7 km/h (3 Bft) S 180 0 min 0,0 UV-I 0 W/m 0,7 C -5,7 C 32,2 km/h (5 Bft)
16.01.2023 04:28 2,2 C 1,7 C 90 % 995,8 hPa 0,0 l/m 19,3 km/h (3 Bft) S 180 0 min 0,0 UV-I 0 W/m 0,7 C -6,5 C 33,8 km/h (5 Bft)
16.01.2023 04:29 2,2 C 1,7 C 90 % 995,8 hPa 0,0 l/m 17,7 km/h (3 Bft) S 180 0 min 0,0 UV-I 0 W/m 0,7 C -5,7 C 35,4 km/h (5 Bft)
16.01.2023 04:30 2,1 C 1,7 C 90 % 995,7 hPa 0,0 l/m 19,3 km/h (3 Bft) S-SO 157 0 min 0,0 UV-I 0 W/m 0,6 C -6,6 C 30,6 km/h (5 Bft)
16.01.2023 04:31 2,2 C 1,1 C 90 % 995,7 hPa 0,0 l/m 25,7 km/h (4 Bft) S-SO 157 0 min 0,0 UV-I 0 W/m 0,7 C -9,0 C 37,0 km/h (5 Bft)
16.01.2023 04:32 2,2 C 1,1 C 90 % 995,6 hPa 0,0 l/m 22,5 km/h (4 Bft) S-SO 157 0 min 0,0 UV-I 0 W/m 0,7 C -7,8 C 33,8 km/h (5 Bft)
16.01.2023 04:33 2,2 C 1,1 C 90 % 995,7 hPa 0,0 l/m 24,1 km/h (4 Bft) S-SO 157 0 min 0,0 UV-I 0 W/m 0,7 C -8,4 C 35,4 km/h (5 Bft)
16.01.2023 04:34 2,2 C 1,1 C 90 % 995,7 hPa 0,0 l/m 25,7 km/h (4 Bft) S 180 0 min 0,0 UV-I 0 W/m 0,7 C -9,0 C 38,6 km/h (5 Bft)
16.01.2023 04:35 2,2 C 1,1 C 90 % 995,5 hPa 0,0 l/m 16,1 km/h (3 Bft) SO 135 0 min 0,0 UV-I 0 W/m 0,7 C -4,9 C 24,1 km/h (4 Bft)
16.01.2023 04:36 2,1 C 1,1 C 90 % 995,6 hPa 0,0 l/m 16,1 km/h (3 Bft) S 180 0 min 0,0 UV-I 0 W/m 0,6 C -5,0 C 22,5 km/h (4 Bft)
16.01.2023 04:37 2,2 C 1,1 C 90 % 995,5 hPa 0,0 l/m 17,7 km/h (3 Bft) S-SO 157 0 min 0,0 UV-I 0 W/m 0,7 C -5,7 C 27,4 km/h (4 Bft)
16.01.2023 04:38 2,2 C 1,1 C 90 % 995,5 hPa 0,0 l/m 14,5 km/h (3 Bft) S 180 0 min 0,0 UV-I 0 W/m 0,7 C -4,0 C 22,5 km/h (4 Bft)
16.01.2023 04:39 2,1 C 1,1 C 90 % 995,4 hPa 0,0 l/m 17,7 km/h (3 Bft) S-SO 157 0 min 0,0 UV-I 0 W/m 0,6 C -5,9 C 27,4 km/h (4 Bft)
16.01.2023 04:40 2,1 C 1,1 C 90 % 995,3 hPa 0,0 l/m 20,9 km/h (4 Bft) S 180 0 min 0,0 UV-I 0 W/m 0,6 C -7,3 C 27,4 km/h (4 Bft)
16.01.2023 04:41 2,2 C 1,1 C 90 % 995,3 hPa 0,0 l/m 14,5 km/h (3 Bft) S-SO 157 0 min 0,0 UV-I 0 W/m 0,7 C -4,0 C 22,5 km/h (4 Bft)
16.01.2023 04:42 2,2 C 1,1 C 90 % 995,2 hPa 0,0 l/m 17,7 km/h (3 Bft) S-SO 157 0 min 0,0 UV-I 0 W/m 0,7 C -5,7 C 25,7 km/h (4 Bft)
16.01.2023 04:43 2,1 C 1,1 C 90 % 995,2 hPa 0,0 l/m 12,9 km/h (3 Bft) S-SO 157 0 min 0,0 UV-I 0 W/m 0,6 C -3,2 C 19,3 km/h (3 Bft)
16.01.2023 04:44 2,1 C 1,1 C 90 % 995,2 hPa 0,0 l/m 17,7 km/h (3 Bft) S 180 0 min 0,0 UV-I 0 W/m 0,6 C -5,9 C 29,0 km/h (5 Bft)
16.01.2023 04:45 2,1 C 1,1 C 90 % 995,3 hPa 0,0 l/m 24,1 km/h (4 Bft) S-SO 157 0 min 0,0 UV-I 0 W/m 0,6 C -8,6 C 35,4 km/h (5 Bft)
16.01.2023 04:46 2,1 C 1,1 C 90 % 995,2 hPa 0,0 l/m 19,3 km/h (3 Bft) S-SO 157 0 min 0,0 UV-I 0 W/m 0,6 C -6,6 C 27,4 km/h (4 Bft)
16.01.2023 04:47 2,1 C 1,1 C 90 % 995,1 hPa 0,0 l/m 16,1 km/h (3 Bft) S-SO 157 0 min 0,0 UV-I 0 W/m 0,6 C -5,0 C 20,9 km/h (4 Bft)
16.01.2023 04:48 2,1 C 1,7 C 90 % 994,9 hPa 0,0 l/m 17,7 km/h (3 Bft) SO 135 0 min 0,0 UV-I 0 W/m 0,6 C -5,9 C 27,4 km/h (4 Bft)
16.01.2023 04:49 2,1 C 1,7 C 90 % 995,0 hPa 0,0 l/m 12,9 km/h (3 Bft) SO 135 0 min 0,0 UV-I 0 W/m 0,6 C -3,2 C 27,4 km/h (4 Bft)
16.01.2023 04:50 2,1 C 1,7 C 90 % 994,8 hPa 0,0 l/m 20,9 km/h (4 Bft) S 180 0 min 0,0 UV-I 0 W/m 0,6 C -7,3 C 30,6 km/h (5 Bft)
16.01.2023 04:51 2,1 C 1,7 C 90 % 994,9 hPa 0,0 l/m 14,5 km/h (3 Bft) S-SO 157 0 min 0,0 UV-I 0 W/m 0,6 C -4,2 C 22,5 km/h (4 Bft)
16.01.2023 04:52 2,1 C 1,7 C 90 % 994,8 hPa 0,0 l/m 17,7 km/h (3 Bft) S-SO 157 0 min 0,0 UV-I 0 W/m 0,6 C -5,9 C 20,9 km/h (4 Bft)
16.01.2023 04:53 2,1 C 1,7 C 90 % 994,8 hPa 0,0 l/m 14,5 km/h (3 Bft) SO 135 0 min 0,0 UV-I 0 W/m 0,6 C -4,2 C 20,9 km/h (4 Bft)
16.01.2023 04:54 2,1 C 1,7 C 90 % 994,8 hPa 0,0 l/m 16,1 km/h (3 Bft) S 180 0 min 0,0 UV-I 0 W/m 0,6 C -5,0 C 22,5 km/h (4 Bft)
16.01.2023 04:55 2,1 C 1,7 C 90 % 994,7 hPa 0,0 l/m 12,9 km/h (3 Bft) S 180 0 min 0,0 UV-I 0 W/m 0,6 C -3,2 C 17,7 km/h (3 Bft)
16.01.2023 04:56 2,1 C 1,7 C 90 % 994,6 hPa 0,0 l/m 16,1 km/h (3 Bft) S-SO 157 0 min 0,0 UV-I 0 W/m 0,6 C -5,0 C 29,0 km/h (5 Bft)
16.01.2023 04:57 2,1 C 1,7 C 90 % 994,7 hPa 0,0 l/m 17,7 km/h (3 Bft) S 180 0 min 0,0 UV-I 0 W/m 0,6 C -5,9 C 25,7 km/h (4 Bft)
16.01.2023 04:58 2,1 C 1,7 C 90 % 994,6 hPa 0,0 l/m 24,1 km/h (4 Bft) S 180 0 min 0,0 UV-I 0 W/m 0,6 C -8,6 C 33,8 km/h (5 Bft)
16.01.2023 04:59 2,1 C 1,7 C 90 % 994,6 hPa 0,0 l/m 16,1 km/h (3 Bft) S 180 0 min 0,0 UV-I 0 W/m 0,6 C -5,0 C 29,0 km/h (5 Bft)
16.01.2023 05:00 2,1 C 1,7 C 90 % 994,5 hPa 0,0 l/m 14,5 km/h (3 Bft) S-SO 157 0 min 0,0 UV-I 0 W/m 0,6 C -4,2 C 22,5 km/h (4 Bft)
16.01.2023 05:01 2,1 C 1,7 C 90 % 994,6 hPa 0,0 l/m 19,3 km/h (3 Bft) S-SO 157 0 min 0,0 UV-I 0 W/m 0,6 C -6,6 C 29,0 km/h (5 Bft)
16.01.2023 05:02 2,1 C 1,7 C 90 % 994,5 hPa 0,0 l/m 12,9 km/h (3 Bft) SO 135 0 min 0,0 UV-I 0 W/m 0,6 C -3,2 C 17,7 km/h (3 Bft)
16.01.2023 05:03 2,1 C 1,7 C 90 % 994,5 hPa 0,0 l/m 16,1 km/h (3 Bft) S-SO 157 0 min 0,0 UV-I 0 W/m 0,6 C -5,0 C 22,5 km/h (4 Bft)
16.01.2023 05:04 2,1 C 1,7 C 90 % 994,5 hPa 0,0 l/m 20,9 km/h (4 Bft) S-SO 157 0 min 0,0 UV-I 0 W/m 0,6 C -7,3 C 30,6 km/h (5 Bft)
16.01.2023 05:05 2,1 C 1,7 C 90 % 994,4 hPa 0,0 l/m 19,3 km/h (3 Bft) S-SO 157 0 min 0,0 UV-I 0 W/m 0,6 C -6,6 C 24,1 km/h (4 Bft)
16.01.2023 05:06 2,1 C 1,7 C 90 % 994,4 hPa 0,0 l/m 11,3 km/h (2 Bft) SO 135 0 min 0,0 UV-I 0 W/m 0,6 C -2,1 C 16,1 km/h (3 Bft)
16.01.2023 05:07 2,1 C 1,7 C 90 % 994,4 hPa 0,0 l/m 12,9 km/h (3 Bft) SO 135 0 min 0,0 UV-I 0 W/m 0,6 C -3,2 C 19,3 km/h (3 Bft)
16.01.2023 05:08 2,1 C 1,7 C 90 % 994,3 hPa 0,0 l/m 11,3 km/h (2 Bft) S-SO 157 0 min 0,0 UV-I 0 W/m 0,6 C -2,1 C 17,7 km/h (3 Bft)
16.01.2023 05:09 2,1 C 1,7 C 90 % 994,3 hPa 0,0 l/m 12,9 km/h (3 Bft) S 180 0 min 0,0 UV-I 0 W/m 0,6 C -3,2 C 20,9 km/h (4 Bft)
16.01.2023 05:10 2,1 C 1,7 C 90 % 994,2 hPa 0,0 l/m 16,1 km/h (3 Bft) S-SO 157 0 min 0,0 UV-I 0 W/m 0,6 C -5,0 C 20,9 km/h (4 Bft)
16.01.2023 05:11 2,1 C 1,7 C 90 % 994,3 hPa 0,0 l/m 19,3 km/h (3 Bft) SO 135 0 min 0,0 UV-I 0 W/m 0,6 C -6,6 C 25,7 km/h (4 Bft)
16.01.2023 05:12 2,1 C 1,7 C 90 % 994,3 hPa 0,0 l/m 14,5 km/h (3 Bft) S-SO 157 0 min 0,0 UV-I 0 W/m 0,6 C -4,2 C 20,9 km/h (4 Bft)
16.01.2023 05:13 2,1 C 1,7 C 90 % 994,2 hPa 0,0 l/m 20,9 km/h (4 Bft) S-SO 157 0 min 0,0 UV-I 0 W/m 0,6 C -7,3 C 33,8 km/h (5 Bft)
16.01.2023 05:14 2,1 C 1,7 C 90 % 994,2 hPa 0,0 l/m 17,7 km/h (3 Bft) SO 135 0 min 0,0 UV-I 0 W/m 0,6 C -5,9 C 25,7 km/h (4 Bft)
16.01.2023 05:15 2,1 C 1,7 C 90 % 994,2 hPa 0,0 l/m 22,5 km/h (4 Bft) S-SO 157 0 min 0,0 UV-I 0 W/m 0,6 C -8,0 C 30,6 km/h (5 Bft)
16.01.2023 05:16 2,1 C 1,7 C 90 % 994,1 hPa 0,0 l/m 19,3 km/h (3 Bft) SO 135 0 min 0,0 UV-I 0 W/m 0,6 C -6,6 C 29,0 km/h (5 Bft)
16.01.2023 05:17 2,1 C 1,7 C 90 % 994,1 hPa 0,0 l/m 17,7 km/h (3 Bft) SO 135 0 min 0,0 UV-I 0 W/m 0,6 C -5,9 C 25,7 km/h (4 Bft)
16.01.2023 05:18 2,1 C 1,7 C 90 % 994,1 hPa 0,0 l/m 16,1 km/h (3 Bft) S-SO 157 0 min 0,0 UV-I 0 W/m 0,6 C -5,0 C 24,1 km/h (4 Bft)
16.01.2023 05:19 2,1 C 1,7 C 90 % 994,1 hPa 0,0 l/m 17,7 km/h (3 Bft) S-SO 157 0 min 0,0 UV-I 0 W/m 0,6 C -5,9 C 24,1 km/h (4 Bft)
16.01.2023 05:20 2,1 C 1,7 C 90 % 994,0 hPa 0,0 l/m 16,1 km/h (3 Bft) SO 135 0 min 0,0 UV-I 0 W/m 0,6 C -5,0 C 19,3 km/h (3 Bft)
16.01.2023 05:21 2,1 C 1,7 C 90 % 994,0 hPa 0,0 l/m 20,9 km/h (4 Bft) SO 135 0 min 0,0 UV-I 0 W/m 0,6 C -7,3 C 29,0 km/h (5 Bft)
16.01.2023 05:22 2,1 C 1,7 C 90 % 994,0 hPa 0,0 l/m 20,9 km/h (4 Bft) S-SO 157 0 min 0,0 UV-I 0 W/m 0,6 C -7,3 C 30,6 km/h (5 Bft)
16.01.2023 05:23 2,1 C 1,7 C 90 % 993,8 hPa 0,0 l/m 17,7 km/h (3 Bft) SO 135 0 min 0,0 UV-I 0 W/m 0,6 C -5,9 C 27,4 km/h (4 Bft)
16.01.2023 05:24 2,1 C 1,7 C 90 % 993,8 hPa 0,0 l/m 12,9 km/h (3 Bft) SO 135 0 min 0,0 UV-I 0 W/m 0,6 C -3,2 C 17,7 km/h (3 Bft)
16.01.2023 05:25 2,1 C 1,7 C 90 % 993,7 hPa 0,0 l/m 16,1 km/h (3 Bft) S-SO 157 0 min 0,0 UV-I 0 W/m 0,6 C -5,0 C 22,5 km/h (4 Bft)
16.01.2023 05:26 2,1 C 1,7 C 90 % 993,7 hPa 0,0 l/m 17,7 km/h (3 Bft) SO 135 0 min 0,0 UV-I 0 W/m 0,6 C -5,9 C 29,0 km/h (5 Bft)
16.01.2023 05:27 2,1 C 1,7 C 90 % 993,7 hPa 0,0 l/m 19,3 km/h (3 Bft) SO 135 0 min 0,0 UV-I 0 W/m 0,6 C -6,6 C 25,7 km/h (4 Bft)
16.01.2023 05:28 2,1 C 1,7 C 90 % 993,7 hPa 0,0 l/m 14,5 km/h (3 Bft) SO 135 0 min 0,0 UV-I 0 W/m 0,6 C -4,2 C 20,9 km/h (4 Bft)
16.01.2023 05:29 2,1 C 1,7 C 90 % 993,6 hPa 0,0 l/m 12,9 km/h (3 Bft) SO 135 0 min 0,0 UV-I 0 W/m 0,6 C -3,2 C 17,7 km/h (3 Bft)
16.01.2023 05:30 2,1 C 1,7 C 90 % 993,6 hPa 0,0 l/m 17,7 km/h (3 Bft) S-SO 157 0 min 0,0 UV-I 0 W/m 0,6 C -5,9 C 27,4 km/h (4 Bft)
16.01.2023 05:31 2,1 C 1,7 C 90 % 993,6 hPa 0,0 l/m 16,1 km/h (3 Bft) S-SO 157 0 min 0,0 UV-I 0 W/m 0,6 C -5,0 C 25,7 km/h (4 Bft)
16.01.2023 05:32 2,1 C 1,7 C 90 % 993,6 hPa 0,0 l/m 17,7 km/h (3 Bft) SO 135 0 min 0,0 UV-I 0 W/m 0,6 C -5,9 C 25,7 km/h (4 Bft)
16.01.2023 05:33 2,1 C 1,7 C 90 % 993,5 hPa 0,0 l/m 16,1 km/h (3 Bft) S-SO 157 0 min 0,0 UV-I 0 W/m 0,6 C -5,0 C 25,7 km/h (4 Bft)
16.01.2023 05:34 2,1 C 1,7 C 90 % 993,6 hPa 0,0 l/m 12,9 km/h (3 Bft) S-SO 157 0 min 0,0 UV-I 0 W/m 0,6 C -3,2 C 20,9 km/h (4 Bft)
16.01.2023 05:35 2,1 C 1,7 C 90 % 993,5 hPa 0,0 l/m 12,9 km/h (3 Bft) S 180 0 min 0,0 UV-I 0 W/m 0,6 C -3,2 C 25,7 km/h (4 Bft)
16.01.2023 05:36 2,1 C 1,7 C 90 % 993,5 hPa 0,0 l/m 12,9 km/h (3 Bft) S-SO 157 0 min 0,0 UV-I 0 W/m 0,6 C -3,2 C 19,3 km/h (3 Bft)
16.01.2023 05:37 2,1 C 1,7 C 90 % 993,5 hPa 0,0 l/m 16,1 km/h (3 Bft) SO 135 0 min 0,0 UV-I 0 W/m 0,6 C -5,0 C 24,1 km/h (4 Bft)
16.01.2023 05:38 2,1 C 1,7 C 90 % 993,5 hPa 0,0 l/m 9,7 km/h (2 Bft) SO 135 0 min 0,0 UV-I 0 W/m 0,6 C -0,9 C 16,1 km/h (3 Bft)
16.01.2023 05:39 2,1 C 1,7 C 90 % 993,4 hPa 0,0 l/m 9,7 km/h (2 Bft) S-SO 157 0 min 0,0 UV-I 0 W/m 0,6 C -0,9 C 12,9 km/h (3 Bft)
16.01.2023 05:40 2,1 C 1,7 C 90 % 993,3 hPa 0,0 l/m 16,1 km/h (3 Bft) S 180 0 min 0,0 UV-I 0 W/m 0,6 C -5,0 C 22,5 km/h (4 Bft)
16.01.2023 05:41 2,1 C 1,7 C 90 % 993,2 hPa 0,0 l/m 20,9 km/h (4 Bft) S-SO 157 0 min 0,0 UV-I 0 W/m 0,6 C -7,3 C 30,6 km/h (5 Bft)
16.01.2023 05:42 2,1 C 1,7 C 90 % 993,2 hPa 0,0 l/m 20,9 km/h (4 Bft) SO 135 0 min 0,0 UV-I 0 W/m 0,6 C -7,3 C 27,4 km/h (4 Bft)
16.01.2023 05:43 2,1 C 1,1 C 90 % 993,2 hPa 0,0 l/m 19,3 km/h (3 Bft) S-SO 157 0 min 0,0 UV-I 0 W/m 0,6 C -6,6 C 25,7 km/h (4 Bft)
16.01.2023 05:44 2,1 C 1,1 C 90 % 993,1 hPa 0,0 l/m 12,9 km/h (3 Bft) SO 135 0 min 0,0 UV-I 0 W/m 0,6 C -3,2 C 22,5 km/h (4 Bft)
16.01.2023 05:45 2,1 C 1,1 C 90 % 993,0 hPa 0,0 l/m 20,9 km/h (4 Bft) SO 135 0 min 0,0 UV-I 0 W/m 0,6 C -7,3 C 25,7 km/h (4 Bft)
16.01.2023 05:46 2,1 C 1,1 C 90 % 993,0 hPa 0,0 l/m 11,3 km/h (2 Bft) S-SO 157 0 min 0,0 UV-I 0 W/m 0,6 C -2,1 C 19,3 km/h (3 Bft)
16.01.2023 05:47 2,1 C 1,1 C 90 % 993,0 hPa 0,0 l/m 11,3 km/h (2 Bft) S-SO 157 0 min 0,0 UV-I 0 W/m 0,6 C -2,1 C 20,9 km/h (4 Bft)
16.01.2023 05:48 2,1 C 1,1 C 90 % 993,0 hPa 0,0 l/m 20,9 km/h (4 Bft) SO 135 0 min 0,0 UV-I 0 W/m 0,6 C -7,3 C 27,4 km/h (4 Bft)
16.01.2023 05:49 2,1 C 1,1 C 90 % 992,8 hPa 0,0 l/m 14,5 km/h (3 Bft) S-SO 157 0 min 0,0 UV-I 0 W/m 0,6 C -4,2 C 24,1 km/h (4 Bft)
16.01.2023 05:50 2,1 C 1,1 C 90 % 992,8 hPa 0,0 l/m 12,9 km/h (3 Bft) S-SO 157 0 min 0,0 UV-I 0 W/m 0,6 C -3,2 C 25,7 km/h (4 Bft)
16.01.2023 05:51 2,1 C 1,1 C 90 % 992,7 hPa 0,0 l/m 16,1 km/h (3 Bft) SO 135 0 min 0,0 UV-I 0 W/m 0,6 C -5,0 C 24,1 km/h (4 Bft)
16.01.2023 05:52 2,1 C 1,1 C 90 % 992,7 hPa 0,0 l/m 19,3 km/h (3 Bft) S 180 0 min 0,0 UV-I 0 W/m 0,6 C -6,6 C 25,7 km/h (4 Bft)
16.01.2023 05:53 2,1 C 1,1 C 90 % 992,7 hPa 0,0 l/m 11,3 km/h (2 Bft) SO 135 0 min 0,0 UV-I 0 W/m 0,6 C -2,1 C 16,1 km/h (3 Bft)
16.01.2023 05:54 2,1 C 1,1 C 90 % 992,6 hPa 0,0 l/m 16,1 km/h (3 Bft) S-SO 157 0 min 0,0 UV-I 0 W/m 0,6 C -5,0 C 24,1 km/h (4 Bft)
16.01.2023 05:55 2,1 C 1,1 C 90 % 992,7 hPa 0,0 l/m 12,9 km/h (3 Bft) S-SO 157 0 min 0,0 UV-I 0 W/m 0,6 C -3,2 C 20,9 km/h (4 Bft)
16.01.2023 05:56 2,1 C 1,1 C 90 % 992,7 hPa 0,0 l/m 11,3 km/h (2 Bft) SO 135 0 min 0,0 UV-I 0 W/m 0,6 C -2,1 C 17,7 km/h (3 Bft)
16.01.2023 05:57 2,1 C 1,1 C 90 % 992,6 hPa 0,0 l/m 14,5 km/h (3 Bft) SO 135 0 min 0,0 UV-I 0 W/m 0,6 C -4,2 C 22,5 km/h (4 Bft)
16.01.2023 05:58 2,1 C 1,1 C 90 % 992,6 hPa 0,0 l/m 12,9 km/h (3 Bft) SO 135 0 min 0,0 UV-I 0 W/m 0,6 C -3,2 C 19,3 km/h (3 Bft)
16.01.2023 05:59 2,1 C 1,7 C 90 % 992,6 hPa 0,0 l/m 11,3 km/h (2 Bft) SO 135 0 min 0,0 UV-I 0 W/m 0,6 C -2,1 C 17,7 km/h (3 Bft)
16.01.2023 06:00 2,1 C 1,7 C 90 % 992,6 hPa 0,0 l/m 19,3 km/h (3 Bft) S-SO 157 0 min 0,0 UV-I 0 W/m 0,6 C -6,6 C 29,0 km/h (5 Bft)
16.01.2023 06:01 2,1 C 1,7 C 90 % 992,4 hPa 0,0 l/m 19,3 km/h (3 Bft) SO 135 0 min 0,0 UV-I 0 W/m 0,6 C -6,6 C 30,6 km/h (5 Bft)
16.01.2023 06:02 2,1 C 1,7 C 90 % 992,4 hPa 0,0 l/m 16,1 km/h (3 Bft) SO 135 0 min 0,0 UV-I 0 W/m 0,6 C -5,0 C 20,9 km/h (4 Bft)
16.01.2023 06:03 2,1 C 1,7 C 90 % 992,4 hPa 0,0 l/m 16,1 km/h (3 Bft) SO 135 0 min 0,0 UV-I 0 W/m 0,6 C -5,0 C 25,7 km/h (4 Bft)
16.01.2023 06:04 2,1 C 1,7 C 90 % 992,3 hPa 0,0 l/m 17,7 km/h (3 Bft) S 180 0 min 0,0 UV-I 0 W/m 0,6 C -5,9 C 24,1 km/h (4 Bft)
16.01.2023 06:05 2,1 C 1,7 C 90 % 992,2 hPa 0,0 l/m 11,3 km/h (2 Bft) S-SO 157 0 min 0,0 UV-I 0 W/m 0,6 C -2,1 C 17,7 km/h (3 Bft)
16.01.2023 06:06 2,1 C 1,7 C 90 % 992,2 hPa 0,0 l/m 19,3 km/h (3 Bft) S-SO 157 0 min 0,0 UV-I 0 W/m 0,6 C -6,6 C 32,2 km/h (5 Bft)
16.01.2023 06:07 2,1 C 1,7 C 90 % 992,2 hPa 0,0 l/m 19,3 km/h (3 Bft) SO 135 0 min 0,0 UV-I 0 W/m 0,6 C -6,6 C 25,7 km/h (4 Bft)
16.01.2023 06:08 2,1 C 1,7 C 90 % 992,2 hPa 0,0 l/m 12,9 km/h (3 Bft) SO 135 0 min 0,0 UV-I 0 W/m 0,6 C -3,2 C 19,3 km/h (3 Bft)
16.01.2023 06:09 2,1 C 1,7 C 90 % 992,2 hPa 0,0 l/m 14,5 km/h (3 Bft) SO 135 0 min 0,0 UV-I 0 W/m 0,6 C -4,2 C 20,9 km/h (4 Bft)
16.01.2023 06:10 2,1 C 1,7 C 90 % 992,1 hPa 0,0 l/m 16,1 km/h (3 Bft) S-SO 157 0 min 0,0 UV-I 0 W/m 0,6 C -5,0 C 20,9 km/h (4 Bft)
16.01.2023 06:11 2,1 C 1,7 C 90 % 992,0 hPa 0,0 l/m 20,9 km/h (4 Bft) S-SO 157 0 min 0,0 UV-I 0 W/m 0,6 C -7,3 C 29,0 km/h (5 Bft)
16.01.2023 06:12 2,1 C 1,7 C 90 % 992,0 hPa 0,0 l/m 12,9 km/h (3 Bft) SO 135 0 min 0,0 UV-I 0 W/m 0,6 C -3,2 C 20,9 km/h (4 Bft)
16.01.2023 06:13 2,1 C 1,7 C 90 % 992,1 hPa 0,0 l/m 17,7 km/h (3 Bft) SO 135 0 min 0,0 UV-I 0 W/m 0,6 C -5,9 C 20,9 km/h (4 Bft)
16.01.2023 06:14 2,1 C 1,7 C 90 % 992,1 hPa 0,0 l/m 14,5 km/h (3 Bft) SO 135 0 min 0,0 UV-I 0 W/m 0,6 C -4,2 C 25,7 km/h (4 Bft)
16.01.2023 06:15 2,1 C 1,7 C 91 % 992,1 hPa 0,0 l/m 12,9 km/h (3 Bft) SO 135 0 min 0,0 UV-I 0 W/m 0,8 C -3,2 C 20,9 km/h (4 Bft)
16.01.2023 06:16 2,1 C 1,7 C 91 % 992,1 hPa 0,0 l/m 16,1 km/h (3 Bft) SO 135 0 min 0,0 UV-I 0 W/m 0,8 C -5,0 C 20,9 km/h (4 Bft)
16.01.2023 06:17 2,1 C 1,7 C 90 % 992,1 hPa 0,0 l/m 14,5 km/h (3 Bft) SO 135 0 min 0,0 UV-I 0 W/m 0,6 C -4,2 C 24,1 km/h (4 Bft)
16.01.2023 06:18 2,1 C 1,7 C 90 % 991,9 hPa 0,0 l/m 19,3 km/h (3 Bft) SO 135 0 min 0,0 UV-I 0 W/m 0,6 C -6,6 C 25,7 km/h (4 Bft)
16.01.2023 06:19 2,1 C 1,7 C 91 % 992,0 hPa 0,0 l/m 22,5 km/h (4 Bft) SO 135 0 min 0,0 UV-I 0 W/m 0,8 C -8,0 C 37,0 km/h (5 Bft)
16.01.2023 06:20 2,1 C 1,7 C 91 % 991,9 hPa 0,2 l/m 32,2 km/h (5 Bft) SO 135 0 min 0,0 UV-I 0 W/m 0,8 C -11,1 C 45,1 km/h (6 Bft)
16.01.2023 06:21 2,1 C 1,7 C 91 % 991,9 hPa 0,0 l/m 20,9 km/h (4 Bft) SO 135 0 min 0,0 UV-I 0 W/m 0,8 C -7,3 C 45,1 km/h (6 Bft)
16.01.2023 06:22 2,1 C 1,7 C 91 % 991,8 hPa 0,0 l/m 17,7 km/h (3 Bft) S-SO 157 0 min 0,0 UV-I 0 W/m 0,8 C -5,9 C 32,2 km/h (5 Bft)
16.01.2023 06:23 2,1 C 1,7 C 91 % 991,8 hPa 0,0 l/m 17,7 km/h (3 Bft) SO 135 0 min 0,0 UV-I 0 W/m 0,8 C -5,9 C 29,0 km/h (5 Bft)
16.01.2023 06:24 2,1 C 1,7 C 91 % 991,8 hPa 0,0 l/m 16,1 km/h (3 Bft) SO 135 0 min 0,0 UV-I 0 W/m 0,8 C -5,0 C 25,7 km/h (4 Bft)
16.01.2023 06:25 2,1 C 1,7 C 91 % 991,7 hPa 0,0 l/m 22,5 km/h (4 Bft) S 180 0 min 0,0 UV-I 0 W/m 0,8 C -8,0 C 35,4 km/h (5 Bft)
16.01.2023 06:26 2,1 C 1,7 C 91 % 991,7 hPa 0,0 l/m 22,5 km/h (4 Bft) S-SO 157 0 min 0,0 UV-I 0 W/m 0,8 C -8,0 C 33,8 km/h (5 Bft)
16.01.2023 06:27 2,0 C 1,7 C 91 % 991,6 hPa 0,0 l/m 20,9 km/h (4 Bft) S-SO 157 0 min 0,0 UV-I 0 W/m 0,7 C -7,4 C 29,0 km/h (5 Bft)
16.01.2023 06:28 2,0 C 1,7 C 91 % 991,6 hPa 0,0 l/m 19,3 km/h (3 Bft) S-SO 157 0 min 0,0 UV-I 0 W/m 0,7 C -6,7 C 25,7 km/h (4 Bft)
16.01.2023 06:29 2,0 C 1,7 C 91 % 991,7 hPa 0,0 l/m 16,1 km/h (3 Bft) SO 135 0 min 0,0 UV-I 0 W/m 0,7 C -5,2 C 22,5 km/h (4 Bft)
16.01.2023 06:30 2,0 C 1,7 C 91 % 991,6 hPa 0,0 l/m 22,5 km/h (4 Bft) SO 135 0 min 0,0 UV-I 0 W/m 0,7 C -8,1 C 30,6 km/h (5 Bft)
16.01.2023 06:31 2,0 C 1,7 C 91 % 991,6 hPa 0,0 l/m 20,9 km/h (4 Bft) SO 135 0 min 0,0 UV-I 0 W/m 0,7 C -7,4 C 32,2 km/h (5 Bft)
16.01.2023 06:32 2,0 C 1,7 C 91 % 991,6 hPa 0,0 l/m 22,5 km/h (4 Bft) SO 135 0 min 0,0 UV-I 0 W/m 0,7 C -8,1 C 33,8 km/h (5 Bft)
16.01.2023 06:33 2,0 C 1,7 C 91 % 991,4 hPa 0,0 l/m 24,1 km/h (4 Bft) SO 135 0 min 0,0 UV-I 0 W/m 0,7 C -8,7 C 38,6 km/h (5 Bft)
16.01.2023 06:34 2,0 C 1,7 C 91 % 991,5 hPa 0,0 l/m 24,1 km/h (4 Bft) SO 135 0 min 0,0 UV-I 0 W/m 0,7 C -8,7 C 40,2 km/h (6 Bft)
16.01.2023 06:35 1,9 C 1,7 C 91 % 991,4 hPa 0,0 l/m 22,5 km/h (4 Bft) SO 135 0 min 0,0 UV-I 0 W/m 0,6 C -8,2 C 30,6 km/h (5 Bft)
16.01.2023 06:36 1,9 C 1,7 C 91 % 991,3 hPa 0,0 l/m 17,7 km/h (3 Bft) S-SO 157 0 min 0,0 UV-I 0 W/m 0,6 C -6,1 C 25,7 km/h (4 Bft)
16.01.2023 06:37 1,9 C 1,7 C 91 % 991,3 hPa 0,0 l/m 20,9 km/h (4 Bft) SO 135 0 min 0,0 UV-I 0 W/m 0,6 C -7,6 C 30,6 km/h (5 Bft)
16.01.2023 06:38 1,9 C 1,7 C 91 % 991,4 hPa 0,0 l/m 16,1 km/h (3 Bft) SO 135 0 min 0,0 UV-I 0 W/m 0,6 C -5,3 C 22,5 km/h (4 Bft)
16.01.2023 06:39 1,9 C 1,7 C 91 % 991,2 hPa 0,0 l/m 24,1 km/h (4 Bft) S-SO 157 0 min 0,0 UV-I 0 W/m 0,6 C -8,8 C 37,0 km/h (5 Bft)
16.01.2023 06:40 1,9 C 1,7 C 91 % 991,3 hPa 0,0 l/m 22,5 km/h (4 Bft) SO 135 0 min 0,0 UV-I 0 W/m 0,6 C -8,2 C 30,6 km/h (5 Bft)
16.01.2023 06:41 1,9 C 1,7 C 91 % 991,3 hPa 0,0 l/m 14,5 km/h (3 Bft) SO 135 0 min 0,0 UV-I 0 W/m 0,6 C -4,4 C 24,1 km/h (4 Bft)
16.01.2023 06:42 1,9 C 1,7 C 91 % 991,2 hPa 0,0 l/m 14,5 km/h (3 Bft) SO 135 0 min 0,0 UV-I 0 W/m 0,6 C -4,4 C 24,1 km/h (4 Bft)
16.01.2023 06:43 2,0 C 1,7 C 91 % 991,1 hPa 0,0 l/m 19,3 km/h (3 Bft) S-SO 157 0 min 0,0 UV-I 0 W/m 0,7 C -6,7 C 27,4 km/h (4 Bft)
16.01.2023 06:44 1,9 C 1,7 C 91 % 991,1 hPa 0,0 l/m 19,3 km/h (3 Bft) SO 135 0 min 0,0 UV-I 0 W/m 0,6 C -6,9 C 25,7 km/h (4 Bft)
16.01.2023 06:45 2,0 C 1,7 C 91 % 991,0 hPa 0,0 l/m 24,1 km/h (4 Bft) O-SO 112 0 min 0,0 UV-I 0 W/m 0,7 C -8,7 C 33,8 km/h (5 Bft)
16.01.2023 06:46 1,9 C 1,7 C 91 % 990,9 hPa 0,0 l/m 24,1 km/h (4 Bft) SO 135 0 min 0,0 UV-I 0 W/m 0,6 C -8,8 C 32,2 km/h (5 Bft)
16.01.2023 06:47 1,9 C 1,7 C 91 % 991,0 hPa 0,0 l/m 25,7 km/h (4 Bft) SO 135 0 min 0,0 UV-I 0 W/m 0,6 C -9,4 C 30,6 km/h (5 Bft)
16.01.2023 06:48 1,9 C 1,7 C 91 % 991,0 hPa 0,0 l/m 24,1 km/h (4 Bft) SO 135 0 min 0,0 UV-I 0 W/m 0,6 C -8,8 C 33,8 km/h (5 Bft)
16.01.2023 06:49 1,9 C 1,7 C 91 % 990,9 hPa 0,0 l/m 27,4 km/h (4 Bft) SO 135 0 min 0,0 UV-I 0 W/m 0,6 C -9,9 C 38,6 km/h (5 Bft)
16.01.2023 06:50 2,0 C 1,7 C 91 % 990,9 hPa 0,0 l/m 20,9 km/h (4 Bft) SO 135 0 min 0,0 UV-I 0 W/m 0,7 C -7,4 C 32,2 km/h (5 Bft)
16.01.2023 06:51 1,9 C 1,7 C 91 % 990,7 hPa 0,0 l/m 20,9 km/h (4 Bft) S-SO 157 0 min 0,0 UV-I 0 W/m 0,6 C -7,6 C 32,2 km/h (5 Bft)
16.01.2023 06:52 1,9 C 1,7 C 91 % 990,6 hPa 0,0 l/m 20,9 km/h (4 Bft) SO 135 0 min 0,0 UV-I 0 W/m 0,6 C -7,6 C 24,1 km/h (4 Bft)
16.01.2023 06:53 1,9 C 1,7 C 91 % 990,7 hPa 0,0 l/m 16,1 km/h (3 Bft) SO 135 0 min 0,0 UV-I 0 W/m 0,6 C -5,3 C 19,3 km/h (3 Bft)
16.01.2023 06:54 1,9 C 1,1 C 91 % 990,6 hPa 0,0 l/m 19,3 km/h (3 Bft) SO 135 0 min 0,0 UV-I 0 W/m 0,6 C -6,9 C 30,6 km/h (5 Bft)
16.01.2023 06:55 1,9 C 1,1 C 91 % 990,6 hPa 0,0 l/m 20,9 km/h (4 Bft) SO 135 0 min 0,0 UV-I 0 W/m 0,6 C -7,6 C 27,4 km/h (4 Bft)
16.01.2023 06:56 1,9 C 1,1 C 91 % 990,6 hPa 0,0 l/m 19,3 km/h (3 Bft) SO 135 0 min 0,0 UV-I 0 W/m 0,6 C -6,9 C 37,0 km/h (5 Bft)
16.01.2023 06:57 1,9 C 1,1 C 91 % 990,4 hPa 0,0 l/m 20,9 km/h (4 Bft) SO 135 0 min 0,0 UV-I 0 W/m 0,6 C -7,6 C 35,4 km/h (5 Bft)
16.01.2023 06:58 1,9 C 1,1 C 91 % 990,4 hPa 0,0 l/m 16,1 km/h (3 Bft) SO 135 0 min 0,0 UV-I 0 W/m 0,6 C -5,3 C 24,1 km/h (4 Bft)
16.01.2023 06:59 1,9 C 1,1 C 91 % 990,3 hPa 0,0 l/m 14,5 km/h (3 Bft) SO 135 0 min 0,0 UV-I 0 W/m 0,6 C -4,4 C 19,3 km/h (3 Bft)
16.01.2023 07:00 1,9 C 1,1 C 91 % 990,3 hPa 0,0 l/m 19,3 km/h (3 Bft) SO 135 0 min 0,0 UV-I 0 W/m 0,6 C -6,9 C 37,0 km/h (5 Bft)
16.01.2023 07:01 1,9 C 1,1 C 91 % 990,2 hPa 0,0 l/m 22,5 km/h (4 Bft) SO 135 0 min 0,0 UV-I 0 W/m 0,6 C -8,2 C 33,8 km/h (5 Bft)
16.01.2023 07:02 1,9 C 1,1 C 91 % 990,2 hPa 0,0 l/m 22,5 km/h (4 Bft) SO 135 0 min 0,0 UV-I 0 W/m 0,6 C -8,2 C 30,6 km/h (5 Bft)
16.01.2023 07:03 1,9 C 1,1 C 91 % 990,2 hPa 0,0 l/m 20,9 km/h (4 Bft) O-SO 112 0 min 0,0 UV-I 0 W/m 0,6 C -7,6 C 30,6 km/h (5 Bft)
16.01.2023 07:04 1,9 C 1,1 C 91 % 990,2 hPa 0,0 l/m 19,3 km/h (3 Bft) O-SO 112 0 min 0,0 UV-I 0 W/m 0,6 C -6,9 C 29,0 km/h (5 Bft)
16.01.2023 07:05 1,9 C 1,1 C 91 % 990,1 hPa 0,0 l/m 22,5 km/h (4 Bft) SO 135 0 min 0,0 UV-I 0 W/m 0,6 C -8,2 C 30,6 km/h (5 Bft)
16.01.2023 07:06 1,9 C 1,1 C 91 % 990,0 hPa 0,0 l/m 24,1 km/h (4 Bft) SO 135 0 min 0,0 UV-I 0 W/m 0,6 C -8,8 C 30,6 km/h (5 Bft)
16.01.2023 07:07 1,9 C 1,1 C 91 % 990,1 hPa 0,0 l/m 24,1 km/h (4 Bft) SO 135 0 min 0,0 UV-I 0 W/m 0,6 C -8,8 C 41,8 km/h (6 Bft)
16.01.2023 07:08 1,9 C 1,1 C 91 % 989,9 hPa 0,0 l/m 32,2 km/h (5 Bft) S-SO 157 0 min 0,0 UV-I 0 W/m 0,6 C -11,3 C 45,1 km/h (6 Bft)
16.01.2023 07:09 1,9 C 1,1 C 91 % 990,0 hPa 0,0 l/m 32,2 km/h (5 Bft) SO 135 0 min 0,0 UV-I 0 W/m 0,6 C -11,3 C 45,1 km/h (6 Bft)
16.01.2023 07:10 1,9 C 1,7 C 91 % 989,9 hPa 0,0 l/m 29,0 km/h (5 Bft) SO 135 0 min 0,0 UV-I 0 W/m 0,6 C -10,4 C 51,5 km/h (7 Bft)
16.01.2023 07:11 1,9 C 1,1 C 91 % 990,0 hPa 0,0 l/m 20,9 km/h (4 Bft) SO 135 0 min 0,0 UV-I 0 W/m 0,6 C -7,6 C 35,4 km/h (5 Bft)
16.01.2023 07:12 1,9 C 1,1 C 91 % 989,9 hPa 0,0 l/m 20,9 km/h (4 Bft) S-SO 157 0 min 0,0 UV-I 0 W/m 0,6 C -7,6 C 32,2 km/h (5 Bft)
16.01.2023 07:13 1,9 C 1,1 C 91 % 989,9 hPa 0,0 l/m 27,4 km/h (4 Bft) S-SO 157 0 min 0,0 UV-I 0 W/m 0,6 C -9,9 C 37,0 km/h (5 Bft)
16.01.2023 07:14 1,9 C 1,1 C 91 % 989,9 hPa 0,0 l/m 25,7 km/h (4 Bft) S-SO 157 0 min 0,0 UV-I 0 W/m 0,6 C -9,4 C 33,8 km/h (5 Bft)
16.01.2023 07:15 1,9 C 1,1 C 91 % 990,0 hPa 0,0 l/m 17,7 km/h (3 Bft) SO 135 0 min 0,0 UV-I 0 W/m 0,6 C -6,1 C 30,6 km/h (5 Bft)
16.01.2023 07:16 1,9 C 1,1 C 91 % 989,9 hPa 0,0 l/m 14,5 km/h (3 Bft) SO 135 0 min 0,0 UV-I 0 W/m 0,6 C -4,4 C 24,1 km/h (4 Bft)
16.01.2023 07:17 1,9 C 1,1 C 91 % 989,8 hPa 0,0 l/m 19,3 km/h (3 Bft) S-SO 157 0 min 0,0 UV-I 0 W/m 0,6 C -6,9 C 29,0 km/h (5 Bft)
16.01.2023 07:18 1,9 C 1,1 C 90 % 989,8 hPa 0,0 l/m 22,5 km/h (4 Bft) SO 135 0 min 0,0 UV-I 0 W/m 0,4 C -8,2 C 30,6 km/h (5 Bft)
16.01.2023 07:19 1,9 C 1,1 C 90 % 990,0 hPa 0,0 l/m 29,0 km/h (5 Bft) O-SO 112 0 min 0,0 UV-I 0 W/m 0,4 C -10,4 C 41,8 km/h (6 Bft)
16.01.2023 07:20 1,9 C 1,1 C 90 % 989,8 hPa 0,0 l/m 29,0 km/h (5 Bft) SO 135 0 min 0,0 UV-I 0 W/m 0,4 C -10,4 C 45,1 km/h (6 Bft)
16.01.2023 07:21 1,9 C 1,1 C 90 % 989,6 hPa 0,0 l/m 35,4 km/h (5 Bft) SO 135 0 min 0,0 UV-I 0 W/m 0,4 C -12,1 C 48,3 km/h (6 Bft)
16.01.2023 07:22 1,9 C 1,1 C 90 % 989,5 hPa 0,0 l/m 30,6 km/h (5 Bft) SO 135 0 min 0,0 UV-I 0 W/m 0,4 C -10,9 C 48,3 km/h (6 Bft)
16.01.2023 07:23 1,9 C 1,1 C 90 % 989,7 hPa 0,0 l/m 22,5 km/h (4 Bft) SO 135 0 min 0,0 UV-I 0 W/m 0,4 C -8,2 C 32,2 km/h (5 Bft)
16.01.2023 07:24 1,8 C 1,1 C 90 % 989,7 hPa 0,0 l/m 24,1 km/h (4 Bft) SO 135 0 min 0,0 UV-I 0 W/m 0,3 C -9,0 C 33,8 km/h (5 Bft)
16.01.2023 07:25 1,8 C 1,1 C 90 % 989,6 hPa 0,0 l/m 25,7 km/h (4 Bft) S-SO 157 0 min 0,0 UV-I 0 W/m 0,3 C -9,5 C 37,0 km/h (5 Bft)
16.01.2023 07:26 1,8 C 1,1 C 90 % 989,6 hPa 0,0 l/m 27,4 km/h (4 Bft) SO 135 0 min 0,0 UV-I 0 W/m 0,3 C -10,1 C 32,2 km/h (5 Bft)
16.01.2023 07:27 1,8 C 1,1 C 90 % 989,6 hPa 0,0 l/m 24,1 km/h (4 Bft) SO 135 0 min 0,0 UV-I 0 W/m 0,3 C -9,0 C 35,4 km/h (5 Bft)
16.01.2023 07:28 1,8 C 1,1 C 90 % 989,5 hPa 0,0 l/m 20,9 km/h (4 Bft) S-SO 157 0 min 0,0 UV-I 0 W/m 0,3 C -7,7 C 29,0 km/h (5 Bft)
16.01.2023 07:29 1,8 C 0,6 C 90 % 989,5 hPa 0,0 l/m 17,7 km/h (3 Bft) SO 135 0 min 0,0 UV-I 0 W/m 0,3 C -6,2 C 25,7 km/h (4 Bft)
16.01.2023 07:30 1,7 C 0,6 C 90 % 989,5 hPa 0,0 l/m 22,5 km/h (4 Bft) SO 135 0 min 0,0 UV-I 0 W/m 0,2 C -8,5 C 37,0 km/h (5 Bft)
16.01.2023 07:31 1,7 C 0,6 C 90 % 989,4 hPa 0,0 l/m 19,3 km/h (3 Bft) SO 135 0 min 0,0 UV-I 0 W/m 0,2 C -7,1 C 35,4 km/h (5 Bft)
16.01.2023 07:32 1,7 C 0,6 C 90 % 989,4 hPa 0,0 l/m 16,1 km/h (3 Bft) S-SO 157 0 min 0,0 UV-I 0 W/m 0,2 C -5,5 C 19,3 km/h (3 Bft)
16.01.2023 07:33 1,7 C 0,6 C 90 % 989,4 hPa 0,0 l/m 24,1 km/h (4 Bft) S-SO 157 0 min 0,0 UV-I 0 W/m 0,2 C -9,1 C 43,5 km/h (6 Bft)
16.01.2023 07:34 1,6 C 0,6 C 90 % 989,4 hPa 0,0 l/m 25,7 km/h (4 Bft) SO 135 0 min 0,0 UV-I 0 W/m 0,1 C -9,8 C 35,4 km/h (5 Bft)
16.01.2023 07:35 1,6 C 0,6 C 90 % 989,2 hPa 0,0 l/m 24,1 km/h (4 Bft) SO 135 0 min 0,0 UV-I 0 W/m 0,1 C -9,2 C 32,2 km/h (5 Bft)
16.01.2023 07:36 1,6 C 0,6 C 90 % 989,2 hPa 0,0 l/m 20,9 km/h (4 Bft) SO 135 0 min 0,0 UV-I 0 W/m 0,1 C -8,0 C 38,6 km/h (5 Bft)
16.01.2023 07:37 1,6 C 0,0 C 90 % 989,4 hPa 0,0 l/m 33,8 km/h (5 Bft) SO 135 0 min 0,0 UV-I 0 W/m 0,1 C -12,2 C 49,9 km/h (6 Bft)
16.01.2023 07:38 1,5 C 0,0 C 90 % 989,1 hPa 0,0 l/m 20,9 km/h (4 Bft) SO 135 0 min 0,0 UV-I 0 W/m 0,0 C -8,1 C 30,6 km/h (5 Bft)
16.01.2023 07:39 1,5 C 0,0 C 90 % 989,2 hPa 0,0 l/m 16,1 km/h (3 Bft) SO 135 0 min 0,0 UV-I 0 W/m 0,0 C -5,8 C 27,4 km/h (4 Bft)
16.01.2023 07:40 1,4 C 0,6 C 90 % 989,1 hPa 0,0 l/m 19,3 km/h (3 Bft) SO 135 0 min 0,0 UV-I 0 W/m -0,1 C -7,5 C 30,6 km/h (5 Bft)
16.01.2023 07:41 1,4 C 0,6 C 90 % 989,0 hPa 0,2 l/m 20,9 km/h (4 Bft) SO 135 0 min 0,0 UV-I 0 W/m -0,1 C -8,2 C 35,4 km/h (5 Bft)
16.01.2023 07:42 1,4 C 0,6 C 90 % 989,1 hPa 0,0 l/m 25,7 km/h (4 Bft) SO 135 0 min 0,0 UV-I 0 W/m -0,1 C -10,1 C 37,0 km/h (5 Bft)
16.01.2023 07:43 1,4 C 0,0 C 90 % 989,0 hPa 0,0 l/m 27,4 km/h (4 Bft) S-SO 157 0 min 0,0 UV-I 0 W/m -0,1 C -10,6 C 38,6 km/h (5 Bft)
16.01.2023 07:44 1,4 C 0,0 C 90 % 989,0 hPa 0,0 l/m 22,5 km/h (4 Bft) S-SO 157 0 min 0,0 UV-I 0 W/m -0,1 C -8,9 C 29,0 km/h (5 Bft)
16.01.2023 07:45 1,4 C 0,0 C 90 % 988,9 hPa 0,0 l/m 17,7 km/h (3 Bft) SO 135 0 min 0,0 UV-I 0 W/m -0,1 C -6,7 C 27,4 km/h (4 Bft)
16.01.2023 07:46 1,3 C 0,0 C 90 % 988,9 hPa 0,0 l/m 24,1 km/h (4 Bft) SO 135 0 min 0,0 UV-I 0 W/m -0,2 C -9,6 C 33,8 km/h (5 Bft)
16.01.2023 07:47 1,3 C 0,0 C 90 % 988,8 hPa 0,0 l/m 20,9 km/h (4 Bft) SO 135 0 min 0,0 UV-I 0 W/m -0,2 C -8,3 C 27,4 km/h (4 Bft)
16.01.2023 07:48 1,3 C 0,0 C 90 % 988,9 hPa 0,0 l/m 19,3 km/h (3 Bft) SO 135 0 min 0,0 UV-I 0 W/m -0,2 C -7,6 C 32,2 km/h (5 Bft)
16.01.2023 07:49 1,3 C 0,0 C 90 % 988,8 hPa 0,0 l/m 25,7 km/h (4 Bft) SO 135 0 min 0,0 UV-I 0 W/m -0,2 C -10,2 C 38,6 km/h (5 Bft)
16.01.2023 07:50 1,3 C 0,0 C 90 % 988,7 hPa 0,0 l/m 24,1 km/h (4 Bft) SO 135 0 min 0,0 UV-I 0 W/m -0,2 C -9,6 C 30,6 km/h (5 Bft)
16.01.2023 07:51 1,3 C 0,0 C 90 % 988,7 hPa 0,0 l/m 20,9 km/h (4 Bft) SO 135 0 min 0,0 UV-I 0 W/m -0,2 C -8,3 C 29,0 km/h (5 Bft)
16.01.2023 07:52 1,3 C 0,0 C 90 % 988,7 hPa 0,0 l/m 24,1 km/h (4 Bft) SO 135 0 min 0,0 UV-I 0 W/m -0,2 C -9,6 C 33,8 km/h (5 Bft)
16.01.2023 07:53 1,2 C 0,0 C 90 % 988,7 hPa 0,0 l/m 19,3 km/h (3 Bft) S-SO 157 0 min 0,0 UV-I 0 W/m -0,3 C -7,8 C 27,4 km/h (4 Bft)
16.01.2023 07:54 1,2 C 0,0 C 90 % 988,7 hPa 0,0 l/m 16,1 km/h (3 Bft) S-SO 157 0 min 0,0 UV-I 0 W/m -0,3 C -6,1 C 22,5 km/h (4 Bft)
16.01.2023 07:55 1,2 C 0,0 C 90 % 988,6 hPa 0,0 l/m 14,5 km/h (3 Bft) SO 135 0 min 0,0 UV-I 0 W/m -0,3 C -5,2 C 29,0 km/h (5 Bft)
16.01.2023 07:56 1,2 C 0,0 C 90 % 988,5 hPa 0,0 l/m 17,7 km/h (3 Bft) SO 135 0 min 0,0 UV-I 0 W/m -0,3 C -7,0 C 22,5 km/h (4 Bft)
16.01.2023 07:57 1,1 C 0,0 C 90 % 988,4 hPa 0,0 l/m 14,5 km/h (3 Bft) SO 135 0 min 0,0 UV-I 0 W/m -0,4 C -5,4 C 25,7 km/h (4 Bft)
16.01.2023 07:58 1,1 C 0,0 C 91 % 988,4 hPa 0,0 l/m 14,5 km/h (3 Bft) SO 135 0 min 0,0 UV-I 0 W/m -0,2 C -5,4 C 25,7 km/h (4 Bft)
16.01.2023 07:59 1,1 C 0,0 C 91 % 988,3 hPa 0,0 l/m 14,5 km/h (3 Bft) SO 135 0 min 0,0 UV-I 0 W/m -0,2 C -5,4 C 20,9 km/h (4 Bft)
16.01.2023 08:00 1,0 C 0,0 C 91 % 988,1 hPa 0,0 l/m 25,7 km/h (4 Bft) SO 135 0 min 0,0 UV-I 0 W/m -0,3 C -10,6 C 33,8 km/h (5 Bft)
16.01.2023 08:01 1,0 C 0,0 C 91 % 988,3 hPa 0,0 l/m 24,1 km/h (4 Bft) S-SO 157 0 min 0,0 UV-I 0 W/m -0,3 C -10,0 C 33,8 km/h (5 Bft)
16.01.2023 08:02 1,1 C 0,0 C 91 % 988,2 hPa 0,0 l/m 20,9 km/h (4 Bft) SO 135 0 min 0,0 UV-I 0 W/m -0,2 C -8,6 C 32,2 km/h (5 Bft)
16.01.2023 08:03 1,0 C 0,0 C 91 % 988,2 hPa 0,0 l/m 19,3 km/h (3 Bft) SO 135 0 min 0,0 UV-I 0 W/m -0,3 C -8,0 C 27,4 km/h (4 Bft)
16.01.2023 08:04 1,1 C 0,0 C 91 % 988,1 hPa 0,0 l/m 16,1 km/h (3 Bft) S-SO 157 0 min 0,0 UV-I 0 W/m -0,2 C -6,3 C 25,7 km/h (4 Bft)
16.01.2023 08:05 1,1 C 0,0 C 91 % 988,1 hPa 0,0 l/m 22,5 km/h (4 Bft) SO 135 0 min 0,0 UV-I 0 W/m -0,2 C -9,3 C 32,2 km/h (5 Bft)
16.01.2023 08:06 1,0 C 0,0 C 91 % 988,0 hPa 0,0 l/m 22,5 km/h (4 Bft) SO 135 0 min 0,0 UV-I 0 W/m -0,3 C -9,4 C 29,0 km/h (5 Bft)
16.01.2023 08:07 1,0 C 0,0 C 91 % 988,0 hPa 0,0 l/m 22,5 km/h (4 Bft) SO 135 0 min 0,0 UV-I 0 W/m -0,3 C -9,4 C 30,6 km/h (5 Bft)
16.01.2023 08:08 1,0 C 0,0 C 91 % 988,0 hPa 0,0 l/m 20,9 km/h (4 Bft) SO 135 0 min 0,0 UV-I 0 W/m -0,3 C -8,7 C 32,2 km/h (5 Bft)
16.01.2023 08:09 1,0 C 0,0 C 91 % 988,0 hPa 0,0 l/m 20,9 km/h (4 Bft) SO 135 0 min 0,0 UV-I 0 W/m -0,3 C -8,7 C 29,0 km/h (5 Bft)
16.01.2023 08:10 1,0 C 0,0 C 91 % 988,0 hPa 0,0 l/m 22,5 km/h (4 Bft) SO 135 0 min 0,0 UV-I 0 W/m -0,3 C -9,4 C 32,2 km/h (5 Bft)
16.01.2023 08:12 1,0 C 0,0 C 91 % 987,9 hPa 0,2 l/m 22,3 km/h (4 Bft) SO 130 0 min 0,0 UV-I 0 W/m -0,3 C -9,3 C 29,0 km/h (5 Bft)
16.01.2023 08:15 1,0 C 0,0 C 91 % 987,7 hPa 0,0 l/m 22,7 km/h (4 Bft) S-SO 153 0 min 0,0 UV-I 0 W/m -0,3 C -9,5 C 32,2 km/h (5 Bft)
16.01.2023 08:18 1,0 C 0,0 C 91 % 987,7 hPa 0,0 l/m 21,8 km/h (4 Bft) O-SO 119 0 min 0,0 UV-I 0 W/m -0,3 C -9,1 C 33,8 km/h (5 Bft)
16.01.2023 08:21 1,0 C 0,0 C 91 % 987,4 hPa 0,0 l/m 19,0 km/h (3 Bft) O-SO 123 0 min 0,0 UV-I 0 W/m -0,3 C -7,9 C 35,4 km/h (5 Bft)
16.01.2023 08:24 1,0 C 0,0 C 91 % 987,6 hPa 0,0 l/m 21,2 km/h (4 Bft) O-SO 116 0 min 0,0 UV-I 0 W/m -0,3 C -8,9 C 35,4 km/h (5 Bft)
16.01.2023 08:27 0,9 C 0,0 C 91 % 987,3 hPa 0,2 l/m 23,4 km/h (4 Bft) S-SO 158 0 min 0,0 UV-I 0 W/m -0,4 C -9,9 C 37,0 km/h (5 Bft)
16.01.2023 08:30 1,0 C 0,0 C 91 % 987,3 hPa 0,0 l/m 23,1 km/h (4 Bft) SO 142 0 min 0,0 UV-I 0 W/m -0,3 C -9,6 C 37,0 km/h (5 Bft)
16.01.2023 08:33 1,0 C 0,0 C 91 % 987,4 hPa 0,0 l/m 22,6 km/h (4 Bft) O-SO 120 0 min 0,0 UV-I 0 W/m -0,3 C -9,4 C 40,2 km/h (6 Bft)
16.01.2023 08:36 1,0 C 0,0 C 91 % 987,2 hPa 0,0 l/m 25,3 km/h (4 Bft) SO 144 0 min 0,0 UV-I 0 W/m -0,3 C -10,5 C 41,8 km/h (6 Bft)
16.01.2023 08:39 1,0 C 0,0 C 91 % 987,3 hPa 0,0 l/m 22,1 km/h (4 Bft) O-SO 118 0 min 0,0 UV-I 0 W/m -0,3 C -9,2 C 32,2 km/h (5 Bft)
16.01.2023 08:42 1,0 C 0,0 C 91 % 987,2 hPa 0,2 l/m 25,5 km/h (4 Bft) SO 140 0 min 0,0 UV-I 0 W/m -0,3 C -10,5 C 40,2 km/h (6 Bft)
16.01.2023 08:45 1,0 C 0,0 C 91 % 987,2 hPa 0,0 l/m 23,7 km/h (4 Bft) SO 134 0 min 0,0 UV-I 0 W/m -0,3 C -9,9 C 41,8 km/h (6 Bft)
16.01.2023 08:48 0,9 C 0,0 C 91 % 987,1 hPa 0,0 l/m 20,0 km/h (4 Bft) S-SO 168 0 min 0,0 UV-I 0 W/m -0,4 C -8,5 C 33,8 km/h (5 Bft)
16.01.2023 08:51 0,9 C 0,0 C 91 % 986,9 hPa 0,0 l/m 23,8 km/h (4 Bft) SO 134 0 min 0,0 UV-I 0 W/m -0,4 C -10,1 C 38,6 km/h (5 Bft)
16.01.2023 08:54 0,9 C 0,0 C 91 % 986,9 hPa 0,0 l/m 26,0 km/h (4 Bft) SO 136 0 min 0,0 UV-I 5 W/m -0,4 C -10,9 C 41,8 km/h (6 Bft)
16.01.2023 08:57 0,9 C 0,0 C 91 % 986,7 hPa 0,0 l/m 23,5 km/h (4 Bft) O-SO 121 0 min 0,0 UV-I 5 W/m -0,4 C -9,9 C 43,5 km/h (6 Bft)
16.01.2023 09:00 0,9 C 0,0 C 91 % 986,7 hPa 0,0 l/m 24,1 km/h (4 Bft) SO 127 0 min 0,0 UV-I 5 W/m -0,4 C -10,2 C 45,1 km/h (6 Bft)
16.01.2023 09:03 0,9 C 0,0 C 91 % 986,8 hPa 0,0 l/m 21,1 km/h (4 Bft) S 182 0 min 0,0 UV-I 5 W/m -0,4 C -9,0 C 37,0 km/h (5 Bft)
16.01.2023 09:06 0,8 C 0,0 C 91 % 986,7 hPa 0,0 l/m 18,8 km/h (3 Bft) SO 139 0 min 0,0 UV-I 7 W/m -0,5 C -8,0 C 32,2 km/h (5 Bft)
16.01.2023 09:09 0,8 C 0,0 C 91 % 986,6 hPa 0,0 l/m 24,1 km/h (4 Bft) SO 132 0 min 0,0 UV-I 7 W/m -0,5 C -10,3 C 37,0 km/h (5 Bft)
16.01.2023 09:12 0,8 C 0,0 C 91 % 986,5 hPa 0,0 l/m 25,5 km/h (4 Bft) S 169 0 min 0,0 UV-I 7 W/m -0,5 C -10,8 C 38,6 km/h (5 Bft)
16.01.2023 09:15 0,8 C 0,0 C 92 % 986,6 hPa 0,0 l/m 20,2 km/h (4 Bft) SO 140 0 min 0,0 UV-I 7 W/m -0,3 C -8,7 C 37,0 km/h (5 Bft)
16.01.2023 09:18 0,8 C 0,0 C 91 % 986,6 hPa 0,0 l/m 23,1 km/h (4 Bft) SO 134 0 min 0,0 UV-I 8 W/m -0,5 C -9,9 C 40,2 km/h (6 Bft)
16.01.2023 09:21 0,8 C 0,0 C 91 % 986,6 hPa 0,0 l/m 19,4 km/h (3 Bft) SO 128 0 min 0,0 UV-I 10 W/m -0,5 C -8,3 C 35,4 km/h (5 Bft)
16.01.2023 09:24 0,8 C 0,0 C 91 % 986,6 hPa 0,0 l/m 17,4 km/h (3 Bft) SO 144 0 min 0,0 UV-I 12 W/m -0,5 C -7,3 C 27,4 km/h (4 Bft)
16.01.2023 09:27 0,8 C 0,0 C 91 % 986,5 hPa 0,0 l/m 19,9 km/h (4 Bft) S-SO 153 0 min 0,0 UV-I 14 W/m -0,5 C -8,6 C 33,8 km/h (5 Bft)
16.01.2023 09:30 0,8 C 0,0 C 91 % 986,5 hPa 0,0 l/m 23,0 km/h (4 Bft) S-SO 159 0 min 0,0 UV-I 14 W/m -0,5 C -9,9 C 35,4 km/h (5 Bft)
16.01.2023 09:33 0,8 C 0,0 C 91 % 986,3 hPa 0,2 l/m 20,8 km/h (4 Bft) S-SW 212 0 min 0,0 UV-I 14 W/m -0,5 C -9,0 C 35,4 km/h (5 Bft)
16.01.2023 09:36 0,8 C 0,0 C 91 % 986,4 hPa 0,0 l/m 17,0 km/h (3 Bft) SO 132 0 min 0,0 UV-I 15 W/m -0,5 C -7,1 C 27,4 km/h (4 Bft)
16.01.2023 09:39 0,8 C 0,0 C 91 % 986,4 hPa 0,0 l/m 20,4 km/h (4 Bft) S 188 0 min 0,0 UV-I 18 W/m -0,5 C -8,8 C 30,6 km/h (5 Bft)
16.01.2023 09:42 0,8 C 0,0 C 92 % 986,4 hPa 0,0 l/m 22,9 km/h (4 Bft) S-SO 168 0 min 0,0 UV-I 20 W/m -0,3 C -9,8 C 37,0 km/h (5 Bft)
16.01.2023 09:45 0,8 C 0,0 C 91 % 986,2 hPa 0,0 l/m 20,1 km/h (4 Bft) SO 137 0 min 0,0 UV-I 25 W/m -0,5 C -8,6 C 32,2 km/h (5 Bft)
16.01.2023 09:48 0,8 C 0,0 C 91 % 986,3 hPa 0,0 l/m 21,3 km/h (4 Bft) SO 145 0 min 0,0 UV-I 28 W/m -0,5 C -9,2 C 32,2 km/h (5 Bft)
16.01.2023 09:51 0,8 C 0,0 C 91 % 986,2 hPa 0,0 l/m 20,7 km/h (4 Bft) SO 142 0 min 0,0 UV-I 27 W/m -0,5 C -8,9 C 30,6 km/h (5 Bft)
16.01.2023 09:54 0,8 C 0,0 C 91 % 986,2 hPa 0,0 l/m 23,1 km/h (4 Bft) SO 144 0 min 0,0 UV-I 29 W/m -0,5 C -9,9 C 37,0 km/h (5 Bft)
16.01.2023 09:57 0,8 C 0,0 C 91 % 986,2 hPa 0,2 l/m 22,9 km/h (4 Bft) O-SO 111 0 min 0,0 UV-I 32 W/m -0,5 C -9,8 C 32,2 km/h (5 Bft)
16.01.2023 10:00 0,8 C 0,0 C 91 % 986,1 hPa 0,0 l/m 19,3 km/h (3 Bft) O-SO 123 0 min 0,0 UV-I 33 W/m -0,5 C -8,3 C 30,6 km/h (5 Bft)
16.01.2023 10:03 0,8 C 0,0 C 91 % 985,9 hPa 0,0 l/m 19,3 km/h (3 Bft) S 174 0 min 0,0 UV-I 33 W/m -0,5 C -8,3 C 29,0 km/h (5 Bft)
16.01.2023 10:06 0,8 C 0,0 C 91 % 985,9 hPa 0,0 l/m 13,4 km/h (3 Bft) S-SO 167 0 min 0,0 UV-I 34 W/m -0,5 C -5,0 C 29,0 km/h (5 Bft)
16.01.2023 10:09 0,8 C 0,0 C 91 % 985,8 hPa 0,0 l/m 16,2 km/h (3 Bft) S-SO 155 0 min 0,0 UV-I 34 W/m -0,5 C -6,7 C 30,6 km/h (5 Bft)
16.01.2023 10:12 0,8 C 0,0 C 91 % 985,7 hPa 0,0 l/m 17,3 km/h (3 Bft) S-SO 150 0 min 0,0 UV-I 37 W/m -0,5 C -7,3 C 30,6 km/h (5 Bft)
16.01.2023 10:15 0,8 C 0,0 C 92 % 985,7 hPa 0,2 l/m 18,4 km/h (3 Bft) S 175 0 min 0,0 UV-I 38 W/m -0,3 C -7,8 C 29,0 km/h (5 Bft)
16.01.2023 10:18 0,8 C 0,0 C 92 % 985,6 hPa 0,0 l/m 16,9 km/h (3 Bft) S-SO 156 0 min 0,0 UV-I 40 W/m -0,3 C -7,1 C 27,4 km/h (4 Bft)
16.01.2023 10:21 0,9 C 0,0 C 92 % 985,7 hPa 0,0 l/m 18,9 km/h (3 Bft) S 185 0 min 0,0 UV-I 41 W/m -0,2 C -8,0 C 38,6 km/h (5 Bft)
16.01.2023 10:24 0,9 C 0,0 C 92 % 985,6 hPa 0,0 l/m 14,9 km/h (3 Bft) S-SO 160 0 min 0,0 UV-I 44 W/m -0,2 C -5,8 C 20,9 km/h (4 Bft)
16.01.2023 10:27 0,9 C 0,0 C 92 % 985,7 hPa 0,0 l/m 18,4 km/h (3 Bft) S 184 0 min 0,0 UV-I 44 W/m -0,2 C -7,7 C 32,2 km/h (5 Bft)
16.01.2023 10:30 0,9 C 0,0 C 92 % 985,6 hPa 0,0 l/m 18,7 km/h (3 Bft) SO 137 0 min 0,0 UV-I 44 W/m -0,2 C -7,9 C 27,4 km/h (4 Bft)
16.01.2023 10:33 0,9 C 0,0 C 92 % 985,5 hPa 0,2 l/m 17,2 km/h (3 Bft) SO 142 0 min 0,0 UV-I 47 W/m -0,2 C -7,1 C 30,6 km/h (5 Bft)
16.01.2023 10:36 0,9 C 0,0 C 92 % 985,7 hPa 0,0 l/m 15,7 km/h (3 Bft) SO 144 0 min 0,0 UV-I 52 W/m -0,2 C -6,3 C 22,5 km/h (4 Bft)
16.01.2023 10:39 1,0 C 0,0 C 92 % 985,5 hPa 0,0 l/m 18,2 km/h (3 Bft) SO 146 0 min 0,0 UV-I 54 W/m -0,2 C -7,5 C 30,6 km/h (5 Bft)
16.01.2023 10:42 1,0 C 0,0 C 92 % 985,4 hPa 0,0 l/m 17,6 km/h (3 Bft) SO 136 0 min 0,0 UV-I 57 W/m -0,2 C -7,2 C 27,4 km/h (4 Bft)
16.01.2023 10:45 1,1 C 0,0 C 92 % 985,4 hPa 0,2 l/m 16,7 km/h (3 Bft) SO 146 0 min 0,0 UV-I 41 W/m -0,1 C -6,6 C 29,0 km/h (5 Bft)
16.01.2023 10:48 1,1 C 0,0 C 92 % 985,3 hPa 0,0 l/m 16,5 km/h (3 Bft) O-NO 74 0 min 0,0 UV-I 45 W/m -0,1 C -6,5 C 24,1 km/h (4 Bft)
16.01.2023 10:51 1,1 C 0,0 C 92 % 985,3 hPa 0,0 l/m 15,6 km/h (3 Bft) SO 138 0 min 0,0 UV-I 47 W/m -0,1 C -6,0 C 24,1 km/h (4 Bft)
16.01.2023 10:54 1,2 C 0,0 C 92 % 985,3 hPa 0,2 l/m 24,7 km/h (4 Bft) O-SO 121 0 min 0,0 UV-I 43 W/m 0,0 C -10,0 C 41,8 km/h (6 Bft)
16.01.2023 10:57 1,2 C 0,0 C 92 % 985,3 hPa 0,0 l/m 18,9 km/h (3 Bft) SO 140 0 min 0,0 UV-I 41 W/m 0,0 C -7,6 C 35,4 km/h (5 Bft)
16.01.2023 11:00 1,2 C 0,0 C 92 % 985,2 hPa 0,0 l/m 16,7 km/h (3 Bft) S-SO 149 0 min 0,0 UV-I 39 W/m 0,0 C -6,5 C 33,8 km/h (5 Bft)
16.01.2023 11:03 1,3 C 0,6 C 92 % 985,0 hPa 0,0 l/m 16,0 km/h (3 Bft) S-SO 167 0 min 0,0 UV-I 45 W/m 0,1 C -6,0 C 32,2 km/h (5 Bft)
16.01.2023 11:06 1,2 C 0,6 C 92 % 985,0 hPa 0,2 l/m 20,3 km/h (4 Bft) O-SO 113 0 min 0,0 UV-I 39 W/m 0,0 C -8,2 C 35,4 km/h (5 Bft)
16.01.2023 11:09 1,3 C 0,6 C 92 % 985,1 hPa 0,0 l/m 18,8 km/h (3 Bft) SO 144 0 min 0,0 UV-I 42 W/m 0,1 C -7,4 C 29,0 km/h (5 Bft)
16.01.2023 11:12 1,3 C 0,6 C 92 % 984,9 hPa 0,0 l/m 16,0 km/h (3 Bft) S-SO 165 0 min 0,0 UV-I 47 W/m 0,1 C -6,0 C 27,4 km/h (4 Bft)
16.01.2023 11:15 1,3 C 0,6 C 92 % 984,9 hPa 0,0 l/m 20,9 km/h (4 Bft) SO 142 0 min 0,0 UV-I 61 W/m 0,1 C -8,3 C 30,6 km/h (5 Bft)
16.01.2023 11:18 1,3 C 0,6 C 92 % 984,7 hPa 0,0 l/m 19,3 km/h (3 Bft) S 171 0 min 0,0 UV-I 53 W/m 0,1 C -7,6 C 33,8 km/h (5 Bft)
16.01.2023 11:21 1,3 C 0,6 C 92 % 984,8 hPa 0,2 l/m 20,9 km/h (4 Bft) S-SO 148 0 min 0,0 UV-I 57 W/m 0,1 C -8,3 C 40,2 km/h (6 Bft)
16.01.2023 11:24 1,3 C 0,6 C 91 % 984,7 hPa 0,0 l/m 17,3 km/h (3 Bft) S-SO 165 0 min 0,0 UV-I 70 W/m -0,0 C -6,7 C 32,2 km/h (5 Bft)
16.01.2023 11:27 1,3 C 0,6 C 92 % 984,7 hPa 0,0 l/m 17,2 km/h (3 Bft) S 184 0 min 0,0 UV-I 74 W/m 0,1 C -6,6 C 30,6 km/h (5 Bft)
16.01.2023 11:30 1,3 C 0,6 C 92 % 984,5 hPa 0,2 l/m 19,4 km/h (3 Bft) SO 129 0 min 0,0 UV-I 72 W/m 0,1 C -7,7 C 30,6 km/h (5 Bft)
16.01.2023 11:33 1,4 C 1,1 C 92 % 984,6 hPa 0,0 l/m 20,6 km/h (4 Bft) S-SO 154 0 min 0,0 UV-I 77 W/m 0,2 C -8,1 C 37,0 km/h (5 Bft)
16.01.2023 11:36 1,4 C 1,1 C 92 % 984,6 hPa 0,0 l/m 17,2 km/h (3 Bft) S-SO 158 0 min 0,0 UV-I 63 W/m 0,2 C -6,5 C 29,0 km/h (5 Bft)
16.01.2023 11:39 1,5 C 1,1 C 92 % 984,4 hPa 0,0 l/m 20,2 km/h (4 Bft) S-SO 155 0 min 0,0 UV-I 41 W/m 0,3 C -7,8 C 29,0 km/h (5 Bft)
16.01.2023 11:42 1,5 C 1,1 C 91 % 984,3 hPa 0,2 l/m 18,4 km/h (3 Bft) SO 128 0 min 0,0 UV-I 69 W/m 0,2 C -7,0 C 32,2 km/h (5 Bft)
16.01.2023 11:45 1,6 C 1,1 C 91 % 984,3 hPa 0,0 l/m 15,9 km/h (3 Bft) SO 132 0 min 0,0 UV-I 62 W/m 0,3 C -5,5 C 25,7 km/h (4 Bft)
16.01.2023 11:48 1,6 C 1,1 C 91 % 984,2 hPa 0,0 l/m 17,8 km/h (3 Bft) S-SO 149 0 min 0,0 UV-I 74 W/m 0,3 C -6,5 C 29,0 km/h (5 Bft)
16.01.2023 11:51 1,6 C 1,1 C 91 % 984,1 hPa 0,0 l/m 20,1 km/h (4 Bft) S-SO 159 0 min 0,0 UV-I 66 W/m 0,3 C -7,6 C 29,0 km/h (5 Bft)
16.01.2023 11:54 1,6 C 1,1 C 91 % 983,9 hPa 0,0 l/m 17,6 km/h (3 Bft) SO 127 0 min 0,0 UV-I 67 W/m 0,3 C -6,4 C 29,0 km/h (5 Bft)
16.01.2023 11:57 1,6 C 1,1 C 91 % 983,8 hPa 0,2 l/m 18,9 km/h (3 Bft) S-SO 153 0 min 0,0 UV-I 67 W/m 0,3 C -7,1 C 32,2 km/h (5 Bft)
16.01.2023 12:00 1,6 C 1,1 C 91 % 983,9 hPa 0,0 l/m 20,5 km/h (4 Bft) S-SO 164 0 min 0,0 UV-I 50 W/m 0,3 C -7,8 C 32,2 km/h (5 Bft)
16.01.2023 12:03 1,6 C 1,1 C 91 % 983,6 hPa 0,0 l/m 21,2 km/h (4 Bft) SO 139 0 min 0,0 UV-I 56 W/m 0,3 C -8,1 C 33,8 km/h (5 Bft)
16.01.2023 12:06 1,6 C 1,1 C 91 % 983,6 hPa 0,0 l/m 14,7 km/h (3 Bft) SO 130 0 min 0,0 UV-I 54 W/m 0,3 C -4,9 C 27,4 km/h (4 Bft)
16.01.2023 12:09 1,7 C 1,1 C 91 % 983,6 hPa 0,0 l/m 18,0 km/h (3 Bft) O-SO 115 0 min 0,0 UV-I 18 W/m 0,4 C -6,5 C 27,4 km/h (4 Bft)
16.01.2023 12:12 1,7 C 0,6 C 91 % 983,4 hPa 0,0 l/m 19,7 km/h (3 Bft) S-SO 165 0 min 0,0 UV-I 11 W/m 0,4 C -7,3 C 35,4 km/h (5 Bft)
16.01.2023 12:15 1,6 C 0,6 C 91 % 983,4 hPa 0,0 l/m 15,9 km/h (3 Bft) S-SO 150 0 min 0,0 UV-I 15 W/m 0,3 C -5,5 C 27,4 km/h (4 Bft)
16.01.2023 12:18 1,6 C 0,6 C 91 % 983,3 hPa 0,2 l/m 16,4 km/h (3 Bft) SO 130 0 min 0,0 UV-I 21 W/m 0,3 C -5,8 C 32,2 km/h (5 Bft)
16.01.2023 12:21 1,5 C 0,6 C 91 % 983,3 hPa 0,0 l/m 18,5 km/h (3 Bft) SO 138 0 min 0,0 UV-I 42 W/m 0,2 C -7,0 C 29,0 km/h (5 Bft)
16.01.2023 12:24 1,4 C 1,1 C 91 % 983,2 hPa 0,0 l/m 16,9 km/h (3 Bft) S-SO 157 0 min 0,0 UV-I 75 W/m 0,1 C -6,3 C 27,4 km/h (4 Bft)
16.01.2023 12:27 1,5 C 1,1 C 91 % 983,1 hPa 0,2 l/m 17,5 km/h (3 Bft) SO 135 0 min 0,2 UV-I 118 W/m 0,2 C -6,5 C 38,6 km/h (5 Bft)
16.01.2023 12:30 1,5 C 1,1 C 91 % 983,0 hPa 0,0 l/m 15,5 km/h (3 Bft) S-SO 167 0 min 0,1 UV-I 120 W/m 0,2 C -5,4 C 24,1 km/h (4 Bft)
16.01.2023 12:33 1,6 C 1,1 C 91 % 983,0 hPa 0,0 l/m 18,3 km/h (3 Bft) O-SO 119 0 min 0,0 UV-I 75 W/m 0,3 C -6,8 C 29,0 km/h (5 Bft)
16.01.2023 12:36 1,6 C 1,1 C 91 % 982,9 hPa 0,0 l/m 15,1 km/h (3 Bft) O-SO 122 0 min 0,0 UV-I 89 W/m 0,3 C -5,1 C 27,4 km/h (4 Bft)
16.01.2023 12:39 1,6 C 1,1 C 91 % 982,8 hPa 0,2 l/m 15,6 km/h (3 Bft) O 101 0 min 0,0 UV-I 110 W/m 0,3 C -5,4 C 29,0 km/h (5 Bft)
16.01.2023 12:42 1,6 C 1,1 C 91 % 982,7 hPa 0,0 l/m 18,3 km/h (3 Bft) S-SO 164 0 min 0,3 UV-I 135 W/m 0,3 C -6,8 C 27,4 km/h (4 Bft)
16.01.2023 12:45 1,6 C 1,1 C 91 % 982,6 hPa 0,0 l/m 17,5 km/h (3 Bft) SO 136 0 min 0,4 UV-I 119 W/m 0,3 C -6,4 C 29,0 km/h (5 Bft)
16.01.2023 12:48 1,4 C 1,1 C 91 % 982,6 hPa 0,2 l/m 15,0 km/h (3 Bft) O-SO 115 0 min 0,0 UV-I 95 W/m 0,1 C -5,3 C 25,7 km/h (4 Bft)
16.01.2023 12:51 1,4 C 1,1 C 91 % 982,5 hPa 0,0 l/m 19,6 km/h (3 Bft) O-SO 108 0 min 0,0 UV-I 74 W/m 0,1 C -7,6 C 29,0 km/h (5 Bft)
16.01.2023 12:54 1,4 C 1,1 C 91 % 982,5 hPa 0,0 l/m 18,8 km/h (3 Bft) SO 134 0 min 0,0 UV-I 64 W/m 0,1 C -7,3 C 29,0 km/h (5 Bft)
16.01.2023 12:57 1,4 C 1,1 C 91 % 982,4 hPa 0,0 l/m 14,4 km/h (3 Bft) SO 130 0 min 0,0 UV-I 60 W/m 0,1 C -4,9 C 24,1 km/h (4 Bft)
16.01.2023 13:00 1,3 C 0,6 C 91 % 982,4 hPa 0,0 l/m 17,4 km/h (3 Bft) SO 125 0 min 0,0 UV-I 50 W/m -0,0 C -6,7 C 29,0 km/h (5 Bft)
16.01.2023 13:03 1,3 C 0,6 C 91 % 982,3 hPa 0,0 l/m 17,1 km/h (3 Bft) S-SO 154 0 min 0,0 UV-I 52 W/m -0,0 C -6,6 C 33,8 km/h (5 Bft)
16.01.2023 13:06 1,3 C 0,6 C 92 % 982,2 hPa 0,2 l/m 14,4 km/h (3 Bft) O-SO 121 0 min 0,0 UV-I 57 W/m 0,1 C -5,1 C 24,1 km/h (4 Bft)
16.01.2023 13:09 1,3 C 1,1 C 91 % 982,1 hPa 0,0 l/m 12,9 km/h (3 Bft) O 100 0 min 0,0 UV-I 69 W/m -0,0 C -4,1 C 22,5 km/h (4 Bft)
16.01.2023 13:12 1,3 C 1,1 C 91 % 982,0 hPa 0,0 l/m 16,3 km/h (3 Bft) SO 137 0 min 0,0 UV-I 84 W/m -0,0 C -6,1 C 27,4 km/h (4 Bft)
16.01.2023 13:15 1,3 C 1,1 C 92 % 981,8 hPa 0,0 l/m 16,7 km/h (3 Bft) SO 138 0 min 0,0 UV-I 89 W/m 0,1 C -6,3 C 30,6 km/h (5 Bft)
16.01.2023 13:18 1,3 C 1,1 C 92 % 981,8 hPa 0,0 l/m 16,9 km/h (3 Bft) SO 143 0 min 0,0 UV-I 80 W/m 0,1 C -6,5 C 25,7 km/h (4 Bft)
16.01.2023 13:21 1,3 C 0,6 C 92 % 981,7 hPa 0,2 l/m 14,9 km/h (3 Bft) O-SO 109 0 min 0,0 UV-I 52 W/m 0,1 C -5,3 C 27,4 km/h (4 Bft)
16.01.2023 13:24 1,3 C 0,6 C 91 % 981,7 hPa 0,0 l/m 15,9 km/h (3 Bft) SO 124 0 min 0,0 UV-I 43 W/m -0,0 C -5,9 C 25,7 km/h (4 Bft)
16.01.2023 13:27 1,2 C 0,6 C 92 % 981,6 hPa 0,0 l/m 11,8 km/h (2 Bft) SO 133 0 min 0,0 UV-I 37 W/m 0,0 C -3,5 C 19,3 km/h (3 Bft)
16.01.2023 13:30 1,2 C 0,6 C 92 % 981,5 hPa 0,0 l/m 17,0 km/h (3 Bft) S-SO 153 0 min 0,0 UV-I 31 W/m 0,0 C -6,6 C 25,7 km/h (4 Bft)
16.01.2023 13:33 1,2 C 0,6 C 92 % 981,3 hPa 0,0 l/m 13,3 km/h (3 Bft) SO 130 0 min 0,0 UV-I 34 W/m 0,0 C -4,5 C 20,9 km/h (4 Bft)
16.01.2023 13:36 1,2 C 0,6 C 92 % 981,3 hPa 0,0 l/m 12,9 km/h (3 Bft) SO 144 0 min 0,0 UV-I 40 W/m 0,0 C -4,2 C 24,1 km/h (4 Bft)
16.01.2023 13:39 1,2 C 0,6 C 92 % 981,3 hPa 0,2 l/m 12,8 km/h (3 Bft) SO 136 0 min 0,0 UV-I 42 W/m 0,0 C -4,2 C 20,9 km/h (4 Bft)
16.01.2023 13:42 1,2 C 0,6 C 92 % 981,2 hPa 0,0 l/m 15,6 km/h (3 Bft) S-SO 156 0 min 0,0 UV-I 43 W/m 0,0 C -5,9 C 24,1 km/h (4 Bft)
16.01.2023 13:45 1,2 C 0,6 C 92 % 981,1 hPa 0,0 l/m 13,9 km/h (3 Bft) S-SO 150 0 min 0,0 UV-I 44 W/m 0,0 C -4,9 C 20,9 km/h (4 Bft)
16.01.2023 13:48 1,2 C 0,6 C 92 % 981,0 hPa 0,2 l/m 14,1 km/h (3 Bft) S-SO 149 0 min 0,0 UV-I 46 W/m 0,0 C -5,0 C 25,7 km/h (4 Bft)
16.01.2023 13:51 1,2 C 0,0 C 92 % 981,0 hPa 0,0 l/m 16,6 km/h (3 Bft) SO 136 0 min 0,0 UV-I 46 W/m 0,0 C -6,4 C 25,7 km/h (4 Bft)
16.01.2023 13:54 1,2 C 0,0 C 92 % 980,9 hPa 0,0 l/m 16,0 km/h (3 Bft) SO 140 0 min 0,0 UV-I 40 W/m 0,0 C -6,1 C 24,1 km/h (4 Bft)
16.01.2023 13:57 1,2 C 0,6 C 92 % 980,8 hPa 0,2 l/m 14,0 km/h (3 Bft) SO 146 0 min 0,0 UV-I 41 W/m 0,0 C -4,9 C 24,1 km/h (4 Bft)
16.01.2023 14:00 1,3 C 0,6 C 92 % 980,8 hPa 0,0 l/m 16,6 km/h (3 Bft) O-SO 116 0 min 0,0 UV-I 49 W/m 0,1 C -6,3 C 29,0 km/h (5 Bft)
16.01.2023 14:03 1,3 C 0,6 C 92 % 980,8 hPa 0,0 l/m 17,6 km/h (3 Bft) O-SO 123 0 min 0,0 UV-I 53 W/m 0,1 C -6,8 C 29,0 km/h (5 Bft)
16.01.2023 14:06 1,3 C 0,6 C 92 % 980,7 hPa 0,2 l/m 14,4 km/h (3 Bft) SO 126 0 min 0,0 UV-I 51 W/m 0,1 C -5,1 C 22,5 km/h (4 Bft)
16.01.2023 14:09 1,3 C 0,6 C 92 % 980,6 hPa 0,0 l/m 13,1 km/h (3 Bft) S-SO 151 0 min 0,0 UV-I 46 W/m 0,1 C -4,2 C 20,9 km/h (4 Bft)
16.01.2023 14:12 1,2 C 0,6 C 92 % 980,6 hPa 0,0 l/m 11,6 km/h (2 Bft) S-SO 152 0 min 0,0 UV-I 52 W/m 0,0 C -3,3 C 19,3 km/h (3 Bft)
16.01.2023 14:15 1,2 C 0,6 C 92 % 980,4 hPa 0,0 l/m 12,2 km/h (2 Bft) S-SO 147 0 min 0,0 UV-I 62 W/m 0,0 C -3,8 C 24,1 km/h (4 Bft)
16.01.2023 14:18 1,2 C 0,6 C 92 % 980,4 hPa 0,2 l/m 13,7 km/h (3 Bft) O-SO 121 0 min 0,0 UV-I 54 W/m 0,0 C -4,7 C 20,9 km/h (4 Bft)
16.01.2023 14:21 1,2 C 0,6 C 92 % 980,3 hPa 0,0 l/m 12,5 km/h (3 Bft) SO 134 0 min 0,0 UV-I 50 W/m 0,0 C -4,0 C 20,9 km/h (4 Bft)
16.01.2023 14:24 1,3 C 1,1 C 92 % 980,3 hPa 0,2 l/m 16,7 km/h (3 Bft) SO 146 0 min 0,0 UV-I 48 W/m 0,1 C -6,3 C 27,4 km/h (4 Bft)
16.01.2023 14:27 1,3 C 0,6 C 92 % 980,2 hPa 0,0 l/m 13,0 km/h (3 Bft) SO 134 0 min 0,0 UV-I 41 W/m 0,1 C -4,2 C 22,5 km/h (4 Bft)
16.01.2023 14:30 1,4 C 0,6 C 92 % 980,1 hPa 0,0 l/m 15,1 km/h (3 Bft) S 183 0 min 0,0 UV-I 34 W/m 0,2 C -5,3 C 25,7 km/h (4 Bft)
16.01.2023 14:33 1,4 C 0,6 C 92 % 980,1 hPa 0,0 l/m 12,4 km/h (3 Bft) SO 138 0 min 0,0 UV-I 26 W/m 0,2 C -3,7 C 22,5 km/h (4 Bft)
16.01.2023 14:36 1,4 C 1,1 C 92 % 980,1 hPa 0,2 l/m 17,1 km/h (3 Bft) S 173 0 min 0,0 UV-I 29 W/m 0,2 C -6,4 C 32,2 km/h (5 Bft)
16.01.2023 14:39 1,4 C 1,1 C 92 % 979,9 hPa 0,0 l/m 14,4 km/h (3 Bft) SO 124 0 min 0,0 UV-I 40 W/m 0,2 C -4,9 C 29,0 km/h (5 Bft)
16.01.2023 14:42 1,5 C 1,1 C 92 % 980,0 hPa 0,0 l/m 15,7 km/h (3 Bft) SO 132 0 min 0,0 UV-I 46 W/m 0,3 C -5,6 C 25,7 km/h (4 Bft)
16.01.2023 14:45 1,7 C 1,1 C 92 % 979,9 hPa 0,2 l/m 15,5 km/h (3 Bft) S-SO 150 0 min 0,0 UV-I 49 W/m 0,5 C -5,2 C 24,1 km/h (4 Bft)
16.01.2023 14:48 1,7 C 1,1 C 92 % 979,7 hPa 0,0 l/m 16,1 km/h (3 Bft) O-SO 118 0 min 0,0 UV-I 46 W/m 0,5 C -5,5 C 33,8 km/h (5 Bft)
16.01.2023 14:51 1,8 C 1,1 C 92 % 979,7 hPa 0,0 l/m 18,7 km/h (3 Bft) SO 136 0 min 0,0 UV-I 57 W/m 0,6 C -6,7 C 32,2 km/h (5 Bft)
16.01.2023 14:54 1,9 C 1,1 C 92 % 979,8 hPa 0,0 l/m 17,2 km/h (3 Bft) SO 146 0 min 0,0 UV-I 57 W/m 0,7 C -5,9 C 32,2 km/h (5 Bft)
16.01.2023 14:57 1,8 C 1,1 C 92 % 979,9 hPa 0,0 l/m 16,5 km/h (3 Bft) SO 143 0 min 0,0 UV-I 62 W/m 0,6 C -5,6 C 22,5 km/h (4 Bft)
16.01.2023 15:00 1,8 C 1,1 C 92 % 979,8 hPa 0,2 l/m 14,9 km/h (3 Bft) SO 141 0 min 0,0 UV-I 48 W/m 0,6 C -4,7 C 24,1 km/h (4 Bft)
16.01.2023 15:03 1,8 C 1,1 C 92 % 979,7 hPa 0,0 l/m 14,3 km/h (3 Bft) SO 138 0 min 0,0 UV-I 39 W/m 0,6 C -4,4 C 24,1 km/h (4 Bft)
16.01.2023 15:06 1,7 C 1,1 C 92 % 979,7 hPa 0,0 l/m 15,8 km/h (3 Bft) SO 125 0 min 0,0 UV-I 35 W/m 0,5 C -5,4 C 25,7 km/h (4 Bft)
16.01.2023 15:09 1,7 C 1,1 C 92 % 979,7 hPa 0,2 l/m 17,5 km/h (3 Bft) S-SO 147 0 min 0,0 UV-I 36 W/m 0,5 C -6,3 C 25,7 km/h (4 Bft)
16.01.2023 15:12 1,7 C 1,1 C 92 % 979,6 hPa 0,0 l/m 15,7 km/h (3 Bft) SO 137 0 min 0,0 UV-I 39 W/m 0,5 C -5,3 C 25,7 km/h (4 Bft)
16.01.2023 15:15 1,6 C 1,1 C 92 % 979,6 hPa 0,0 l/m 13,5 km/h (3 Bft) SO 134 0 min 0,0 UV-I 40 W/m 0,4 C -4,1 C 22,5 km/h (4 Bft)
16.01.2023 15:18 1,7 C 1,1 C 92 % 979,6 hPa 0,0 l/m 14,6 km/h (3 Bft) SO 145 0 min 0,0 UV-I 39 W/m 0,5 C -4,7 C 25,7 km/h (4 Bft)
16.01.2023 15:21 1,7 C 1,1 C 92 % 979,5 hPa 0,0 l/m 16,6 km/h (3 Bft) SO 135 0 min 0,0 UV-I 36 W/m 0,5 C -5,8 C 27,4 km/h (4 Bft)
16.01.2023 15:24 1,6 C 1,1 C 92 % 979,4 hPa 0,2 l/m 18,0 km/h (3 Bft) SO 138 0 min 0,0 UV-I 36 W/m 0,4 C -6,6 C 25,7 km/h (4 Bft)
16.01.2023 15:27 1,7 C 1,1 C 92 % 979,4 hPa 0,0 l/m 15,6 km/h (3 Bft) S-SO 161 0 min 0,0 UV-I 42 W/m 0,5 C -5,3 C 25,7 km/h (4 Bft)
16.01.2023 15:30 1,7 C 1,1 C 92 % 979,5 hPa 0,0 l/m 15,3 km/h (3 Bft) SO 143 0 min 0,0 UV-I 41 W/m 0,5 C -5,1 C 25,7 km/h (4 Bft)
16.01.2023 15:33 1,7 C 1,1 C 92 % 979,4 hPa 0,0 l/m 12,3 km/h (3 Bft) S 174 0 min 0,0 UV-I 44 W/m 0,5 C -3,2 C 22,5 km/h (4 Bft)
16.01.2023 15:36 1,7 C 1,1 C 92 % 979,4 hPa 0,0 l/m 15,5 km/h (3 Bft) S 173 0 min 0,0 UV-I 39 W/m 0,5 C -5,2 C 25,7 km/h (4 Bft)
16.01.2023 15:39 1,8 C 1,1 C 92 % 979,4 hPa 0,0 l/m 13,8 km/h (3 Bft) S-SO 158 0 min 0,0 UV-I 39 W/m 0,6 C -4,1 C 25,7 km/h (4 Bft)
16.01.2023 15:42 1,8 C 1,1 C 92 % 979,3 hPa 0,0 l/m 15,1 km/h (3 Bft) S-SO 165 0 min 0,0 UV-I 32 W/m 0,6 C -4,9 C 20,9 km/h (4 Bft)
16.01.2023 15:45 1,8 C 1,1 C 92 % 979,3 hPa 0,0 l/m 15,4 km/h (3 Bft) SO 136 0 min 0,0 UV-I 23 W/m 0,6 C -5,0 C 22,5 km/h (4 Bft)
16.01.2023 15:48 1,8 C 1,1 C 92 % 979,4 hPa 0,0 l/m 14,2 km/h (3 Bft) SO 136 0 min 0,0 UV-I 23 W/m 0,6 C -4,3 C 20,9 km/h (4 Bft)
16.01.2023 15:51 1,8 C 1,1 C 92 % 979,4 hPa 0,0 l/m 8,9 km/h (2 Bft) S-SO 157 0 min 0,0 UV-I 25 W/m 0,6 C -0,6 C 16,1 km/h (3 Bft)
16.01.2023 15:54 1,8 C 1,1 C 92 % 979,3 hPa 0,0 l/m 9,3 km/h (2 Bft) S-SO 157 0 min 0,0 UV-I 25 W/m 0,6 C -0,9 C 16,1 km/h (3 Bft)
16.01.2023 15:57 1,8 C 1,1 C 92 % 979,4 hPa 0,0 l/m 12,0 km/h (2 Bft) S-SO 156 0 min 0,0 UV-I 25 W/m 0,6 C -2,9 C 17,7 km/h (3 Bft)
16.01.2023 16:00 1,8 C 1,1 C 92 % 979,3 hPa 0,2 l/m 9,0 km/h (2 Bft) S-SO 148 0 min 0,0 UV-I 25 W/m 0,6 C -0,6 C 16,1 km/h (3 Bft)
16.01.2023 16:03 1,8 C 1,1 C 92 % 979,3 hPa 0,0 l/m 11,5 km/h (2 Bft) SO 136 0 min 0,0 UV-I 23 W/m 0,6 C -2,6 C 17,7 km/h (3 Bft)
16.01.2023 16:06 1,8 C 1,1 C 92 % 979,5 hPa 0,0 l/m 9,5 km/h (2 Bft) O-SO 115 0 min 0,0 UV-I 28 W/m 0,6 C -1,1 C 17,7 km/h (3 Bft)
16.01.2023 16:09 1,7 C 1,1 C 92 % 979,4 hPa 0,0 l/m 10,3 km/h (2 Bft) S 178 0 min 0,0 UV-I 38 W/m 0,5 C -1,8 C 19,3 km/h (3 Bft)
16.01.2023 16:12 1,7 C 1,1 C 92 % 979,4 hPa 0,0 l/m 8,9 km/h (2 Bft) S-SW 195 0 min 0,0 UV-I 54 W/m 0,5 C -0,7 C 19,3 km/h (3 Bft)
16.01.2023 16:15 1,7 C 1,1 C 92 % 979,5 hPa 0,0 l/m 11,2 km/h (2 Bft) S 173 0 min 0,0 UV-I 64 W/m 0,5 C -2,5 C 17,7 km/h (3 Bft)
16.01.2023 16:18 1,7 C 1,1 C 92 % 979,4 hPa 0,0 l/m 13,4 km/h (3 Bft) S-SO 153 0 min 0,0 UV-I 65 W/m 0,5 C -4,0 C 22,5 km/h (4 Bft)
16.01.2023 16:21 1,7 C 1,1 C 92 % 979,4 hPa 0,0 l/m 11,8 km/h (2 Bft) S-SO 155 0 min 0,0 UV-I 59 W/m 0,5 C -2,9 C 19,3 km/h (3 Bft)
16.01.2023 16:24 1,7 C 1,1 C 92 % 979,4 hPa 0,0 l/m 10,6 km/h (2 Bft) SO 142 0 min 0,0 UV-I 56 W/m 0,5 C -2,0 C 17,7 km/h (3 Bft)
16.01.2023 16:27 1,7 C 1,1 C 92 % 979,4 hPa 0,0 l/m 10,9 km/h (2 Bft) S 173 0 min 0,0 UV-I 40 W/m 0,5 C -2,3 C 22,5 km/h (4 Bft)
16.01.2023 16:30 1,7 C 1,1 C 92 % 979,5 hPa 0,0 l/m 10,6 km/h (2 Bft) S-SW 198 0 min 0,0 UV-I 24 W/m 0,5 C -2,0 C 19,3 km/h (3 Bft)
16.01.2023 16:33 1,6 C 1,1 C 92 % 979,5 hPa 0,0 l/m 13,0 km/h (3 Bft) S-SO 161 0 min 0,0 UV-I 20 W/m 0,4 C -3,8 C 25,7 km/h (4 Bft)
16.01.2023 16:36 1,6 C 0,6 C 92 % 979,5 hPa 0,0 l/m 12,9 km/h (3 Bft) S-SW 198 0 min 0,0 UV-I 13 W/m 0,4 C -3,8 C 20,9 km/h (4 Bft)
16.01.2023 16:39 1,5 C 0,6 C 91 % 979,6 hPa 0,0 l/m 15,8 km/h (3 Bft) S-SW 202 0 min 0,0 UV-I 9 W/m 0,2 C -5,6 C 27,4 km/h (4 Bft)
16.01.2023 16:42 1,4 C 0,6 C 91 % 979,5 hPa 0,0 l/m 15,2 km/h (3 Bft) S 186 0 min 0,0 UV-I 4 W/m 0,1 C -5,4 C 24,1 km/h (4 Bft)
16.01.2023 16:45 1,4 C 1,1 C 91 % 979,6 hPa 0,0 l/m 13,9 km/h (3 Bft) S 182 0 min 0,0 UV-I 0 W/m 0,1 C -4,6 C 25,7 km/h (4 Bft)
16.01.2023 16:48 1,4 C 1,1 C 91 % 979,6 hPa 0,2 l/m 17,2 km/h (3 Bft) S 185 0 min 0,0 UV-I 0 W/m 0,1 C -6,5 C 27,4 km/h (4 Bft)
16.01.2023 16:51 1,4 C 0,6 C 91 % 979,7 hPa 0,0 l/m 16,0 km/h (3 Bft) S 184 0 min 0,0 UV-I 0 W/m 0,1 C -5,8 C 29,0 km/h (5 Bft)
16.01.2023 16:54 1,4 C 0,6 C 91 % 979,7 hPa 0,0 l/m 16,3 km/h (3 Bft) S-SW 198 0 min 0,0 UV-I 0 W/m 0,1 C -6,0 C 27,4 km/h (4 Bft)
16.01.2023 16:57 1,4 C 0,6 C 91 % 979,8 hPa 0,0 l/m 14,1 km/h (3 Bft) S-SO 166 0 min 0,0 UV-I 0 W/m 0,1 C -4,8 C 22,5 km/h (4 Bft)
16.01.2023 17:00 1,3 C 0,6 C 91 % 979,8 hPa 0,0 l/m 14,8 km/h (3 Bft) S-SW 193 0 min 0,0 UV-I 0 W/m -0,0 C -5,3 C 24,1 km/h (4 Bft)
16.01.2023 17:03 1,4 C 1,1 C 92 % 979,7 hPa 0,0 l/m 15,4 km/h (3 Bft) S 183 0 min 0,0 UV-I 0 W/m 0,2 C -5,5 C 29,0 km/h (5 Bft)
16.01.2023 17:06 1,4 C 1,1 C 92 % 979,7 hPa 0,0 l/m 17,1 km/h (3 Bft) SW 226 0 min 0,0 UV-I 0 W/m 0,2 C -6,4 C 27,4 km/h (4 Bft)
16.01.2023 17:09 1,4 C 1,1 C 92 % 979,7 hPa 0,0 l/m 16,8 km/h (3 Bft) S-SW 199 0 min 0,0 UV-I 0 W/m 0,2 C -6,3 C 27,4 km/h (4 Bft)
16.01.2023 17:12 1,4 C 1,1 C 92 % 979,8 hPa 0,0 l/m 21,2 km/h (4 Bft) S 178 0 min 0,0 UV-I 0 W/m 0,2 C -8,3 C 32,2 km/h (5 Bft)
16.01.2023 17:15 1,4 C 1,1 C 92 % 979,8 hPa 0,0 l/m 20,9 km/h (4 Bft) S-SW 205 0 min 0,0 UV-I 0 W/m 0,2 C -8,2 C 30,6 km/h (5 Bft)
16.01.2023 17:18 1,4 C 1,1 C 92 % 979,8 hPa 0,0 l/m 15,9 km/h (3 Bft) S-SO 164 0 min 0,0 UV-I 0 W/m 0,2 C -5,8 C 24,1 km/h (4 Bft)
16.01.2023 17:21 1,4 C 1,1 C 92 % 979,8 hPa 0,0 l/m 16,9 km/h (3 Bft) S 186 0 min 0,0 UV-I 0 W/m 0,2 C -6,3 C 35,4 km/h (5 Bft)
16.01.2023 17:24 1,4 C 1,1 C 92 % 979,7 hPa 0,0 l/m 16,4 km/h (3 Bft) S 190 0 min 0,0 UV-I 0 W/m 0,2 C -6,1 C 24,1 km/h (4 Bft)
16.01.2023 17:27 1,4 C 1,1 C 92 % 979,7 hPa 0,0 l/m 15,8 km/h (3 Bft) S-SW 209 0 min 0,0 UV-I 0 W/m 0,2 C -5,7 C 20,9 km/h (4 Bft)
16.01.2023 17:30 1,4 C 1,1 C 92 % 979,8 hPa 0,0 l/m 17,5 km/h (3 Bft) SW 220 0 min 0,0 UV-I 0 W/m 0,2 C -6,6 C 29,0 km/h (5 Bft)
16.01.2023 17:33 1,4 C 1,1 C 92 % 979,9 hPa 0,0 l/m 16,5 km/h (3 Bft) S-SW 212 0 min 0,0 UV-I 0 W/m 0,2 C -6,1 C 24,1 km/h (4 Bft)
16.01.2023 17:36 1,4 C 1,1 C 92 % 980,0 hPa 0,0 l/m 14,5 km/h (3 Bft) S-SW 209 0 min 0,0 UV-I 0 W/m 0,2 C -5,0 C 29,0 km/h (5 Bft)
16.01.2023 17:39 1,4 C 1,1 C 92 % 979,8 hPa 0,0 l/m 16,6 km/h (3 Bft) SW 225 0 min 0,0 UV-I 0 W/m 0,2 C -6,2 C 32,2 km/h (5 Bft)
16.01.2023 17:42 1,4 C 1,1 C 92 % 979,9 hPa 0,0 l/m 15,8 km/h (3 Bft) S-SO 168 0 min 0,0 UV-I 0 W/m 0,2 C -5,7 C 25,7 km/h (4 Bft)
16.01.2023 17:45 1,4 C 1,1 C 92 % 979,9 hPa 0,0 l/m 16,0 km/h (3 Bft) S-SW 208 0 min 0,0 UV-I 0 W/m 0,2 C -5,8 C 30,6 km/h (5 Bft)
16.01.2023 17:48 1,4 C 1,1 C 92 % 980,0 hPa 0,0 l/m 14,2 km/h (3 Bft) S-SW 203 0 min 0,0 UV-I 0 W/m 0,2 C -4,8 C 24,1 km/h (4 Bft)
16.01.2023 17:51 1,4 C 1,1 C 92 % 979,8 hPa 0,0 l/m 15,5 km/h (3 Bft) S-SW 204 0 min 0,0 UV-I 0 W/m 0,2 C -5,6 C 24,1 km/h (4 Bft)
16.01.2023 17:54 1,4 C 1,1 C 92 % 979,7 hPa 0,0 l/m 15,3 km/h (3 Bft) SW 224 0 min 0,0 UV-I 0 W/m 0,2 C -5,5 C 25,7 km/h (4 Bft)
16.01.2023 17:57 1,4 C 0,6 C 92 % 979,9 hPa 0,0 l/m 15,6 km/h (3 Bft) S-SW 193 0 min 0,0 UV-I 0 W/m 0,2 C -5,6 C 25,7 km/h (4 Bft)
16.01.2023 18:00 1,3 C 0,6 C 92 % 980,0 hPa 0,2 l/m 15,4 km/h (3 Bft) S-SO 157 0 min 0,0 UV-I 0 W/m 0,1 C -5,6 C 25,7 km/h (4 Bft)
16.01.2023 18:03 1,3 C 0,6 C 92 % 980,0 hPa 0,0 l/m 17,6 km/h (3 Bft) S-SW 202 0 min 0,0 UV-I 0 W/m 0,1 C -6,8 C 25,7 km/h (4 Bft)
16.01.2023 18:06 1,3 C 0,6 C 92 % 980,1 hPa 0,0 l/m 16,9 km/h (3 Bft) S-SW 192 0 min 0,0 UV-I 0 W/m 0,1 C -6,5 C 30,6 km/h (5 Bft)
16.01.2023 18:09 1,2 C 0,6 C 92 % 980,1 hPa 0,0 l/m 15,9 km/h (3 Bft) S 190 0 min 0,0 UV-I 0 W/m 0,0 C -6,0 C 25,7 km/h (4 Bft)
16.01.2023 18:12 1,2 C 0,6 C 92 % 980,1 hPa 0,0 l/m 18,2 km/h (3 Bft) SW 217 0 min 0,0 UV-I 0 W/m 0,0 C -7,2 C 27,4 km/h (4 Bft)
16.01.2023 18:15 1,2 C 0,6 C 92 % 980,1 hPa 0,0 l/m 17,2 km/h (3 Bft) S 188 0 min 0,0 UV-I 0 W/m 0,0 C -6,7 C 27,4 km/h (4 Bft)
16.01.2023 18:18 1,2 C 0,0 C 92 % 980,2 hPa 0,0 l/m 17,3 km/h (3 Bft) S-SO 165 0 min 0,0 UV-I 0 W/m 0,0 C -6,8 C 27,4 km/h (4 Bft)
16.01.2023 18:21 1,1 C 0,0 C 92 % 980,2 hPa 0,0 l/m 17,7 km/h (3 Bft) S-SW 193 0 min 0,0 UV-I 0 W/m -0,1 C -7,1 C 37,0 km/h (5 Bft)
16.01.2023 18:24 1,0 C 0,0 C 92 % 980,3 hPa 0,0 l/m 16,7 km/h (3 Bft) SW 219 0 min 0,0 UV-I 0 W/m -0,2 C -6,7 C 25,7 km/h (4 Bft)
16.01.2023 18:27 1,0 C 0,0 C 92 % 980,3 hPa 0,0 l/m 17,2 km/h (3 Bft) SW 223 0 min 0,0 UV-I 0 W/m -0,2 C -7,0 C 32,2 km/h (5 Bft)
16.01.2023 18:30 0,9 C 0,0 C 92 % 980,3 hPa 0,2 l/m 20,8 km/h (4 Bft) S 188 0 min 0,0 UV-I 0 W/m -0,2 C -8,8 C 35,4 km/h (5 Bft)
16.01.2023 18:33 0,9 C 0,0 C 92 % 980,2 hPa 0,0 l/m 16,6 km/h (3 Bft) S 179 0 min 0,0 UV-I 0 W/m -0,2 C -6,8 C 29,0 km/h (5 Bft)
16.01.2023 18:36 0,9 C 0,0 C 92 % 980,2 hPa 0,0 l/m 19,7 km/h (3 Bft) S-SW 202 0 min 0,0 UV-I 0 W/m -0,2 C -8,3 C 32,2 km/h (5 Bft)
16.01.2023 18:39 0,9 C 0,0 C 92 % 980,2 hPa 0,0 l/m 19,5 km/h (3 Bft) S-SW 194 0 min 0,0 UV-I 0 W/m -0,2 C -8,2 C 32,2 km/h (5 Bft)
16.01.2023 18:42 0,9 C 0,0 C 92 % 980,1 hPa 0,0 l/m 20,8 km/h (4 Bft) S 185 0 min 0,0 UV-I 0 W/m -0,2 C -8,8 C 41,8 km/h (6 Bft)
16.01.2023 18:45 0,9 C 0,0 C 92 % 980,4 hPa 0,0 l/m 21,9 km/h (4 Bft) S 184 0 min 0,0 UV-I 0 W/m -0,2 C -9,3 C 33,8 km/h (5 Bft)
16.01.2023 18:48 0,9 C 0,0 C 92 % 980,3 hPa 0,0 l/m 19,6 km/h (3 Bft) S-SW 198 0 min 0,0 UV-I 0 W/m -0,2 C -8,3 C 32,2 km/h (5 Bft)
16.01.2023 18:51 0,9 C 0,0 C 92 % 980,3 hPa 0,0 l/m 23,6 km/h (4 Bft) S 175 0 min 0,0 UV-I 0 W/m -0,2 C -10,0 C 37,0 km/h (5 Bft)
16.01.2023 18:54 0,8 C 0,0 C 92 % 980,4 hPa 0,0 l/m 17,5 km/h (3 Bft) S-SW 193 0 min 0,0 UV-I 0 W/m -0,3 C -7,4 C 27,4 km/h (4 Bft)
16.01.2023 18:57 0,8 C 0,0 C 92 % 980,5 hPa 0,0 l/m 20,4 km/h (4 Bft) S 180 0 min 0,0 UV-I 0 W/m -0,3 C -8,8 C 30,6 km/h (5 Bft)
16.01.2023 19:00 0,8 C 0,0 C 92 % 980,5 hPa 0,0 l/m 17,8 km/h (3 Bft) S-SW 210 0 min 0,0 UV-I 0 W/m -0,3 C -7,5 C 25,7 km/h (4 Bft)
16.01.2023 19:03 0,8 C 0,0 C 92 % 980,4 hPa 0,0 l/m 18,0 km/h (3 Bft) SW 216 0 min 0,0 UV-I 0 W/m -0,3 C -7,6 C 25,7 km/h (4 Bft)
16.01.2023 19:06 0,8 C 0,0 C 92 % 980,5 hPa 0,0 l/m 18,6 km/h (3 Bft) SW 224 0 min 0,0 UV-I 0 W/m -0,3 C -7,9 C 30,6 km/h (5 Bft)
16.01.2023 19:09 0,7 C 0,0 C 92 % 980,5 hPa 0,0 l/m 20,0 km/h (4 Bft) SW 226 0 min 0,0 UV-I 0 W/m -0,4 C -8,7 C 30,6 km/h (5 Bft)
16.01.2023 19:12 0,7 C 0,0 C 92 % 980,7 hPa 0,0 l/m 17,4 km/h (3 Bft) SW 221 0 min 0,0 UV-I 0 W/m -0,4 C -7,5 C 27,4 km/h (4 Bft)
16.01.2023 19:15 0,7 C 0,0 C 92 % 980,6 hPa 0,0 l/m 19,1 km/h (3 Bft) SW 236 0 min 0,0 UV-I 0 W/m -0,4 C -8,3 C 24,1 km/h (4 Bft)
16.01.2023 19:18 0,7 C 0,0 C 92 % 980,8 hPa 0,0 l/m 15,6 km/h (3 Bft) S-SW 211 0 min 0,0 UV-I 0 W/m -0,4 C -6,5 C 27,4 km/h (4 Bft)
16.01.2023 19:21 0,7 C 0,0 C 92 % 980,8 hPa 0,0 l/m 14,6 km/h (3 Bft) S 172 0 min 0,0 UV-I 0 W/m -0,4 C -5,9 C 27,4 km/h (4 Bft)
16.01.2023 19:24 0,7 C 0,0 C 92 % 980,8 hPa 0,0 l/m 14,2 km/h (3 Bft) SW 223 0 min 0,0 UV-I 0 W/m -0,4 C -5,7 C 24,1 km/h (4 Bft)
16.01.2023 19:27 0,7 C 0,0 C 92 % 981,0 hPa 0,0 l/m 14,5 km/h (3 Bft) SW 217 0 min 0,0 UV-I 0 W/m -0,4 C -5,8 C 24,1 km/h (4 Bft)
16.01.2023 19:30 0,7 C 0,0 C 92 % 981,0 hPa 0,0 l/m 15,2 km/h (3 Bft) SW 235 0 min 0,0 UV-I 0 W/m -0,4 C -6,3 C 25,7 km/h (4 Bft)
16.01.2023 19:33 0,7 C 0,0 C 92 % 981,2 hPa 0,0 l/m 18,1 km/h (3 Bft) SW 215 0 min 0,0 UV-I 0 W/m -0,4 C -7,8 C 30,6 km/h (5 Bft)
16.01.2023 19:36 0,8 C 0,0 C 92 % 981,3 hPa 0,0 l/m 15,9 km/h (3 Bft) SW 216 0 min 0,0 UV-I 0 W/m -0,3 C -6,5 C 29,0 km/h (5 Bft)
16.01.2023 19:39 0,7 C 0,0 C 92 % 981,2 hPa 0,2 l/m 15,5 km/h (3 Bft) S-SW 203 0 min 0,0 UV-I 0 W/m -0,4 C -6,4 C 24,1 km/h (4 Bft)
16.01.2023 19:42 0,7 C 0,0 C 92 % 981,3 hPa 0,0 l/m 15,1 km/h (3 Bft) SW 217 0 min 0,0 UV-I 0 W/m -0,4 C -6,2 C 24,1 km/h (4 Bft)
16.01.2023 19:45 0,7 C 0,0 C 92 % 981,3 hPa 0,0 l/m 13,6 km/h (3 Bft) W-NW 295 0 min 0,0 UV-I 0 W/m -0,4 C -5,3 C 27,4 km/h (4 Bft)
16.01.2023 19:48 0,8 C 0,0 C 92 % 981,5 hPa 0,0 l/m 15,9 km/h (3 Bft) SW 231 0 min 0,0 UV-I 0 W/m -0,3 C -6,5 C 25,7 km/h (4 Bft)
16.01.2023 19:51 0,8 C 0,0 C 92 % 981,6 hPa 0,0 l/m 17,6 km/h (3 Bft) SW 233 0 min 0,0 UV-I 0 W/m -0,3 C -7,4 C 40,2 km/h (6 Bft)
16.01.2023 19:54 0,7 C 0,0 C 92 % 981,5 hPa 0,0 l/m 14,5 km/h (3 Bft) SW 232 0 min 0,0 UV-I 0 W/m -0,4 C -5,8 C 24,1 km/h (4 Bft)
16.01.2023 19:57 0,8 C 0,0 C 92 % 981,8 hPa 0,0 l/m 15,9 km/h (3 Bft) SW 232 0 min 0,0 UV-I 0 W/m -0,3 C -6,5 C 32,2 km/h (5 Bft)
16.01.2023 20:00 0,7 C 0,0 C 92 % 981,8 hPa 0,0 l/m 16,5 km/h (3 Bft) W-SW 238 0 min 0,0 UV-I 0 W/m -0,4 C -7,0 C 40,2 km/h (6 Bft)
16.01.2023 20:03 0,7 C 0,0 C 92 % 981,8 hPa 0,0 l/m 14,8 km/h (3 Bft) W-NW 288 0 min 0,0 UV-I 0 W/m -0,4 C -6,0 C 24,1 km/h (4 Bft)
16.01.2023 20:06 0,7 C 0,0 C 92 % 982,0 hPa 0,0 l/m 13,8 km/h (3 Bft) W-SW 246 0 min 0,0 UV-I 0 W/m -0,4 C -5,4 C 29,0 km/h (5 Bft)
16.01.2023 20:09 0,7 C 0,0 C 92 % 982,1 hPa 0,2 l/m 21,9 km/h (4 Bft) SW 223 0 min 0,0 UV-I 0 W/m -0,4 C -9,6 C 45,1 km/h (6 Bft)
16.01.2023 20:12 0,7 C 0,0 C 92 % 982,1 hPa 0,0 l/m 18,6 km/h (3 Bft) SW 216 0 min 0,0 UV-I 0 W/m -0,4 C -8,1 C 32,2 km/h (5 Bft)
16.01.2023 20:15 0,7 C 0,0 C 92 % 982,2 hPa 0,2 l/m 18,9 km/h (3 Bft) SW 232 0 min 0,0 UV-I 0 W/m -0,4 C -8,2 C 37,0 km/h (5 Bft)
16.01.2023 20:18 0,7 C 0,0 C 92 % 982,3 hPa 0,0 l/m 17,6 km/h (3 Bft) W-SW 243 0 min 0,0 UV-I 0 W/m -0,4 C -7,6 C 30,6 km/h (5 Bft)
16.01.2023 20:21 0,7 C 0,0 C 92 % 982,3 hPa 0,0 l/m 21,1 km/h (4 Bft) S-SW 192 0 min 0,0 UV-I 0 W/m -0,4 C -9,2 C 35,4 km/h (5 Bft)
16.01.2023 20:24 0,7 C 0,0 C 92 % 982,3 hPa 0,2 l/m 19,5 km/h (3 Bft) W-SW 250 0 min 0,0 UV-I 0 W/m -0,4 C -8,5 C 35,4 km/h (5 Bft)
16.01.2023 20:27 0,7 C 0,0 C 92 % 982,3 hPa 0,0 l/m 17,5 km/h (3 Bft) W-SW 256 0 min 0,0 UV-I 0 W/m -0,4 C -7,5 C 25,7 km/h (4 Bft)
16.01.2023 20:30 0,7 C 0,0 C 92 % 982,5 hPa 0,0 l/m 18,6 km/h (3 Bft) W-SW 248 0 min 0,0 UV-I 0 W/m -0,4 C -8,1 C 37,0 km/h (5 Bft)
16.01.2023 20:33 0,7 C 0,0 C 92 % 982,6 hPa 0,0 l/m 17,3 km/h (3 Bft) W-SW 248 0 min 0,0 UV-I 0 W/m -0,4 C -7,4 C 30,6 km/h (5 Bft)
16.01.2023 20:34 0,7 C 0,0 C 92 % 982,6 hPa 0,0 l/m 17,7 km/h (3 Bft) SW 225 0 min 0,0 UV-I 0 W/m -0,4 C -7,6 C 29,0 km/h (5 Bft)
16.01.2023 20:35 0,7 C 0,0 C 92 % 982,7 hPa 0,0 l/m 22,5 km/h (4 Bft) W-SW 247 0 min 0,0 UV-I 0 W/m -0,4 C -9,8 C 40,2 km/h (6 Bft)
16.01.2023 20:36 0,7 C 0,0 C 92 % 982,7 hPa 0,0 l/m 16,1 km/h (3 Bft) SW 225 0 min 0,0 UV-I 0 W/m -0,4 C -6,8 C 22,5 km/h (4 Bft)
16.01.2023 20:37 0,7 C 0,0 C 92 % 982,7 hPa 0,0 l/m 12,9 km/h (3 Bft) SW 225 0 min 0,0 UV-I 0 W/m -0,4 C -4,8 C 20,9 km/h (4 Bft)
16.01.2023 20:38 0,7 C 0,0 C 92 % 982,7 hPa 0,0 l/m 9,7 km/h (2 Bft) SW 225 0 min 0,0 UV-I 0 W/m -0,4 C -2,4 C 16,1 km/h (3 Bft)
16.01.2023 20:39 0,7 C 0,0 C 92 % 982,8 hPa 0,0 l/m 11,3 km/h (2 Bft) W-SW 247 0 min 0,0 UV-I 0 W/m -0,4 C -3,7 C 22,5 km/h (4 Bft)
16.01.2023 20:40 0,7 C 0,0 C 92 % 982,8 hPa 0,0 l/m 12,9 km/h (3 Bft) W-SW 247 0 min 0,0 UV-I 0 W/m -0,4 C -4,8 C 22,5 km/h (4 Bft)
16.01.2023 20:41 0,7 C 0,0 C 92 % 982,9 hPa 0,0 l/m 14,5 km/h (3 Bft) W-SW 247 0 min 0,0 UV-I 0 W/m -0,4 C -5,8 C 20,9 km/h (4 Bft)
16.01.2023 20:42 0,7 C 0,0 C 92 % 982,9 hPa 0,0 l/m 9,7 km/h (2 Bft) W-SW 247 0 min 0,0 UV-I 0 W/m -0,4 C -2,4 C 16,1 km/h (3 Bft)
16.01.2023 20:43 0,7 C 0,0 C 92 % 982,9 hPa 0,0 l/m 8,0 km/h (2 Bft) W-SW 247 0 min 0,0 UV-I 0 W/m -0,4 C -0,9 C 12,9 km/h (3 Bft)
16.01.2023 20:44 0,7 C 0,0 C 92 % 982,9 hPa 0,0 l/m 11,3 km/h (2 Bft) SW 225 0 min 0,0 UV-I 0 W/m -0,4 C -3,7 C 16,1 km/h (3 Bft)
16.01.2023 20:48 0,7 C 0,0 C 92 % 982,9 hPa 0,2 l/m 10,9 km/h (2 Bft) W-SW 245 0 min 0,0 UV-I 0 W/m -0,4 C -3,4 C 17,7 km/h (3 Bft)
16.01.2023 20:51 0,7 C 0,0 C 92 % 983,0 hPa 0,2 l/m 12,6 km/h (3 Bft) W 270 0 min 0,0 UV-I 0 W/m -0,4 C -4,6 C 24,1 km/h (4 Bft)
16.01.2023 20:54 0,7 C 0,0 C 92 % 983,0 hPa 0,2 l/m 11,0 km/h (2 Bft) W-NW 288 0 min 0,0 UV-I 0 W/m -0,4 C -3,5 C 27,4 km/h (4 Bft)
16.01.2023 20:57 0,6 C 0,0 C 92 % 983,2 hPa 0,2 l/m 13,6 km/h (3 Bft) W-SW 242 0 min 0,0 UV-I 0 W/m -0,5 C -5,4 C 27,4 km/h (4 Bft)
16.01.2023 21:00 0,6 C 0,0 C 92 % 983,2 hPa 0,0 l/m 13,7 km/h (3 Bft) S-SW 209 0 min 0,0 UV-I 0 W/m -0,5 C -5,5 C 30,6 km/h (5 Bft)
16.01.2023 21:03 0,7 C 0,0 C 92 % 983,3 hPa 0,2 l/m 19,7 km/h (3 Bft) SW 222 0 min 0,0 UV-I 0 W/m -0,4 C -8,6 C 41,8 km/h (6 Bft)
16.01.2023 21:06 0,7 C 0,0 C 92 % 983,4 hPa 0,0 l/m 14,5 km/h (3 Bft) W 271 0 min 0,0 UV-I 0 W/m -0,4 C -5,8 C 29,0 km/h (5 Bft)
16.01.2023 21:09 0,7 C 0,0 C 92 % 983,5 hPa 0,2 l/m 13,8 km/h (3 Bft) W-SW 257 0 min 0,0 UV-I 0 W/m -0,4 C -5,4 C 22,5 km/h (4 Bft)
16.01.2023 21:12 0,7 C 0,0 C 92 % 983,7 hPa 0,0 l/m 13,9 km/h (3 Bft) SW 214 0 min 0,0 UV-I 0 W/m -0,4 C -5,5 C 32,2 km/h (5 Bft)
16.01.2023 21:15 0,7 C 0,0 C 92 % 983,8 hPa 0,0 l/m 21,4 km/h (4 Bft) W 275 0 min 0,0 UV-I 0 W/m -0,4 C -9,3 C 40,2 km/h (6 Bft)
16.01.2023 21:18 0,7 C 0,0 C 92 % 983,8 hPa 0,0 l/m 15,6 km/h (3 Bft) W-SW 243 0 min 0,0 UV-I 0 W/m -0,4 C -6,5 C 33,8 km/h (5 Bft)
16.01.2023 21:21 0,6 C 0,0 C 92 % 984,0 hPa 0,2 l/m 12,1 km/h (2 Bft) S 174 0 min 0,0 UV-I 0 W/m -0,5 C -4,4 C 22,5 km/h (4 Bft)
16.01.2023 21:24 0,6 C 0,0 C 92 % 984,2 hPa 0,0 l/m 13,9 km/h (3 Bft) W-SW 258 0 min 0,0 UV-I 0 W/m -0,5 C -5,6 C 29,0 km/h (5 Bft)
16.01.2023 21:27 0,6 C 0,0 C 92 % 984,1 hPa 0,0 l/m 12,3 km/h (3 Bft) W 271 0 min 0,0 UV-I 0 W/m -0,5 C -4,5 C 27,4 km/h (4 Bft)
16.01.2023 21:30 0,6 C 0,0 C 92 % 984,3 hPa 0,0 l/m 14,8 km/h (3 Bft) W 266 0 min 0,0 UV-I 0 W/m -0,5 C -6,1 C 24,1 km/h (4 Bft)
16.01.2023 21:33 0,6 C 0,0 C 92 % 984,4 hPa 0,2 l/m 16,1 km/h (3 Bft) S-SW 206 0 min 0,0 UV-I 0 W/m -0,5 C -6,9 C 32,2 km/h (5 Bft)
16.01.2023 21:36 0,6 C 0,0 C 92 % 984,4 hPa 0,0 l/m 12,9 km/h (3 Bft) SW 236 0 min 0,0 UV-I 0 W/m -0,5 C -4,9 C 25,7 km/h (4 Bft)
16.01.2023 21:39 0,6 C 0,0 C 92 % 984,5 hPa 0,0 l/m 10,7 km/h (2 Bft) S-SW 202 0 min 0,0 UV-I 0 W/m -0,5 C -3,3 C 22,5 km/h (4 Bft)
16.01.2023 21:42 0,6 C 0,0 C 92 % 984,5 hPa 0,0 l/m 12,7 km/h (3 Bft) S 184 0 min 0,0 UV-I 0 W/m -0,5 C -4,8 C 25,7 km/h (4 Bft)
16.01.2023 21:45 0,5 C 0,0 C 92 % 984,6 hPa 0,2 l/m 9,7 km/h (2 Bft) S 172 0 min 0,0 UV-I 0 W/m -0,6 C -2,6 C 24,1 km/h (4 Bft)
16.01.2023 21:48 0,5 C 0,0 C 92 % 984,6 hPa 0,0 l/m 14,1 km/h (3 Bft) S-SW 201 0 min 0,0 UV-I 0 W/m -0,6 C -5,8 C 29,0 km/h (5 Bft)
16.01.2023 21:51 0,5 C 0,0 C 92 % 984,7 hPa 0,0 l/m 12,6 km/h (3 Bft) SW 227 0 min 0,0 UV-I 0 W/m -0,6 C -4,8 C 24,1 km/h (4 Bft)
16.01.2023 21:54 0,5 C 0,0 C 92 % 984,7 hPa 0,0 l/m 14,1 km/h (3 Bft) SW 223 0 min 0,0 UV-I 0 W/m -0,6 C -5,8 C 25,7 km/h (4 Bft)
16.01.2023 21:57 0,5 C 0,0 C 92 % 984,8 hPa 0,0 l/m 14,4 km/h (3 Bft) W-SW 242 0 min 0,0 UV-I 0 W/m -0,6 C -6,0 C 25,7 km/h (4 Bft)
16.01.2023 22:00 0,4 C 0,0 C 92 % 984,7 hPa 0,2 l/m 15,0 km/h (3 Bft) S-SW 209 0 min 0,0 UV-I 0 W/m -0,7 C -6,5 C 29,0 km/h (5 Bft)
16.01.2023 22:03 0,5 C 0,0 C 92 % 984,8 hPa 0,0 l/m 18,6 km/h (3 Bft) S 184 0 min 0,0 UV-I 0 W/m -0,6 C -8,3 C 38,6 km/h (5 Bft)
16.01.2023 22:06 0,5 C 0,0 C 92 % 984,9 hPa 0,0 l/m 22,2 km/h (4 Bft) S-SW 192 0 min 0,0 UV-I 0 W/m -0,6 C -9,9 C 37,0 km/h (5 Bft)
16.01.2023 22:09 0,5 C 0,0 C 92 % 985,0 hPa 0,0 l/m 16,4 km/h (3 Bft) W-SW 252 0 min 0,0 UV-I 0 W/m -0,6 C -7,2 C 37,0 km/h (5 Bft)
16.01.2023 22:12 0,5 C 0,0 C 92 % 985,0 hPa 0,2 l/m 20,7 km/h (4 Bft) SW 223 0 min 0,0 UV-I 0 W/m -0,6 C -9,3 C 40,2 km/h (6 Bft)
16.01.2023 22:15 0,4 C 0,0 C 92 % 985,1 hPa 0,0 l/m 15,1 km/h (3 Bft) W 259 0 min 0,0 UV-I 0 W/m -0,7 C -6,6 C 35,4 km/h (5 Bft)
16.01.2023 22:18 0,4 C 0,0 C 92 % 985,1 hPa 0,0 l/m 15,0 km/h (3 Bft) SW 223 0 min 0,0 UV-I 0 W/m -0,7 C -6,5 C 24,1 km/h (4 Bft)
16.01.2023 22:21 0,4 C 0,0 C 92 % 985,4 hPa 0,0 l/m 17,3 km/h (3 Bft) SW 219 0 min 0,0 UV-I 0 W/m -0,7 C -7,8 C 29,0 km/h (5 Bft)
16.01.2023 22:24 0,4 C 0,0 C 92 % 985,4 hPa 0,0 l/m 12,6 km/h (3 Bft) SW 223 0 min 0,0 UV-I 0 W/m -0,7 C -5,0 C 27,4 km/h (4 Bft)
16.01.2023 22:27 0,4 C 0,0 C 92 % 985,4 hPa 0,0 l/m 15,1 km/h (3 Bft) W-SW 243 0 min 0,0 UV-I 0 W/m -0,7 C -6,6 C 27,4 km/h (4 Bft)
16.01.2023 22:30 0,4 C 0,0 C 92 % 985,5 hPa 0,0 l/m 17,1 km/h (3 Bft) SW 215 0 min 0,0 UV-I 0 W/m -0,7 C -7,7 C 33,8 km/h (5 Bft)
16.01.2023 22:33 0,4 C 0,0 C 92 % 985,5 hPa 0,2 l/m 14,3 km/h (3 Bft) SW 231 0 min 0,0 UV-I 0 W/m -0,7 C -6,1 C 25,7 km/h (4 Bft)
16.01.2023 22:36 0,4 C 0,0 C 92 % 985,5 hPa 0,0 l/m 16,7 km/h (3 Bft) S-SW 199 0 min 0,0 UV-I 0 W/m -0,7 C -7,5 C 30,6 km/h (5 Bft)
16.01.2023 22:39 0,4 C 0,0 C 92 % 985,6 hPa 0,0 l/m 16,8 km/h (3 Bft) SW 234 0 min 0,0 UV-I 0 W/m -0,7 C -7,5 C 27,4 km/h (4 Bft)
16.01.2023 22:42 0,4 C 0,0 C 92 % 985,6 hPa 0,0 l/m 15,0 km/h (3 Bft) W-SW 242 0 min 0,0 UV-I 0 W/m -0,7 C -6,5 C 30,6 km/h (5 Bft)
16.01.2023 22:45 0,4 C 0,0 C 92 % 985,7 hPa 0,0 l/m 16,0 km/h (3 Bft) W 261 0 min 0,0 UV-I 0 W/m -0,7 C -7,1 C 35,4 km/h (5 Bft)
16.01.2023 22:48 0,4 C 0,0 C 92 % 985,7 hPa 0,0 l/m 14,7 km/h (3 Bft) W-SW 252 0 min 0,0 UV-I 0 W/m -0,7 C -6,3 C 27,4 km/h (4 Bft)
16.01.2023 22:51 0,4 C 0,0 C 92 % 985,6 hPa 0,0 l/m 13,4 km/h (3 Bft) S 175 0 min 0,0 UV-I 0 W/m -0,7 C -5,5 C 22,5 km/h (4 Bft)
16.01.2023 22:54 0,4 C 0,0 C 92 % 985,6 hPa 0,0 l/m 19,5 km/h (3 Bft) SW 235 0 min 0,0 UV-I 0 W/m -0,7 C -8,9 C 33,8 km/h (5 Bft)
16.01.2023 22:57 0,4 C 0,0 C 92 % 985,6 hPa 0,0 l/m 13,2 km/h (3 Bft) W-SW 249 0 min 0,0 UV-I 0 W/m -0,7 C -5,4 C 35,4 km/h (5 Bft)
16.01.2023 23:00 0,3 C 0,0 C 92 % 985,7 hPa 0,0 l/m 18,9 km/h (3 Bft) W-NW 288 0 min 0,0 UV-I 0 W/m -0,8 C -8,7 C 30,6 km/h (5 Bft)
16.01.2023 23:03 0,3 C 0,0 C 92 % 985,7 hPa 0,0 l/m 17,7 km/h (3 Bft) W-SW 240 0 min 0,0 UV-I 0 W/m -0,8 C -8,1 C 32,2 km/h (5 Bft)
16.01.2023 23:06 0,3 C 0,0 C 92 % 985,7 hPa 0,0 l/m 20,1 km/h (4 Bft) W 265 0 min 0,0 UV-I 0 W/m -0,8 C -9,3 C 45,1 km/h (6 Bft)
16.01.2023 23:07 0,3 C 0,0 C 92 % 985,7 hPa 0,0 l/m 22,5 km/h (4 Bft) SW 225 0 min 0,0 UV-I 0 W/m -0,8 C -10,3 C 32,2 km/h (5 Bft)
16.01.2023 23:08 0,3 C 0,0 C 92 % 985,8 hPa 0,0 l/m 20,9 km/h (4 Bft) SW 225 0 min 0,0 UV-I 0 W/m -0,8 C -9,7 C 33,8 km/h (5 Bft)
16.01.2023 23:09 0,3 C 0,0 C 92 % 985,7 hPa 0,0 l/m 16,1 km/h (3 Bft) SW 225 0 min 0,0 UV-I 0 W/m -0,8 C -7,3 C 27,4 km/h (4 Bft)
16.01.2023 23:10 0,3 C 0,0 C 92 % 985,7 hPa 0,0 l/m 14,5 km/h (3 Bft) W-SW 247 0 min 0,0 UV-I 0 W/m -0,8 C -6,3 C 20,9 km/h (4 Bft)
16.01.2023 23:12 0,3 C 0,0 C 92 % 985,7 hPa 0,0 l/m 15,8 km/h (3 Bft) SW 220 0 min 0,0 UV-I 0 W/m -0,8 C -7,1 C 24,1 km/h (4 Bft)
16.01.2023 23:15 0,3 C 0,0 C 92 % 985,8 hPa 0,0 l/m 17,3 km/h (3 Bft) W-SW 256 0 min 0,0 UV-I 0 W/m -0,8 C -7,9 C 33,8 km/h (5 Bft)
16.01.2023 23:18 0,3 C 0,0 C 92 % 985,8 hPa 0,0 l/m 20,6 km/h (4 Bft) S-SW 196 0 min 0,0 UV-I 0 W/m -0,8 C -9,5 C 41,8 km/h (6 Bft)
16.01.2023 23:21 0,3 C 0,0 C 92 % 985,8 hPa 0,0 l/m 18,1 km/h (3 Bft) SW 219 0 min 0,0 UV-I 0 W/m -0,8 C -8,3 C 35,4 km/h (5 Bft)
16.01.2023 23:24 0,3 C 0,0 C 92 % 985,9 hPa 0,0 l/m 21,8 km/h (4 Bft) SW 226 0 min 0,0 UV-I 0 W/m -0,8 C -10,0 C 35,4 km/h (5 Bft)
16.01.2023 23:27 0,3 C 0,0 C 92 % 986,0 hPa 0,0 l/m 18,4 km/h (3 Bft) SW 214 0 min 0,0 UV-I 0 W/m -0,8 C -8,5 C 32,2 km/h (5 Bft)
16.01.2023 23:30 0,3 C 0,0 C 92 % 986,1 hPa 0,0 l/m 15,0 km/h (3 Bft) S-SW 206 0 min 0,0 UV-I 0 W/m -0,8 C -6,6 C 25,7 km/h (4 Bft)
16.01.2023 23:33 0,3 C 0,0 C 92 % 986,1 hPa 0,0 l/m 17,9 km/h (3 Bft) S-SW 201 0 min 0,0 UV-I 0 W/m -0,8 C -8,2 C 30,6 km/h (5 Bft)
16.01.2023 23:36 0,3 C 0,0 C 92 % 986,1 hPa 0,0 l/m 15,9 km/h (3 Bft) SW 229 0 min 0,0 UV-I 0 W/m -0,8 C -7,1 C 29,0 km/h (5 Bft)
16.01.2023 23:39 0,2 C 0,0 C 92 % 986,1 hPa 0,0 l/m 12,8 km/h (3 Bft) W-SW 247 0 min 0,0 UV-I 0 W/m -0,9 C -5,3 C 25,7 km/h (4 Bft)
16.01.2023 23:42 0,2 C 0,0 C 92 % 986,1 hPa 0,0 l/m 16,1 km/h (3 Bft) SW 229 0 min 0,0 UV-I 0 W/m -0,9 C -7,4 C 32,2 km/h (5 Bft)
16.01.2023 23:45 0,2 C 0,0 C 92 % 986,3 hPa 0,2 l/m 13,1 km/h (3 Bft) W-SW 247 0 min 0,0 UV-I 0 W/m -0,9 C -5,5 C 25,7 km/h (4 Bft)
16.01.2023 23:48 0,2 C 0,0 C 92 % 986,3 hPa 0,0 l/m 10,8 km/h (2 Bft) S-SW 194 0 min 0,0 UV-I 0 W/m -0,9 C -3,9 C 22,5 km/h (4 Bft)
16.01.2023 23:51 0,2 C 0,0 C 92 % 986,3 hPa 0,0 l/m 15,8 km/h (3 Bft) SW 216 0 min 0,0 UV-I 0 W/m -0,9 C -7,2 C 30,6 km/h (5 Bft)
16.01.2023 23:54 0,1 C 0,0 C 92 % 986,2 hPa 0,0 l/m 13,7 km/h (3 Bft) SW 215 0 min 0,0 UV-I 0 W/m -1,0 C -6,0 C 22,5 km/h (4 Bft)
16.01.2023 23:57 0,1 C 0,0 C 92 % 986,3 hPa 0,0 l/m 15,6 km/h (3 Bft) W-SW 238 0 min 0,0 UV-I 0 W/m -1,0 C -7,2 C 29,0 km/h (5 Bft)
16.01.2023 23:58 0,1 C 0,0 C 92 % 986,3 hPa 0,0 l/m 14,5 km/h (3 Bft) S-SW 202 0 min 0,0 UV-I 0 W/m -1,0 C -6,6 C 20,9 km/h (4 Bft)
16.01.2023 23:59 0,1 C 0,0 C 92 % 986,3 hPa 0,0 l/m 12,9 km/h (3 Bft) S-SW 202 0 min 0,0 UV-I 0 W/m -1,0 C -5,5 C 17,7 km/h (3 Bft)
_ Min-Zeit 23:54 01:11 00:18 15:42 - 01:07 - - - - - 23:54 07:37 01:07
Minimum _ 0,1 C 0,0 C 90 % 979,3 hPa - 6,4 km/h (2 Bft) - - - - - -1,0 C -12,2 C 8,0 km/h (2 Bft)
_ Max-Zeit 02:27 00:00 01:41 00:01 00:15 07:21 - - 00:00 12:45 12:42 02:27 01:07 07:10
Maximum _ 2,4 C 1,7 C 92 % 1002,2 hPa 0,2 l/m 35,4 km/h
SO (5 Bft)
- - 0 min 0,4 UV-I 135 W/m 1,1 C 1,5 C 51,5 km/h
S (7 Bft)
Durchschnitt _ 1,4 C 0,7 C 91 % 987,3 hPa #12,6 l/m 17,0 km/h (3 Bft) S - #0 min. 0,3 UV-I 44 W/m 0,1 C -6,2 C 27,9 km/h (4 Bft)